<?xml version='1.0' encoding='UTF-8'?><gpx version="1.1" creator="JPX - https://github.com/jenetics/jpx" xmlns="http://www.topografix.com/GPX/1/1"><trk><trkseg><trkpt lat="-33.834701726009634" lon="115.3567611296202"><ele>154.0</ele><time>2026-04-27T07:07:11Z</time></trkpt><trkpt lat="-33.834642824971056" lon="115.35671002681215"><ele>154.0</ele><time>2026-04-27T07:07:14Z</time></trkpt><trkpt lat="-33.834596115753136" lon="115.35662510040318"><ele>154.0</ele><time>2026-04-27T07:07:17Z</time></trkpt><trkpt lat="-33.83462367821519" lon="115.35651609235406"><ele>154.0</ele><time>2026-04-27T07:07:20Z</time></trkpt><trkpt lat="-33.83463156983988" lon="115.35643523260855"><ele>154.0</ele><time>2026-04-27T07:07:22Z</time></trkpt><trkpt lat="-33.83457953230602" lon="115.35634265470851"><ele>154.0</ele><time>2026-04-27T07:07:25Z</time></trkpt><trkpt lat="-33.834557268990245" lon="115.35623777172013"><ele>154.16666666666669</ele><time>2026-04-27T07:07:28Z</time></trkpt><trkpt lat="-33.83453846235364" lon="115.35616473472494"><ele>154.33333333333334</ele><time>2026-04-27T07:07:30Z</time></trkpt><trkpt lat="-33.834453994880676" lon="115.35617527011969"><ele>154.5</ele><time>2026-04-27T07:07:33Z</time></trkpt><trkpt lat="-33.83436439782323" lon="115.35621631060913"><ele>154.66666666666666</ele><time>2026-04-27T07:07:36Z</time></trkpt><trkpt lat="-33.834296645561935" lon="115.3562526798803"><ele>154.83333333333331</ele><time>2026-04-27T07:07:38Z</time></trkpt><trkpt lat="-33.83421642331178" lon="115.35627122379181"><ele>155.0</ele><time>2026-04-27T07:07:40Z</time></trkpt><trkpt lat="-33.83414636423901" lon="115.35629371860203"><ele>155.16666666666666</ele><time>2026-04-27T07:07:42Z</time></trkpt><trkpt lat="-33.83407994999709" lon="115.35630540601332"><ele>155.33333333333331</ele><time>2026-04-27T07:07:45Z</time></trkpt><trkpt lat="-33.83408179313204" lon="115.35617929868468"><ele>155.5</ele><time>2026-04-27T07:07:48Z</time></trkpt><trkpt lat="-33.83409054804585" lon="115.35609862448936"><ele>155.66666666666666</ele><time>2026-04-27T07:07:50Z</time></trkpt><trkpt lat="-33.83401904516617" lon="115.35614119648773"><ele>155.83333333333334</ele><time>2026-04-27T07:07:53Z</time></trkpt><trkpt lat="-33.83395658082757" lon="115.35615204976742"><ele>156.0</ele><time>2026-04-27T07:07:55Z</time></trkpt><trkpt lat="-33.83386835709246" lon="115.35613231087838"><ele>156.0</ele><time>2026-04-27T07:07:58Z</time></trkpt><trkpt lat="-33.83379489848286" lon="115.35615150706568"><ele>156.0</ele><time>2026-04-27T07:08:01Z</time></trkpt><trkpt lat="-33.83372030621955" lon="115.35615630912005"><ele>156.0</ele><time>2026-04-27T07:08:03Z</time></trkpt><trkpt lat="-33.83364577521377" lon="115.35616566969469"><ele>156.0</ele><time>2026-04-27T07:08:05Z</time></trkpt><trkpt lat="-33.83355849622088" lon="115.35616819553614"><ele>156.0</ele><time>2026-04-27T07:08:07Z</time></trkpt><trkpt lat="-33.83347963639871" lon="115.3561403522517"><ele>156.0</ele><time>2026-04-27T07:08:10Z</time></trkpt><trkpt lat="-33.83341475892019" lon="115.35612051761834"><ele>156.25</ele><time>2026-04-27T07:08:12Z</time></trkpt><trkpt lat="-33.8332542251688" lon="115.35615896332749"><ele>156.5</ele><time>2026-04-27T07:08:15Z</time></trkpt><trkpt lat="-33.83314694601486" lon="115.35620906813419"><ele>156.75</ele><time>2026-04-27T07:08:16Z</time></trkpt><trkpt lat="-33.83303772496405" lon="115.35625492241441"><ele>157.0</ele><time>2026-04-27T07:08:18Z</time></trkpt><trkpt lat="-33.83293402275919" lon="115.35627761949463"><ele>157.0</ele><time>2026-04-27T07:08:20Z</time></trkpt><trkpt lat="-33.83283780039003" lon="115.35628938507918"><ele>157.0</ele><time>2026-04-27T07:08:22Z</time></trkpt><trkpt lat="-33.832718742854134" lon="115.35628995751536"><ele>157.0</ele><time>2026-04-27T07:08:24Z</time></trkpt><trkpt lat="-33.8326287200663" lon="115.35633473722834"><ele>157.0</ele><time>2026-04-27T07:08:26Z</time></trkpt><trkpt lat="-33.83257879228549" lon="115.35643268098671"><ele>157.0</ele><time>2026-04-27T07:08:28Z</time></trkpt><trkpt lat="-33.83250859663928" lon="115.35650650548259"><ele>157.0</ele><time>2026-04-27T07:08:30Z</time></trkpt><trkpt lat="-33.832401178623385" lon="115.35648507037718"><ele>157.0</ele><time>2026-04-27T07:08:32Z</time></trkpt><trkpt lat="-33.83228682771689" lon="115.35640858311747"><ele>157.0</ele><time>2026-04-27T07:08:34Z</time></trkpt><trkpt lat="-33.83223262195123" lon="115.35635257427495"><ele>157.0</ele><time>2026-04-27T07:08:35Z</time></trkpt><trkpt lat="-33.83215873707977" lon="115.35625920619508"><ele>157.0</ele><time>2026-04-27T07:08:36Z</time></trkpt><trkpt lat="-33.83213413246385" lon="115.35616880570068"><ele>157.0</ele><time>2026-04-27T07:08:37Z</time></trkpt><trkpt lat="-33.83209738488397" lon="115.3561062985011"><ele>157.0</ele><time>2026-04-27T07:08:38Z</time></trkpt><trkpt lat="-33.83199858809279" lon="115.35602486118015"><ele>157.0</ele><time>2026-04-27T07:08:40Z</time></trkpt><trkpt lat="-33.831889482613086" lon="115.35594854256081"><ele>157.0</ele><time>2026-04-27T07:08:42Z</time></trkpt><trkpt lat="-33.83182697289026" lon="115.35590574213589"><ele>157.0</ele><time>2026-04-27T07:08:43Z</time></trkpt><trkpt lat="-33.83176974824081" lon="115.3558486262302"><ele>157.0</ele><time>2026-04-27T07:08:44Z</time></trkpt><trkpt lat="-33.83170772955823" lon="115.35573880343223"><ele>157.0</ele><time>2026-04-27T07:08:46Z</time></trkpt><trkpt lat="-33.831661971058594" lon="115.35560360822713"><ele>157.0</ele><time>2026-04-27T07:08:48Z</time></trkpt><trkpt lat="-33.831601734273754" lon="115.35548702935209"><ele>157.0</ele><time>2026-04-27T07:08:50Z</time></trkpt><trkpt lat="-33.83152011423004" lon="115.35542724042915"><ele>157.0</ele><time>2026-04-27T07:08:52Z</time></trkpt><trkpt lat="-33.83145898887278" lon="115.3553792284729"><ele>157.0</ele><time>2026-04-27T07:08:54Z</time></trkpt><trkpt lat="-33.83138172480827" lon="115.35530914262823"><ele>157.0</ele><time>2026-04-27T07:08:56Z</time></trkpt><trkpt lat="-33.831323804987456" lon="115.3552687497913"><ele>157.0</ele><time>2026-04-27T07:08:57Z</time></trkpt><trkpt lat="-33.83127079886552" lon="115.35521479339609"><ele>157.0</ele><time>2026-04-27T07:08:58Z</time></trkpt><trkpt lat="-33.83122864336573" lon="115.35514603604933"><ele>157.0</ele><time>2026-04-27T07:08:59Z</time></trkpt><trkpt lat="-33.831175439807936" lon="115.35507887454843"><ele>157.0</ele><time>2026-04-27T07:09:00Z</time></trkpt><trkpt lat="-33.83111632776604" lon="115.3550156446331"><ele>157.0</ele><time>2026-04-27T07:09:01Z</time></trkpt><trkpt lat="-33.831062534003685" lon="115.35497577363833"><ele>157.0</ele><time>2026-04-27T07:09:02Z</time></trkpt><trkpt lat="-33.83101041965255" lon="115.35492282689091"><ele>157.0</ele><time>2026-04-27T07:09:03Z</time></trkpt><trkpt lat="-33.83095178191185" lon="115.35486634500653"><ele>157.0</ele><time>2026-04-27T07:09:04Z</time></trkpt><trkpt lat="-33.83089552402251" lon="115.35481279996834"><ele>157.0</ele><time>2026-04-27T07:09:05Z</time></trkpt><trkpt lat="-33.830794262176084" lon="115.35475192788986"><ele>157.0</ele><time>2026-04-27T07:09:07Z</time></trkpt><trkpt lat="-33.83069342920411" lon="115.35468895794267"><ele>156.7142857142857</ele><time>2026-04-27T07:09:09Z</time></trkpt><trkpt lat="-33.83063632788428" lon="115.3546524582486"><ele>156.42857142857142</ele><time>2026-04-27T07:09:10Z</time></trkpt><trkpt lat="-33.83058171265131" lon="115.3546043077817"><ele>156.14285714285714</ele><time>2026-04-27T07:09:11Z</time></trkpt><trkpt lat="-33.83052951529262" lon="115.35455636147836"><ele>155.85714285714283</ele><time>2026-04-27T07:09:12Z</time></trkpt><trkpt lat="-33.830477965907924" lon="115.35450547486094"><ele>155.57142857142856</ele><time>2026-04-27T07:09:14Z</time></trkpt><trkpt lat="-33.83043865925097" lon="115.35444520245487"><ele>155.28571428571428</ele><time>2026-04-27T07:09:17Z</time></trkpt><trkpt lat="-33.830487506013895" lon="115.35439725480299"><ele>155.0</ele><time>2026-04-27T07:10:16Z</time></trkpt><trkpt lat="-33.830435211205824" lon="115.35444755422483"><ele>155.0</ele><time>2026-04-27T07:11:16Z</time></trkpt><trkpt lat="-33.830534918930645" lon="115.35440821348077"><ele>155.0</ele><time>2026-04-27T07:12:28Z</time></trkpt><trkpt lat="-33.83059790012494" lon="115.35441320713899"><ele>155.0</ele><time>2026-04-27T07:12:30Z</time></trkpt><trkpt lat="-33.83067617214518" lon="115.3544216508077"><ele>155.0</ele><time>2026-04-27T07:12:42Z</time></trkpt><trkpt lat="-33.830742467257885" lon="115.35443108837445"><ele>155.0</ele><time>2026-04-27T07:12:50Z</time></trkpt><trkpt lat="-33.83080457628734" lon="115.35440487571401"><ele>155.0</ele><time>2026-04-27T07:12:54Z</time></trkpt><trkpt lat="-33.8308784057988" lon="115.35439288547735"><ele>155.0</ele><time>2026-04-27T07:12:57Z</time></trkpt><trkpt lat="-33.830940347102654" lon="115.35435278018417"><ele>155.0</ele><time>2026-04-27T07:13:05Z</time></trkpt><trkpt lat="-33.83101802373549" lon="115.35431431041997"><ele>155.0</ele><time>2026-04-27T07:13:37Z</time></trkpt><trkpt lat="-33.83107430743549" lon="115.35425116333114"><ele>155.0</ele><time>2026-04-27T07:13:41Z</time></trkpt><trkpt lat="-33.83114386771481" lon="115.35415697734759"><ele>155.0</ele><time>2026-04-27T07:13:56Z</time></trkpt><trkpt lat="-33.83119825222926" lon="115.3541164587671"><ele>155.0</ele><time>2026-04-27T07:13:59Z</time></trkpt><trkpt lat="-33.8312089584199" lon="115.3541933241293"><ele>155.0</ele><time>2026-04-27T07:14:26Z</time></trkpt><trkpt lat="-33.8312613261983" lon="115.35424182987524"><ele>155.0</ele><time>2026-04-27T07:16:07Z</time></trkpt><trkpt lat="-33.83133051639043" lon="115.35426524586317"><ele>155.0</ele><time>2026-04-27T07:16:32Z</time></trkpt><trkpt lat="-33.831400295406" lon="115.3542278685744"><ele>155.0</ele><time>2026-04-27T07:16:57Z</time></trkpt><trkpt lat="-33.83147391124067" lon="115.35421136596227"><ele>155.0</ele><time>2026-04-27T07:17:08Z</time></trkpt><trkpt lat="-33.83152839924146" lon="115.35415669878338"><ele>155.0</ele><time>2026-04-27T07:17:11Z</time></trkpt><trkpt lat="-33.83158835158689" lon="115.35412856142007"><ele>155.0</ele><time>2026-04-27T07:17:14Z</time></trkpt><trkpt lat="-33.83165190295494" lon="115.35411177562065"><ele>155.0</ele><time>2026-04-27T07:17:17Z</time></trkpt><trkpt lat="-33.83172116204354" lon="115.35412492850462"><ele>155.0</ele><time>2026-04-27T07:17:21Z</time></trkpt><trkpt lat="-33.83179721417106" lon="115.3541447690068"><ele>155.0</ele><time>2026-04-27T07:17:33Z</time></trkpt><trkpt lat="-33.83187862156154" lon="115.35419214609378"><ele>155.0</ele><time>2026-04-27T07:17:44Z</time></trkpt><trkpt lat="-33.831942712088015" lon="115.35419083582507"><ele>155.0</ele><time>2026-04-27T07:17:46Z</time></trkpt><trkpt lat="-33.83200061845271" lon="115.35411790873444"><ele>155.0</ele><time>2026-04-27T07:17:49Z</time></trkpt><trkpt lat="-33.83205969198092" lon="115.35403953605254"><ele>154.83333333333331</ele><time>2026-04-27T07:17:52Z</time></trkpt><trkpt lat="-33.83205950952707" lon="115.35395661019857"><ele>154.66666666666666</ele><time>2026-04-27T07:18:04Z</time></trkpt><trkpt lat="-33.83212612833659" lon="115.35397511523266"><ele>154.5</ele><time>2026-04-27T07:18:11Z</time></trkpt><trkpt lat="-33.83206316257231" lon="115.35398507469078"><ele>154.33333333333334</ele><time>2026-04-27T07:18:56Z</time></trkpt><trkpt lat="-33.8321564167221" lon="115.35399211691723"><ele>154.16666666666669</ele><time>2026-04-27T07:19:33Z</time></trkpt><trkpt lat="-33.83222478765524" lon="115.35405905915823"><ele>154.0</ele><time>2026-04-27T07:19:37Z</time></trkpt><trkpt lat="-33.8322896882491" lon="115.3541203368797"><ele>154.0</ele><time>2026-04-27T07:19:39Z</time></trkpt><trkpt lat="-33.832376291489965" lon="115.35416790911304"><ele>154.0</ele><time>2026-04-27T07:19:41Z</time></trkpt><trkpt lat="-33.83245037058206" lon="115.35419098383566"><ele>154.0</ele><time>2026-04-27T07:19:43Z</time></trkpt><trkpt lat="-33.83252018255867" lon="115.35421809830767"><ele>154.0</ele><time>2026-04-27T07:19:46Z</time></trkpt><trkpt lat="-33.83258111147228" lon="115.35416710676019"><ele>154.0</ele><time>2026-04-27T07:19:48Z</time></trkpt><trkpt lat="-33.83264871221628" lon="115.35412892058793"><ele>154.0</ele><time>2026-04-27T07:19:50Z</time></trkpt><trkpt lat="-33.83271232381702" lon="115.35408047258396"><ele>154.0</ele><time>2026-04-27T07:19:52Z</time></trkpt><trkpt lat="-33.83277608004016" lon="115.35404572909418"><ele>154.0</ele><time>2026-04-27T07:19:54Z</time></trkpt><trkpt lat="-33.83283795395655" lon="115.35400003967743"><ele>154.0</ele><time>2026-04-27T07:19:56Z</time></trkpt><trkpt lat="-33.83291153149391" lon="115.3539437975274"><ele>154.0</ele><time>2026-04-27T07:19:58Z</time></trkpt><trkpt lat="-33.83300611454811" lon="115.35390211019369"><ele>154.0</ele><time>2026-04-27T07:20:00Z</time></trkpt><trkpt lat="-33.833112055832785" lon="115.3538582818639"><ele>154.0</ele><time>2026-04-27T07:20:02Z</time></trkpt><trkpt lat="-33.83320865718106" lon="115.3537888419791"><ele>153.16666666666669</ele><time>2026-04-27T07:20:04Z</time></trkpt><trkpt lat="-33.83326743516485" lon="115.35371136543692"><ele>152.33333333333334</ele><time>2026-04-27T07:20:06Z</time></trkpt><trkpt lat="-33.83331053309193" lon="115.35359945764793"><ele>151.5</ele><time>2026-04-27T07:20:08Z</time></trkpt><trkpt lat="-33.83335651772733" lon="115.35353910762588"><ele>150.66666666666666</ele><time>2026-04-27T07:20:09Z</time></trkpt><trkpt lat="-33.83340427289708" lon="115.35348534893369"><ele>149.83333333333331</ele><time>2026-04-27T07:20:10Z</time></trkpt><trkpt lat="-33.83347247108829" lon="115.35345912916235"><ele>149.0</ele><time>2026-04-27T07:20:11Z</time></trkpt><trkpt lat="-33.833530135541096" lon="115.35341959301168"><ele>149.0</ele><time>2026-04-27T07:20:12Z</time></trkpt><trkpt lat="-33.83357500833368" lon="115.35335470896419"><ele>149.0</ele><time>2026-04-27T07:20:13Z</time></trkpt><trkpt lat="-33.8336244398689" lon="115.35328922357178"><ele>149.0</ele><time>2026-04-27T07:20:15Z</time></trkpt><trkpt lat="-33.83369482715699" lon="115.35335325158374"><ele>149.0</ele><time>2026-04-27T07:20:17Z</time></trkpt><trkpt lat="-33.83377412711033" lon="115.35345116719566"><ele>149.0</ele><time>2026-04-27T07:20:19Z</time></trkpt><trkpt lat="-33.83383016519617" lon="115.35349236875399"><ele>149.0</ele><time>2026-04-27T07:20:20Z</time></trkpt><trkpt lat="-33.8338951911068" lon="115.35352234470788"><ele>149.0</ele><time>2026-04-27T07:20:21Z</time></trkpt><trkpt lat="-33.83396453897331" lon="115.35354962259514"><ele>149.0</ele><time>2026-04-27T07:20:22Z</time></trkpt><trkpt lat="-33.8340441873271" lon="115.35359168833409"><ele>149.0</ele><time>2026-04-27T07:20:23Z</time></trkpt><trkpt lat="-33.834124094111225" lon="115.35364337250209"><ele>149.0</ele><time>2026-04-27T07:20:25Z</time></trkpt><trkpt lat="-33.834135158521" lon="115.35372020123657"><ele>149.0</ele><time>2026-04-27T07:20:29Z</time></trkpt><trkpt lat="-33.83420347210687" lon="115.35380803584322"><ele>149.0</ele><time>2026-04-27T07:20:32Z</time></trkpt><trkpt lat="-33.834260197201466" lon="115.35387299523148"><ele>150.5</ele><time>2026-04-27T07:20:34Z</time></trkpt><trkpt lat="-33.83431471982584" lon="115.35393206050855"><ele>152.0</ele><time>2026-04-27T07:20:36Z</time></trkpt><trkpt lat="-33.83434325010525" lon="115.35402758219332"><ele>153.5</ele><time>2026-04-27T07:20:38Z</time></trkpt><trkpt lat="-33.83438667427538" lon="115.35410510607868"><ele>155.0</ele><time>2026-04-27T07:20:47Z</time></trkpt><trkpt lat="-33.834409769270344" lon="115.3541893304137"><ele>156.5</ele><time>2026-04-27T07:20:49Z</time></trkpt><trkpt lat="-33.83444239119693" lon="115.35429870573982"><ele>158.0</ele><time>2026-04-27T07:20:51Z</time></trkpt><trkpt lat="-33.83447696126291" lon="115.35437197621691"><ele>158.0</ele><time>2026-04-27T07:20:53Z</time></trkpt><trkpt lat="-33.834564636616086" lon="115.35442762683972"><ele>158.0</ele><time>2026-04-27T07:20:56Z</time></trkpt><trkpt lat="-33.83462815491295" lon="115.3544817900772"><ele>158.0</ele><time>2026-04-27T07:20:58Z</time></trkpt><trkpt lat="-33.834669534027505" lon="115.3545424973132"><ele>158.0</ele><time>2026-04-27T07:21:01Z</time></trkpt><trkpt lat="-33.834723114173045" lon="115.35458460167162"><ele>158.0</ele><time>2026-04-27T07:21:05Z</time></trkpt><trkpt lat="-33.83476180820836" lon="115.35449753134422"><ele>158.0</ele><time>2026-04-27T07:21:08Z</time></trkpt><trkpt lat="-33.83477159636343" lon="115.35441677037791"><ele>158.00000000000003</ele><time>2026-04-27T07:21:11Z</time></trkpt><trkpt lat="-33.83481510748239" lon="115.35433717684161"><ele>158.0</ele><time>2026-04-27T07:21:15Z</time></trkpt><trkpt lat="-33.83487794927978" lon="115.35434329697694"><ele>158.0</ele><time>2026-04-27T07:21:18Z</time></trkpt><trkpt lat="-33.83494122918569" lon="115.3543132635855"><ele>158.0</ele><time>2026-04-27T07:21:21Z</time></trkpt><trkpt lat="-33.835012917378805" lon="115.35426711989602"><ele>158.0</ele><time>2026-04-27T07:21:24Z</time></trkpt><trkpt lat="-33.83504177196752" lon="115.35419756522755"><ele>158.00000000000003</ele><time>2026-04-27T07:21:26Z</time></trkpt><trkpt lat="-33.83500957722076" lon="115.35409599638085"><ele>158.0</ele><time>2026-04-27T07:21:28Z</time></trkpt><trkpt lat="-33.83498814154871" lon="115.35400668160614"><ele>158.00000000000003</ele><time>2026-04-27T07:21:30Z</time></trkpt><trkpt lat="-33.83497707613984" lon="115.3539305457999"><ele>158.0</ele><time>2026-04-27T07:21:32Z</time></trkpt><trkpt lat="-33.834934454634926" lon="115.3538729410219"><ele>158.0</ele><time>2026-04-27T07:21:44Z</time></trkpt><trkpt lat="-33.834930502936" lon="115.35396315333665"><ele>158.0</ele><time>2026-04-27T07:21:50Z</time></trkpt><trkpt lat="-33.834993414306325" lon="115.35398432243474"><ele>158.0</ele><time>2026-04-27T07:21:53Z</time></trkpt><trkpt lat="-33.835058254256445" lon="115.35394252863682"><ele>158.00000000000003</ele><time>2026-04-27T07:21:56Z</time></trkpt><trkpt lat="-33.83512592614436" lon="115.35391223565564"><ele>158.0</ele><time>2026-04-27T07:22:00Z</time></trkpt><trkpt lat="-33.835187399997466" lon="115.35382879913283"><ele>158.0</ele><time>2026-04-27T07:22:04Z</time></trkpt><trkpt lat="-33.83525082221146" lon="115.35379597193598"><ele>158.0</ele><time>2026-04-27T07:22:07Z</time></trkpt><trkpt lat="-33.835317395130865" lon="115.35375783050101"><ele>158.0</ele><time>2026-04-27T07:22:10Z</time></trkpt><trkpt lat="-33.835419093455506" lon="115.353697316361"><ele>158.0</ele><time>2026-04-27T07:22:13Z</time></trkpt><trkpt lat="-33.8354918308837" lon="115.3536455665931"><ele>158.0</ele><time>2026-04-27T07:22:15Z</time></trkpt><trkpt lat="-33.83555596252492" lon="115.35358720286958"><ele>158.0</ele><time>2026-04-27T07:22:18Z</time></trkpt><trkpt lat="-33.835594503710915" lon="115.35351825679702"><ele>158.0</ele><time>2026-04-27T07:22:21Z</time></trkpt><trkpt lat="-33.835662593232826" lon="115.35349060543483"><ele>158.0</ele><time>2026-04-27T07:22:23Z</time></trkpt><trkpt lat="-33.83573600695119" lon="115.35346212573462"><ele>158.0</ele><time>2026-04-27T07:22:25Z</time></trkpt><trkpt lat="-33.83580146667511" lon="115.35340403459011"><ele>158.0</ele><time>2026-04-27T07:22:27Z</time></trkpt><trkpt lat="-33.83586332039572" lon="115.35331211658368"><ele>158.0</ele><time>2026-04-27T07:22:30Z</time></trkpt><trkpt lat="-33.835936556318764" lon="115.35324825759459"><ele>158.0</ele><time>2026-04-27T07:22:32Z</time></trkpt><trkpt lat="-33.83597442895802" lon="115.35317463220127"><ele>158.16666666666666</ele><time>2026-04-27T07:22:34Z</time></trkpt><trkpt lat="-33.83597174555612" lon="115.3530588857144"><ele>158.33333333333331</ele><time>2026-04-27T07:22:36Z</time></trkpt><trkpt lat="-33.8359581128192" lon="115.35295523921265"><ele>158.5</ele><time>2026-04-27T07:22:38Z</time></trkpt><trkpt lat="-33.83595809631575" lon="115.35287578344943"><ele>158.66666666666666</ele><time>2026-04-27T07:22:41Z</time></trkpt><trkpt lat="-33.83593216336015" lon="115.35278826035346"><ele>158.83333333333334</ele><time>2026-04-27T07:22:45Z</time></trkpt><trkpt lat="-33.83590442028888" lon="115.35271453398151"><ele>159.0</ele><time>2026-04-27T07:22:48Z</time></trkpt><trkpt lat="-33.83591776630495" lon="115.35262404085854"><ele>158.66666666666666</ele><time>2026-04-27T07:22:51Z</time></trkpt><trkpt lat="-33.83594826360755" lon="115.35254104999868"><ele>158.33333333333334</ele><time>2026-04-27T07:22:54Z</time></trkpt><trkpt lat="-33.8359727442205" lon="115.3524683844832"><ele>158.0</ele><time>2026-04-27T07:22:56Z</time></trkpt><trkpt lat="-33.835965135059325" lon="115.35237086049216"><ele>157.66666666666669</ele><time>2026-04-27T07:22:59Z</time></trkpt><trkpt lat="-33.83589168695803" lon="115.35230581172397"><ele>157.33333333333334</ele><time>2026-04-27T07:23:02Z</time></trkpt><trkpt lat="-33.83583076793879" lon="115.35221689478472"><ele>157.0</ele><time>2026-04-27T07:23:05Z</time></trkpt><trkpt lat="-33.835750119757826" lon="115.35215650586115"><ele>156.79999999999998</ele><time>2026-04-27T07:23:07Z</time></trkpt><trkpt lat="-33.83569246572488" lon="115.35211771280342"><ele>156.6</ele><time>2026-04-27T07:23:09Z</time></trkpt><trkpt lat="-33.83562032202491" lon="115.35208100693046"><ele>156.39999999999998</ele><time>2026-04-27T07:23:11Z</time></trkpt><trkpt lat="-33.835554721902604" lon="115.35201006011728"><ele>156.2</ele><time>2026-04-27T07:23:13Z</time></trkpt><trkpt lat="-33.83545266112913" lon="115.35189154141091"><ele>156.0</ele><time>2026-04-27T07:23:16Z</time></trkpt><trkpt lat="-33.835249566438115" lon="115.35180914761736"><ele>156.0</ele><time>2026-04-27T07:23:17Z</time></trkpt><trkpt lat="-33.835164128445065" lon="115.35181703106818"><ele>156.0</ele><time>2026-04-27T07:23:24Z</time></trkpt><trkpt lat="-33.83509825765336" lon="115.35181273276717"><ele>156.0</ele><time>2026-04-27T07:23:26Z</time></trkpt><trkpt lat="-33.83502403314196" lon="115.35181257893646"><ele>156.0</ele><time>2026-04-27T07:23:28Z</time></trkpt><trkpt lat="-33.83494767898342" lon="115.35176393582584"><ele>156.0</ele><time>2026-04-27T07:23:48Z</time></trkpt><trkpt lat="-33.83500917395724" lon="115.35181151447271"><ele>156.0</ele><time>2026-04-27T07:24:12Z</time></trkpt><trkpt lat="-33.83495171358729" lon="115.35177939072291"><ele>156.0</ele><time>2026-04-27T07:24:25Z</time></trkpt><trkpt lat="-33.83503215840166" lon="115.35177867684601"><ele>155.16666666666666</ele><time>2026-04-27T07:25:11Z</time></trkpt><trkpt lat="-33.834980904317234" lon="115.35172581799992"><ele>154.33333333333334</ele><time>2026-04-27T07:26:02Z</time></trkpt><trkpt lat="-33.8350433385764" lon="115.3517818722524"><ele>153.5</ele><time>2026-04-27T07:27:10Z</time></trkpt><trkpt lat="-33.834940538613836" lon="115.35177048843794"><ele>152.66666666666669</ele><time>2026-04-27T07:29:54Z</time></trkpt><trkpt lat="-33.83488059263572" lon="115.3517391285622"><ele>151.83333333333334</ele><time>2026-04-27T07:29:57Z</time></trkpt><trkpt lat="-33.834858910771615" lon="115.35166553130257"><ele>151.0</ele><time>2026-04-27T07:30:02Z</time></trkpt><trkpt lat="-33.834873759805" lon="115.35157942633113"><ele>151.00000000000003</ele><time>2026-04-27T07:30:17Z</time></trkpt><trkpt lat="-33.834874244863826" lon="115.35149973289417"><ele>151.0</ele><time>2026-04-27T07:30:20Z</time></trkpt><trkpt lat="-33.83485052148707" lon="115.35141446363914"><ele>151.0</ele><time>2026-04-27T07:30:23Z</time></trkpt><trkpt lat="-33.83480420910427" lon="115.35132552446697"><ele>151.0</ele><time>2026-04-27T07:30:26Z</time></trkpt><trkpt lat="-33.83477270674717" lon="115.35125666800391"><ele>151.0</ele><time>2026-04-27T07:30:29Z</time></trkpt><trkpt lat="-33.83470791584124" lon="115.35118703151356"><ele>151.00000000000003</ele><time>2026-04-27T07:30:33Z</time></trkpt><trkpt lat="-33.83465649611523" lon="115.3511402196642"><ele>151.0</ele><time>2026-04-27T07:30:36Z</time></trkpt><trkpt lat="-33.83459271844475" lon="115.35110380540979"><ele>150.85714285714286</ele><time>2026-04-27T07:30:45Z</time></trkpt><trkpt lat="-33.83452912416045" lon="115.35105209431855"><ele>150.71428571428572</ele><time>2026-04-27T07:30:48Z</time></trkpt><trkpt lat="-33.83450795839633" lon="115.35094430992021"><ele>150.57142857142856</ele><time>2026-04-27T07:30:51Z</time></trkpt><trkpt lat="-33.83448168534975" lon="115.35086381183666"><ele>150.42857142857144</ele><time>2026-04-27T07:30:53Z</time></trkpt><trkpt lat="-33.83447371209195" lon="115.35078140856453"><ele>150.28571428571428</ele><time>2026-04-27T07:30:56Z</time></trkpt><trkpt lat="-33.834484589621056" lon="115.3506937422637"><ele>150.14285714285714</ele><time>2026-04-27T07:30:59Z</time></trkpt><trkpt lat="-33.83448907621118" lon="115.35061656161585"><ele>150.0</ele><time>2026-04-27T07:31:05Z</time></trkpt><trkpt lat="-33.83445732395052" lon="115.35051581943549"><ele>149.33333333333334</ele><time>2026-04-27T07:32:30Z</time></trkpt><trkpt lat="-33.834463500504135" lon="115.35043938885853"><ele>148.66666666666666</ele><time>2026-04-27T07:32:34Z</time></trkpt><trkpt lat="-33.834485023186645" lon="115.35036233411901"><ele>148.0</ele><time>2026-04-27T07:32:38Z</time></trkpt><trkpt lat="-33.83451998673641" lon="115.35028064175194"><ele>147.33333333333331</ele><time>2026-04-27T07:32:41Z</time></trkpt><trkpt lat="-33.83459379775652" lon="115.350226851593"><ele>146.66666666666666</ele><time>2026-04-27T07:32:44Z</time></trkpt><trkpt lat="-33.834673683785674" lon="115.35018868521293"><ele>146.0</ele><time>2026-04-27T07:32:47Z</time></trkpt><trkpt lat="-33.834746211925925" lon="115.35016203910615"><ele>146.0</ele><time>2026-04-27T07:32:57Z</time></trkpt><trkpt lat="-33.83480904410358" lon="115.35012585984676"><ele>146.0</ele><time>2026-04-27T07:33:15Z</time></trkpt><trkpt lat="-33.83485569986698" lon="115.3500735589416"><ele>146.0</ele><time>2026-04-27T07:33:18Z</time></trkpt><trkpt lat="-33.83492333470733" lon="115.35000764238818"><ele>146.0</ele><time>2026-04-27T07:33:22Z</time></trkpt><trkpt lat="-33.834987973233275" lon="115.35000422293112"><ele>146.0</ele><time>2026-04-27T07:33:26Z</time></trkpt><trkpt lat="-33.83504863125044" lon="115.35006482398974"><ele>146.0</ele><time>2026-04-27T07:33:29Z</time></trkpt><trkpt lat="-33.83508437876376" lon="115.35013313435792"><ele>146.0</ele><time>2026-04-27T07:33:32Z</time></trkpt><trkpt lat="-33.83516191727164" lon="115.35013749606621"><ele>147.33333333333331</ele><time>2026-04-27T07:33:37Z</time></trkpt><trkpt lat="-33.83520167753144" lon="115.35006102040981"><ele>148.66666666666666</ele><time>2026-04-27T07:33:41Z</time></trkpt><trkpt lat="-33.83527545871854" lon="115.35002022823404"><ele>150.0</ele><time>2026-04-27T07:35:28Z</time></trkpt><trkpt lat="-33.83535083788682" lon="115.35000303071924"><ele>151.33333333333334</ele><time>2026-04-27T07:36:04Z</time></trkpt><trkpt lat="-33.835415462996544" lon="115.34996149433806"><ele>152.66666666666669</ele><time>2026-04-27T07:36:09Z</time></trkpt><trkpt lat="-33.835485600841174" lon="115.34988293760752"><ele>154.0</ele><time>2026-04-27T07:36:12Z</time></trkpt><trkpt lat="-33.83553020162063" lon="115.3497989569963"><ele>154.0</ele><time>2026-04-27T07:36:15Z</time></trkpt><trkpt lat="-33.83561121015199" lon="115.3497464198374"><ele>154.0</ele><time>2026-04-27T07:37:14Z</time></trkpt><trkpt lat="-33.835664144524294" lon="115.34968333032887"><ele>154.0</ele><time>2026-04-27T07:37:19Z</time></trkpt><trkpt lat="-33.8356787554298" lon="115.34960256826673"><ele>154.0</ele><time>2026-04-27T07:37:25Z</time></trkpt><trkpt lat="-33.83567353826539" lon="115.3495168411336"><ele>154.0</ele><time>2026-04-27T07:37:28Z</time></trkpt><trkpt lat="-33.835677937557136" lon="115.34942197251156"><ele>154.0</ele><time>2026-04-27T07:37:32Z</time></trkpt><trkpt lat="-33.83563257070331" lon="115.34935903914857"><ele>152.66666666666669</ele><time>2026-04-27T07:37:35Z</time></trkpt><trkpt lat="-33.83554345966815" lon="115.34934329876229"><ele>151.33333333333334</ele><time>2026-04-27T07:37:38Z</time></trkpt><trkpt lat="-33.83548084022528" lon="115.34929081695131"><ele>150.0</ele><time>2026-04-27T07:37:41Z</time></trkpt><trkpt lat="-33.83542545487976" lon="115.34924787317156"><ele>148.66666666666666</ele><time>2026-04-27T07:37:43Z</time></trkpt><trkpt lat="-33.835363148727865" lon="115.3491808161635"><ele>147.33333333333331</ele><time>2026-04-27T07:37:45Z</time></trkpt><trkpt lat="-33.83528136369691" lon="115.34908228958152"><ele>146.0</ele><time>2026-04-27T07:37:47Z</time></trkpt><trkpt lat="-33.83521369156881" lon="115.34900591664547"><ele>144.5</ele><time>2026-04-27T07:37:50Z</time></trkpt><trkpt lat="-33.835137069519774" lon="115.34894652054498"><ele>143.0</ele><time>2026-04-27T07:37:52Z</time></trkpt><trkpt lat="-33.83514699176896" lon="115.3488490173639"><ele>141.5</ele><time>2026-04-27T07:37:55Z</time></trkpt><trkpt lat="-33.83520106088543" lon="115.3487557605371"><ele>140.0</ele><time>2026-04-27T07:38:37Z</time></trkpt><trkpt lat="-33.835268603313835" lon="115.34872685766807"><ele>138.5</ele><time>2026-04-27T07:38:49Z</time></trkpt><trkpt lat="-33.835200225571434" lon="115.34874857848983"><ele>137.0</ele><time>2026-04-27T07:39:14Z</time></trkpt><trkpt lat="-33.83528636464166" lon="115.34869568868083"><ele>136.85714285714286</ele><time>2026-04-27T07:39:59Z</time></trkpt><trkpt lat="-33.83532833037426" lon="115.34863261684582"><ele>136.71428571428572</ele><time>2026-04-27T07:40:03Z</time></trkpt><trkpt lat="-33.83538507062573" lon="115.3485809187709"><ele>136.57142857142856</ele><time>2026-04-27T07:40:08Z</time></trkpt><trkpt lat="-33.83546084737525" lon="115.3485328149799"><ele>136.42857142857144</ele><time>2026-04-27T07:40:13Z</time></trkpt><trkpt lat="-33.83551875272734" lon="115.34849909865915"><ele>136.28571428571428</ele><time>2026-04-27T07:40:18Z</time></trkpt><trkpt lat="-33.83558482120059" lon="115.34846290142352"><ele>136.14285714285714</ele><time>2026-04-27T07:41:10Z</time></trkpt><trkpt lat="-33.83565307508061" lon="115.34847111209938"><ele>136.0</ele><time>2026-04-27T07:41:14Z</time></trkpt><trkpt lat="-33.83571940767851" lon="115.34844240268642"><ele>135.99999999999997</ele><time>2026-04-27T07:41:19Z</time></trkpt><trkpt lat="-33.835782725448276" lon="115.34842008175701"><ele>136.0</ele><time>2026-04-27T07:41:26Z</time></trkpt><trkpt lat="-33.8358486121162" lon="115.34844137939638"><ele>136.0</ele><time>2026-04-27T07:41:36Z</time></trkpt><trkpt lat="-33.835906745397565" lon="115.34847198463727"><ele>136.0</ele><time>2026-04-27T07:42:02Z</time></trkpt><trkpt lat="-33.83583073578174" lon="115.34845124143548"><ele>136.0</ele><time>2026-04-27T07:42:37Z</time></trkpt><trkpt lat="-33.83588062032475" lon="115.34851317892384"><ele>135.99999999999997</ele><time>2026-04-27T07:43:26Z</time></trkpt><trkpt lat="-33.835828418871415" lon="115.34843660870492"><ele>136.0</ele><time>2026-04-27T07:44:53Z</time></trkpt><trkpt lat="-33.83568474972536" lon="115.34841426076397"><ele>135.99999999999997</ele><time>2026-04-27T07:45:23Z</time></trkpt><trkpt lat="-33.83574618463977" lon="115.34844118280303"><ele>136.0</ele><time>2026-04-27T07:45:42Z</time></trkpt><trkpt lat="-33.835812784601075" lon="115.34844802695591"><ele>136.0</ele><time>2026-04-27T07:45:47Z</time></trkpt><trkpt lat="-33.83588047868003" lon="115.34846518912498"><ele>136.0</ele><time>2026-04-27T07:45:57Z</time></trkpt><trkpt lat="-33.8358180823141" lon="115.34844945491044"><ele>136.0</ele><time>2026-04-27T07:46:15Z</time></trkpt><trkpt lat="-33.83574786399675" lon="115.34841489268703"><ele>135.99999999999997</ele><time>2026-04-27T07:47:22Z</time></trkpt><trkpt lat="-33.835820263073494" lon="115.34843452439613"><ele>136.0</ele><time>2026-04-27T07:48:18Z</time></trkpt><trkpt lat="-33.83588983123955" lon="115.34846407937202"><ele>136.0</ele><time>2026-04-27T07:48:21Z</time></trkpt><trkpt lat="-33.83590524654841" lon="115.34855741008413"><ele>136.0</ele><time>2026-04-27T07:48:24Z</time></trkpt><trkpt lat="-33.83591764092714" lon="115.34864895168906"><ele>136.0</ele><time>2026-04-27T07:48:26Z</time></trkpt><trkpt lat="-33.835916531087605" lon="115.34874702721515"><ele>136.0</ele><time>2026-04-27T07:48:29Z</time></trkpt><trkpt lat="-33.83592002263013" lon="115.34883449999218"><ele>136.0</ele><time>2026-04-27T07:48:32Z</time></trkpt><trkpt lat="-33.835913817909336" lon="115.34892121926093"><ele>136.0</ele><time>2026-04-27T07:48:49Z</time></trkpt><trkpt lat="-33.83585289078391" lon="115.34900074061729"><ele>137.42857142857142</ele><time>2026-04-27T07:48:52Z</time></trkpt><trkpt lat="-33.835811115693325" lon="115.34905906633858"><ele>138.85714285714286</ele><time>2026-04-27T07:48:54Z</time></trkpt><trkpt lat="-33.83578569271385" lon="115.34913069989263"><ele>140.28571428571428</ele><time>2026-04-27T07:49:13Z</time></trkpt><trkpt lat="-33.8357405816319" lon="115.34918771393615"><ele>141.71428571428572</ele><time>2026-04-27T07:50:07Z</time></trkpt><trkpt lat="-33.835775723587375" lon="115.34927427140488"><ele>143.14285714285714</ele><time>2026-04-27T07:50:11Z</time></trkpt><trkpt lat="-33.83581782388614" lon="115.34933369834438"><ele>144.57142857142856</ele><time>2026-04-27T07:50:14Z</time></trkpt><trkpt lat="-33.83586584634781" lon="115.34940054549983"><ele>146.0</ele><time>2026-04-27T07:50:19Z</time></trkpt><trkpt lat="-33.83592605456586" lon="115.3494658605636"><ele>145.66666666666666</ele><time>2026-04-27T07:50:22Z</time></trkpt><trkpt lat="-33.83597423791943" lon="115.34954514101575"><ele>145.33333333333331</ele><time>2026-04-27T07:50:25Z</time></trkpt><trkpt lat="-33.83604263957551" lon="115.34960300986228"><ele>145.0</ele><time>2026-04-27T07:50:29Z</time></trkpt><trkpt lat="-33.836083866140335" lon="115.34952476704791"><ele>144.66666666666666</ele><time>2026-04-27T07:50:35Z</time></trkpt><trkpt lat="-33.83611392092207" lon="115.34943121255208"><ele>144.33333333333334</ele><time>2026-04-27T07:50:39Z</time></trkpt><trkpt lat="-33.836149737114916" lon="115.34936344415375"><ele>144.0</ele><time>2026-04-27T07:50:44Z</time></trkpt><trkpt lat="-33.83619972271526" lon="115.34928831753356"><ele>144.0</ele><time>2026-04-27T07:51:56Z</time></trkpt><trkpt lat="-33.83617274920564" lon="115.34920004555778"><ele>144.0</ele><time>2026-04-27T07:52:01Z</time></trkpt><trkpt lat="-33.836142836968136" lon="115.34913221399103"><ele>144.0</ele><time>2026-04-27T07:52:12Z</time></trkpt><trkpt lat="-33.836124591643646" lon="115.34904649125134"><ele>144.0</ele><time>2026-04-27T07:52:15Z</time></trkpt><trkpt lat="-33.83611470478564" lon="115.3489478264617"><ele>144.0</ele><time>2026-04-27T07:52:18Z</time></trkpt><trkpt lat="-33.83611365957339" lon="115.34884261893531"><ele>144.0</ele><time>2026-04-27T07:52:21Z</time></trkpt><trkpt lat="-33.83611609038631" lon="115.34876191455908"><ele>142.85714285714286</ele><time>2026-04-27T07:52:26Z</time></trkpt><trkpt lat="-33.83612070472299" lon="115.3486830917856"><ele>141.71428571428572</ele><time>2026-04-27T07:52:38Z</time></trkpt><trkpt lat="-33.83611622443844" lon="115.348597143548"><ele>140.57142857142856</ele><time>2026-04-27T07:53:20Z</time></trkpt><trkpt lat="-33.836099556878445" lon="115.34852248487557"><ele>139.42857142857144</ele><time>2026-04-27T07:53:22Z</time></trkpt><trkpt lat="-33.836093878578204" lon="115.34843184012179"><ele>138.28571428571428</ele><time>2026-04-27T07:53:25Z</time></trkpt><trkpt lat="-33.83616286754954" lon="115.3484047529253"><ele>137.14285714285714</ele><time>2026-04-27T07:53:40Z</time></trkpt><trkpt lat="-33.83623240418101" lon="115.34837625676047"><ele>136.0</ele><time>2026-04-27T07:53:46Z</time></trkpt><trkpt lat="-33.83625875186224" lon="115.34845795221378"><ele>135.99999999999997</ele><time>2026-04-27T07:53:56Z</time></trkpt><trkpt lat="-33.836250847899905" lon="115.3485363900271"><ele>136.0</ele><time>2026-04-27T07:54:07Z</time></trkpt><trkpt lat="-33.83624758164687" lon="115.3484412932977"><ele>136.0</ele><time>2026-04-27T07:54:35Z</time></trkpt><trkpt lat="-33.83628885405126" lon="115.34837913487283"><ele>136.0</ele><time>2026-04-27T07:54:48Z</time></trkpt><trkpt lat="-33.83625285002189" lon="115.34844451174848"><ele>136.0</ele><time>2026-04-27T07:55:06Z</time></trkpt><trkpt lat="-33.836249864247" lon="115.34852383831836"><ele>135.99999999999997</ele><time>2026-04-27T07:55:48Z</time></trkpt><trkpt lat="-33.836307631222354" lon="115.34847232757977"><ele>136.0</ele><time>2026-04-27T07:56:40Z</time></trkpt><trkpt lat="-33.83629400583273" lon="115.3483929586801"><ele>135.99999999999997</ele><time>2026-04-27T07:56:55Z</time></trkpt><trkpt lat="-33.83623315322157" lon="115.34834386832243"><ele>136.0</ele><time>2026-04-27T07:56:59Z</time></trkpt><trkpt lat="-33.836170631274165" lon="115.34829120743895"><ele>136.0</ele><time>2026-04-27T07:57:03Z</time></trkpt><trkpt lat="-33.83610050302878" lon="115.34829861505708"><ele>136.0</ele><time>2026-04-27T07:57:06Z</time></trkpt><trkpt lat="-33.83610802178385" lon="115.34838774806006"><ele>136.0</ele><time>2026-04-27T07:57:10Z</time></trkpt><trkpt lat="-33.83618850647712" lon="115.34838697576309"><ele>135.99999999999997</ele><time>2026-04-27T07:57:14Z</time></trkpt><trkpt lat="-33.83625446510408" lon="115.34839076627335"><ele>136.0</ele><time>2026-04-27T07:57:17Z</time></trkpt><trkpt lat="-33.836273057682696" lon="115.34847550025714"><ele>136.0</ele><time>2026-04-27T07:57:19Z</time></trkpt><trkpt lat="-33.83624783227904" lon="115.3485987138587"><ele>136.0</ele><time>2026-04-27T07:57:21Z</time></trkpt><trkpt lat="-33.8362428605639" lon="115.34868142590848"><ele>136.0</ele><time>2026-04-27T07:57:23Z</time></trkpt><trkpt lat="-33.836253885427375" lon="115.34877866226462"><ele>136.0</ele><time>2026-04-27T07:57:26Z</time></trkpt><trkpt lat="-33.83622305216643" lon="115.3488552324771"><ele>136.0</ele><time>2026-04-27T07:57:30Z</time></trkpt><trkpt lat="-33.836215522400764" lon="115.34875652948743"><ele>136.0</ele><time>2026-04-27T07:57:44Z</time></trkpt><trkpt lat="-33.83621706440403" lon="115.34866239392186"><ele>135.99999999999997</ele><time>2026-04-27T07:57:48Z</time></trkpt><trkpt lat="-33.83622975620811" lon="115.3485603333086"><ele>136.0</ele><time>2026-04-27T07:57:51Z</time></trkpt><trkpt lat="-33.8362193332158" lon="115.34848252197582"><ele>136.0</ele><time>2026-04-27T07:57:53Z</time></trkpt><trkpt lat="-33.836153856039594" lon="115.34844425332544"><ele>136.0</ele><time>2026-04-27T07:57:57Z</time></trkpt><trkpt lat="-33.836104062092716" lon="115.34849395099604"><ele>136.0</ele><time>2026-04-27T07:58:01Z</time></trkpt><trkpt lat="-33.83610820418866" lon="115.34857043588913"><ele>135.99999999999997</ele><time>2026-04-27T07:58:12Z</time></trkpt><trkpt lat="-33.836130965471845" lon="115.34864892827335"><ele>136.0</ele><time>2026-04-27T07:58:15Z</time></trkpt><trkpt lat="-33.83614339448" lon="115.34873443906851"><ele>136.0</ele><time>2026-04-27T07:58:18Z</time></trkpt><trkpt lat="-33.83614607970631" lon="115.34881667116159"><ele>136.0</ele><time>2026-04-27T07:58:20Z</time></trkpt><trkpt lat="-33.83616209808429" lon="115.3489047450488"><ele>136.0</ele><time>2026-04-27T07:58:23Z</time></trkpt><trkpt lat="-33.836164966155806" lon="115.34899744391872"><ele>136.0</ele><time>2026-04-27T07:58:26Z</time></trkpt><trkpt lat="-33.836167827837926" lon="115.34910542621196"><ele>136.0</ele><time>2026-04-27T07:58:33Z</time></trkpt><trkpt lat="-33.83619965445283" lon="115.34919377045547"><ele>136.0</ele><time>2026-04-27T07:58:36Z</time></trkpt><trkpt lat="-33.836149877988966" lon="115.34913588435154"><ele>136.0</ele><time>2026-04-27T07:58:51Z</time></trkpt><trkpt lat="-33.83613293394331" lon="115.34904705181707"><ele>136.0</ele><time>2026-04-27T07:58:53Z</time></trkpt><trkpt lat="-33.83612301945846" lon="115.34893765235482"><ele>136.0</ele><time>2026-04-27T07:58:55Z</time></trkpt><trkpt lat="-33.836122868019615" lon="115.34885194762276"><ele>136.0</ele><time>2026-04-27T07:58:57Z</time></trkpt><trkpt lat="-33.83611788542333" lon="115.3487585890711"><ele>136.0</ele><time>2026-04-27T07:59:00Z</time></trkpt><trkpt lat="-33.83610269572969" lon="115.34864588956685"><ele>136.0</ele><time>2026-04-27T07:59:03Z</time></trkpt><trkpt lat="-33.83610016972566" lon="115.34854782536239"><ele>136.0</ele><time>2026-04-27T07:59:05Z</time></trkpt><trkpt lat="-33.836105256776385" lon="115.34846751248634"><ele>136.0</ele><time>2026-04-27T07:59:07Z</time></trkpt><trkpt lat="-33.83618969619415" lon="115.34842281038635"><ele>136.0</ele><time>2026-04-27T07:59:11Z</time></trkpt><trkpt lat="-33.83625060027561" lon="115.34846350269272"><ele>136.0</ele><time>2026-04-27T07:59:15Z</time></trkpt><trkpt lat="-33.83623052118792" lon="115.3485670541216"><ele>136.0</ele><time>2026-04-27T07:59:17Z</time></trkpt><trkpt lat="-33.836210395559895" lon="115.34867577175928"><ele>136.0</ele><time>2026-04-27T07:59:19Z</time></trkpt><trkpt lat="-33.83622088896963" lon="115.34876676192094"><ele>135.99999999999997</ele><time>2026-04-27T07:59:22Z</time></trkpt><trkpt lat="-33.836246024471635" lon="115.34884571745722"><ele>136.0</ele><time>2026-04-27T07:59:25Z</time></trkpt><trkpt lat="-33.83623323773256" lon="115.34892256689241"><ele>136.0</ele><time>2026-04-27T07:59:36Z</time></trkpt><trkpt lat="-33.83624954320681" lon="115.34899937923986"><ele>136.0</ele><time>2026-04-27T07:59:45Z</time></trkpt><trkpt lat="-33.836252195023754" lon="115.34892204404687"><ele>136.0</ele><time>2026-04-27T09:00:42Z</time></trkpt><trkpt lat="-33.836253733483176" lon="115.34884004668181"><ele>135.99999999999997</ele><time>2026-04-27T09:00:47Z</time></trkpt><trkpt lat="-33.83625123516689" lon="115.3487635042606"><ele>136.0</ele><time>2026-04-27T09:00:55Z</time></trkpt><trkpt lat="-33.83624567640426" lon="115.34868543311418"><ele>136.0</ele><time>2026-04-27T09:01:02Z</time></trkpt><trkpt lat="-33.83624930310121" lon="115.34859779084559"><ele>136.0</ele><time>2026-04-27T09:01:06Z</time></trkpt><trkpt lat="-33.83626914531693" lon="115.34851875552745"><ele>136.0</ele><time>2026-04-27T09:01:09Z</time></trkpt><trkpt lat="-33.83623383978562" lon="115.34844469206726"><ele>136.0</ele><time>2026-04-27T09:01:14Z</time></trkpt><trkpt lat="-33.836270559488035" lon="115.34852895525961"><ele>136.0</ele><time>2026-04-27T09:01:24Z</time></trkpt><trkpt lat="-33.83624452550578" lon="115.3486508426956"><ele>136.0</ele><time>2026-04-27T09:01:26Z</time></trkpt><trkpt lat="-33.83623992925632" lon="115.34874218347369"><ele>136.0</ele><time>2026-04-27T09:01:28Z</time></trkpt><trkpt lat="-33.836250283343546" lon="115.3488464295709"><ele>136.0</ele><time>2026-04-27T09:01:31Z</time></trkpt><trkpt lat="-33.836240616181335" lon="115.34894155541407"><ele>136.0</ele><time>2026-04-27T09:01:35Z</time></trkpt><trkpt lat="-33.836235746426574" lon="115.3490320754844"><ele>136.0</ele><time>2026-04-27T09:01:38Z</time></trkpt><trkpt lat="-33.836247312466725" lon="115.34911928752871"><ele>136.0</ele><time>2026-04-27T09:01:40Z</time></trkpt><trkpt lat="-33.836262152127105" lon="115.34920489023082"><ele>136.0</ele><time>2026-04-27T09:01:44Z</time></trkpt><trkpt lat="-33.836322467837086" lon="115.34924936441782"><ele>137.14285714285714</ele><time>2026-04-27T09:01:49Z</time></trkpt><trkpt lat="-33.83639726639908" lon="115.34927818175012"><ele>138.28571428571428</ele><time>2026-04-27T09:01:52Z</time></trkpt><trkpt lat="-33.83647505256519" lon="115.34927831923629"><ele>139.42857142857144</ele><time>2026-04-27T09:01:56Z</time></trkpt><trkpt lat="-33.836542937838445" lon="115.3492949181303"><ele>140.57142857142856</ele><time>2026-04-27T09:02:00Z</time></trkpt><trkpt lat="-33.8365269643856" lon="115.34937205839934"><ele>141.71428571428572</ele><time>2026-04-27T09:02:04Z</time></trkpt><trkpt lat="-33.83650786198137" lon="115.3494536577785"><ele>142.85714285714286</ele><time>2026-04-27T09:02:10Z</time></trkpt><trkpt lat="-33.83651053672689" lon="115.34954516252861"><ele>144.0</ele><time>2026-04-27T09:02:15Z</time></trkpt><trkpt lat="-33.83649538229578" lon="115.34962227223173"><ele>144.0</ele><time>2026-04-27T09:02:18Z</time></trkpt><trkpt lat="-33.83651429339567" lon="115.34969682109931"><ele>144.0</ele><time>2026-04-27T09:02:21Z</time></trkpt><trkpt lat="-33.83656680379221" lon="115.3497582564006"><ele>144.0</ele><time>2026-04-27T09:02:24Z</time></trkpt><trkpt lat="-33.83660021402313" lon="115.34985001309232"><ele>144.0</ele><time>2026-04-27T09:02:27Z</time></trkpt><trkpt lat="-33.8366098260448" lon="115.34996084030715"><ele>144.0</ele><time>2026-04-27T09:02:30Z</time></trkpt><trkpt lat="-33.836607024181355" lon="115.3500430367983"><ele>144.0</ele><time>2026-04-27T09:02:33Z</time></trkpt><trkpt lat="-33.83655535340691" lon="115.35009935435764"><ele>144.83333333333334</ele><time>2026-04-27T09:02:35Z</time></trkpt><trkpt lat="-33.83650531873068" lon="115.35018122482967"><ele>145.66666666666666</ele><time>2026-04-27T09:02:38Z</time></trkpt><trkpt lat="-33.83644957823233" lon="115.35022737117049"><ele>146.5</ele><time>2026-04-27T09:02:41Z</time></trkpt><trkpt lat="-33.836435881411425" lon="115.35031903317488"><ele>147.33333333333331</ele><time>2026-04-27T09:02:44Z</time></trkpt><trkpt lat="-33.83637418717623" lon="115.35040681180271"><ele>148.16666666666666</ele><time>2026-04-27T09:02:47Z</time></trkpt><trkpt lat="-33.83630420542069" lon="115.35046362749038"><ele>149.0</ele><time>2026-04-27T09:02:50Z</time></trkpt><trkpt lat="-33.83624354233753" lon="115.35051621580492"><ele>149.57142857142856</ele><time>2026-04-27T09:02:57Z</time></trkpt><trkpt lat="-33.83621982549519" lon="115.35059983139809"><ele>150.14285714285714</ele><time>2026-04-27T09:03:01Z</time></trkpt><trkpt lat="-33.83625232314124" lon="115.3506702599392"><ele>150.71428571428572</ele><time>2026-04-27T09:03:04Z</time></trkpt><trkpt lat="-33.83624584780205" lon="115.35074826187612"><ele>151.28571428571428</ele><time>2026-04-27T09:03:08Z</time></trkpt><trkpt lat="-33.83617527508532" lon="115.35077524705085"><ele>151.85714285714286</ele><time>2026-04-27T09:03:10Z</time></trkpt><trkpt lat="-33.83611061020463" lon="115.3508151441368"><ele>152.42857142857142</ele><time>2026-04-27T09:03:13Z</time></trkpt><trkpt lat="-33.83605272999811" lon="115.35089607903414"><ele>153.0</ele><time>2026-04-27T09:03:18Z</time></trkpt><trkpt lat="-33.83613267675158" lon="115.35086008979074"><ele>153.0</ele><time>2026-04-27T09:03:26Z</time></trkpt><trkpt lat="-33.83620303988705" lon="115.35081509473217"><ele>153.0</ele><time>2026-04-27T09:03:30Z</time></trkpt><trkpt lat="-33.83624862406639" lon="115.3507536165228"><ele>153.0</ele><time>2026-04-27T09:03:34Z</time></trkpt><trkpt lat="-33.83623505756302" lon="115.35066067770472"><ele>153.0</ele><time>2026-04-27T09:03:38Z</time></trkpt><trkpt lat="-33.83624177409257" lon="115.35057441329035"><ele>153.0</ele><time>2026-04-27T09:03:42Z</time></trkpt><trkpt lat="-33.83629795504028" lon="115.3505164747262"><ele>153.0</ele><time>2026-04-27T09:03:45Z</time></trkpt><trkpt lat="-33.836356215154346" lon="115.35047975151979"><ele>153.0</ele><time>2026-04-27T09:03:51Z</time></trkpt><trkpt lat="-33.836424073278465" lon="115.35045288670784"><ele>152.42857142857142</ele><time>2026-04-27T09:03:55Z</time></trkpt><trkpt lat="-33.836488648415425" lon="115.35039759006685"><ele>151.85714285714286</ele><time>2026-04-27T09:04:00Z</time></trkpt><trkpt lat="-33.83654229598254" lon="115.35032623639891"><ele>151.28571428571428</ele><time>2026-04-27T09:04:04Z</time></trkpt><trkpt lat="-33.83658183488208" lon="115.35025272896327"><ele>150.71428571428572</ele><time>2026-04-27T09:04:16Z</time></trkpt><trkpt lat="-33.83657185020468" lon="115.3501710956487"><ele>150.14285714285714</ele><time>2026-04-27T09:04:31Z</time></trkpt><trkpt lat="-33.83659515813406" lon="115.35009091611181"><ele>149.57142857142856</ele><time>2026-04-27T09:04:36Z</time></trkpt><trkpt lat="-33.83658441731228" lon="115.35000916850649"><ele>149.0</ele><time>2026-04-27T09:04:41Z</time></trkpt><trkpt lat="-33.83658714366483" lon="115.34993180048497"><ele>149.0</ele><time>2026-04-27T09:04:44Z</time></trkpt><trkpt lat="-33.836572063266665" lon="115.34985743229463"><ele>149.0</ele><time>2026-04-27T09:04:47Z</time></trkpt><trkpt lat="-33.83658907163059" lon="115.34977092938607"><ele>149.0</ele><time>2026-04-27T09:04:51Z</time></trkpt><trkpt lat="-33.83663530783488" lon="115.34971512382565"><ele>149.0</ele><time>2026-04-27T09:05:02Z</time></trkpt><trkpt lat="-33.83668785747703" lon="115.34966889131277"><ele>149.0</ele><time>2026-04-27T09:05:13Z</time></trkpt><trkpt lat="-33.83674168596068" lon="115.3496167996254"><ele>149.0</ele><time>2026-04-27T09:05:19Z</time></trkpt><trkpt lat="-33.836754817692594" lon="115.34954059174926"><ele>149.0</ele><time>2026-04-27T09:05:26Z</time></trkpt><trkpt lat="-33.83683419144009" lon="115.34952386771246"><ele>147.85714285714286</ele><time>2026-04-27T09:05:54Z</time></trkpt><trkpt lat="-33.836893182365785" lon="115.3494778504974"><ele>146.7142857142857</ele><time>2026-04-27T09:05:58Z</time></trkpt><trkpt lat="-33.83692167934818" lon="115.34940281238237"><ele>145.57142857142856</ele><time>2026-04-27T09:06:01Z</time></trkpt><trkpt lat="-33.83695126627793" lon="115.34933248228512"><ele>144.42857142857142</ele><time>2026-04-27T09:06:04Z</time></trkpt><trkpt lat="-33.836996101604385" lon="115.34927305151837"><ele>143.28571428571428</ele><time>2026-04-27T09:06:07Z</time></trkpt><trkpt lat="-33.837008015767026" lon="115.34919580121203"><ele>142.14285714285714</ele><time>2026-04-27T09:06:10Z</time></trkpt><trkpt lat="-33.8369884734822" lon="115.34909768255443"><ele>141.0</ele><time>2026-04-27T09:06:13Z</time></trkpt><trkpt lat="-33.83700528904453" lon="115.34900909445777"><ele>141.0</ele><time>2026-04-27T09:06:16Z</time></trkpt><trkpt lat="-33.83708161826841" lon="115.34897643467437"><ele>141.0</ele><time>2026-04-27T09:06:21Z</time></trkpt><trkpt lat="-33.83715326360392" lon="115.34898421437462"><ele>141.0</ele><time>2026-04-27T09:06:24Z</time></trkpt><trkpt lat="-33.83723166534546" lon="115.34894703965894"><ele>141.0</ele><time>2026-04-27T09:06:27Z</time></trkpt><trkpt lat="-33.83729650512956" lon="115.34893121043842"><ele>141.0</ele><time>2026-04-27T09:06:30Z</time></trkpt><trkpt lat="-33.83737029272561" lon="115.34897114651754"><ele>141.0</ele><time>2026-04-27T09:06:33Z</time></trkpt><trkpt lat="-33.83743189053601" lon="115.34899436717431"><ele>141.0</ele><time>2026-04-27T09:06:35Z</time></trkpt><trkpt lat="-33.837494527820176" lon="115.34903479964223"><ele>141.0</ele><time>2026-04-27T09:06:38Z</time></trkpt><trkpt lat="-33.837560372784935" lon="115.34907264434317"><ele>141.0</ele><time>2026-04-27T09:06:42Z</time></trkpt><trkpt lat="-33.837611131689044" lon="115.34916858994876"><ele>141.0</ele><time>2026-04-27T09:06:46Z</time></trkpt><trkpt lat="-33.83764867812528" lon="115.34923080700528"><ele>141.0</ele><time>2026-04-27T09:06:48Z</time></trkpt><trkpt lat="-33.83765422822717" lon="115.34931436429382"><ele>141.0</ele><time>2026-04-27T09:06:51Z</time></trkpt><trkpt lat="-33.8376324321556" lon="115.3493863246532"><ele>141.0</ele><time>2026-04-27T09:06:53Z</time></trkpt><trkpt lat="-33.83760220929192" lon="115.34947071798008"><ele>141.0</ele><time>2026-04-27T09:06:56Z</time></trkpt><trkpt lat="-33.8375628715511" lon="115.34954215909791"><ele>141.0</ele><time>2026-04-27T09:06:59Z</time></trkpt><trkpt lat="-33.83757757938646" lon="115.34961927068657"><ele>141.0</ele><time>2026-04-27T09:07:03Z</time></trkpt><trkpt lat="-33.837522923549706" lon="115.34968479291165"><ele>141.0</ele><time>2026-04-27T09:07:07Z</time></trkpt><trkpt lat="-33.837440918573535" lon="115.34974036147038"><ele>141.0</ele><time>2026-04-27T09:07:09Z</time></trkpt><trkpt lat="-33.8373873430857" lon="115.34983005075762"><ele>141.0</ele><time>2026-04-27T09:07:12Z</time></trkpt><trkpt lat="-33.83735636947497" lon="115.34991824647621"><ele>141.0</ele><time>2026-04-27T09:07:15Z</time></trkpt><trkpt lat="-33.837345847451694" lon="115.35001871790617"><ele>142.5</ele><time>2026-04-27T09:07:18Z</time></trkpt><trkpt lat="-33.837313294901826" lon="115.35008548312105"><ele>144.0</ele><time>2026-04-27T09:07:21Z</time></trkpt><trkpt lat="-33.83732694364132" lon="115.3500003364021"><ele>145.5</ele><time>2026-04-27T09:07:32Z</time></trkpt><trkpt lat="-33.83738883853741" lon="115.34992625613084"><ele>147.0</ele><time>2026-04-27T09:07:35Z</time></trkpt><trkpt lat="-33.83741979483161" lon="115.3498289320582"><ele>148.5</ele><time>2026-04-27T09:07:38Z</time></trkpt><trkpt lat="-33.83745476219724" lon="115.34976102440622"><ele>150.0</ele><time>2026-04-27T09:07:41Z</time></trkpt><trkpt lat="-33.83752865586705" lon="115.34973455459338"><ele>149.0</ele><time>2026-04-27T09:07:44Z</time></trkpt><trkpt lat="-33.83761048974227" lon="115.34970491995962"><ele>148.0</ele><time>2026-04-27T09:07:47Z</time></trkpt><trkpt lat="-33.83769064189815" lon="115.34966663627816"><ele>147.0</ele><time>2026-04-27T09:07:50Z</time></trkpt><trkpt lat="-33.83775036509416" lon="115.34962913697319"><ele>146.0</ele><time>2026-04-27T09:07:52Z</time></trkpt><trkpt lat="-33.83781567574425" lon="115.3495821850976"><ele>145.0</ele><time>2026-04-27T09:07:55Z</time></trkpt><trkpt lat="-33.837838511774606" lon="115.34951046844226"><ele>144.0</ele><time>2026-04-27T09:07:58Z</time></trkpt><trkpt lat="-33.837806494223926" lon="115.34943202092204"><ele>144.0</ele><time>2026-04-27T09:08:02Z</time></trkpt><trkpt lat="-33.83772237248203" lon="115.3494163435667"><ele>144.0</ele><time>2026-04-27T09:08:06Z</time></trkpt><trkpt lat="-33.83766703091192" lon="115.3493353744469"><ele>144.0</ele><time>2026-04-27T09:08:09Z</time></trkpt><trkpt lat="-33.83766055934117" lon="115.34925402198186"><ele>144.0</ele><time>2026-04-27T09:08:11Z</time></trkpt><trkpt lat="-33.83763416869506" lon="115.3491480390225"><ele>144.0</ele><time>2026-04-27T09:08:14Z</time></trkpt><trkpt lat="-33.837577766006746" lon="115.34907061911373"><ele>144.0</ele><time>2026-04-27T09:08:18Z</time></trkpt><trkpt lat="-33.83749291745219" lon="115.34900696408445"><ele>143.5</ele><time>2026-04-27T09:08:21Z</time></trkpt><trkpt lat="-33.8374154737573" lon="115.34896441447661"><ele>143.0</ele><time>2026-04-27T09:08:23Z</time></trkpt><trkpt lat="-33.83735195477843" lon="115.34894233602625"><ele>142.5</ele><time>2026-04-27T09:08:25Z</time></trkpt><trkpt lat="-33.83728534828813" lon="115.34888089858987"><ele>142.0</ele><time>2026-04-27T09:08:28Z</time></trkpt><trkpt lat="-33.83722883472761" lon="115.34882611374958"><ele>141.5</ele><time>2026-04-27T09:08:30Z</time></trkpt><trkpt lat="-33.837164004006745" lon="115.3487907104985"><ele>141.0</ele><time>2026-04-27T09:08:32Z</time></trkpt><trkpt lat="-33.83709087162686" lon="115.34877305149185"><ele>140.16666666666666</ele><time>2026-04-27T09:08:34Z</time></trkpt><trkpt lat="-33.83701646570574" lon="115.34875476425623"><ele>139.33333333333334</ele><time>2026-04-27T09:08:36Z</time></trkpt><trkpt lat="-33.83695440893261" lon="115.34873759784911"><ele>138.5</ele><time>2026-04-27T09:08:38Z</time></trkpt><trkpt lat="-33.83688806224275" lon="115.34870169228437"><ele>137.66666666666669</ele><time>2026-04-27T09:08:40Z</time></trkpt><trkpt lat="-33.83682870394706" lon="115.34866357377311"><ele>136.83333333333334</ele><time>2026-04-27T09:08:42Z</time></trkpt><trkpt lat="-33.83674587078213" lon="115.3485970402239"><ele>136.0</ele><time>2026-04-27T09:08:45Z</time></trkpt><trkpt lat="-33.83669158498756" lon="115.34854288365912"><ele>135.99999999999997</ele><time>2026-04-27T09:08:48Z</time></trkpt><trkpt lat="-33.83665060886603" lon="115.34847187835932"><ele>136.0</ele><time>2026-04-27T09:08:51Z</time></trkpt><trkpt lat="-33.836624893286974" lon="115.34838962009574"><ele>136.0</ele><time>2026-04-27T09:08:54Z</time></trkpt><trkpt lat="-33.83662937708101" lon="115.34847119182314"><ele>136.0</ele><time>2026-04-27T09:09:59Z</time></trkpt><trkpt lat="-33.836607923420075" lon="115.34839968560205"><ele>136.0</ele><time>2026-04-27T09:10:37Z</time></trkpt><trkpt lat="-33.83654753740383" lon="115.34834565542899"><ele>135.99999999999997</ele><time>2026-04-27T09:10:50Z</time></trkpt><trkpt lat="-33.83659594702367" lon="115.34839886610504"><ele>136.0</ele><time>2026-04-27T09:11:05Z</time></trkpt><trkpt lat="-33.836555914197476" lon="115.34832007351267"><ele>136.0</ele><time>2026-04-27T09:11:28Z</time></trkpt><trkpt lat="-33.836459852739104" lon="115.34829756853742"><ele>136.0</ele><time>2026-04-27T09:11:30Z</time></trkpt><trkpt lat="-33.83639172822167" lon="115.3482848329426"><ele>136.0</ele><time>2026-04-27T09:11:31Z</time></trkpt><trkpt lat="-33.83632456530868" lon="115.34827532311627"><ele>136.0</ele><time>2026-04-27T09:11:32Z</time></trkpt><trkpt lat="-33.836256085695794" lon="115.34827763982138"><ele>136.0</ele><time>2026-04-27T09:11:34Z</time></trkpt><trkpt lat="-33.83617390321882" lon="115.34828415458189"><ele>136.0</ele><time>2026-04-27T09:11:37Z</time></trkpt><trkpt lat="-33.83609507108827" lon="115.3482916359348"><ele>136.0</ele><time>2026-04-27T09:11:39Z</time></trkpt><trkpt lat="-33.835997806511386" lon="115.34829548637002"><ele>136.0</ele><time>2026-04-27T09:11:41Z</time></trkpt><trkpt lat="-33.835925593333286" lon="115.34830538008836"><ele>136.0</ele><time>2026-04-27T09:11:42Z</time></trkpt><trkpt lat="-33.83583816829905" lon="115.34832650593368"><ele>136.0</ele><time>2026-04-27T09:11:43Z</time></trkpt><trkpt lat="-33.835733915591454" lon="115.34835767071243"><ele>136.0</ele><time>2026-04-27T09:11:44Z</time></trkpt><trkpt lat="-33.83562690914597" lon="115.34839491489704"><ele>136.0</ele><time>2026-04-27T09:11:45Z</time></trkpt><trkpt lat="-33.83552542920758" lon="115.34843351577182"><ele>136.0</ele><time>2026-04-27T09:11:46Z</time></trkpt><trkpt lat="-33.835427669874676" lon="115.34848041218918"><ele>136.0</ele><time>2026-04-27T09:11:47Z</time></trkpt><trkpt lat="-33.83532218429673" lon="115.34853465310526"><ele>136.0</ele><time>2026-04-27T09:11:48Z</time></trkpt><trkpt lat="-33.83522839239715" lon="115.34859834398623"><ele>136.0</ele><time>2026-04-27T09:11:49Z</time></trkpt><trkpt lat="-33.83514131485221" lon="115.34867267899925"><ele>136.16666666666669</ele><time>2026-04-27T09:11:50Z</time></trkpt><trkpt lat="-33.8350619169045" lon="115.34874482559704"><ele>136.33333333333334</ele><time>2026-04-27T09:11:51Z</time></trkpt><trkpt lat="-33.8350053140236" lon="115.3488175308914"><ele>136.5</ele><time>2026-04-27T09:11:52Z</time></trkpt><trkpt lat="-33.83494751300449" lon="115.34888723591828"><ele>136.66666666666666</ele><time>2026-04-27T09:11:53Z</time></trkpt><trkpt lat="-33.834895985498555" lon="115.3489526198308"><ele>136.83333333333331</ele><time>2026-04-27T09:11:54Z</time></trkpt><trkpt lat="-33.83484789623404" lon="115.34902561837195"><ele>137.0</ele><time>2026-04-27T09:11:55Z</time></trkpt><trkpt lat="-33.834795208629" lon="115.34911580678539"><ele>137.0</ele><time>2026-04-27T09:11:56Z</time></trkpt><trkpt lat="-33.83473969053707" lon="115.34920148915472"><ele>137.0</ele><time>2026-04-27T09:11:57Z</time></trkpt><trkpt lat="-33.834694059874536" lon="115.34927624803781"><ele>137.0</ele><time>2026-04-27T09:11:58Z</time></trkpt><trkpt lat="-33.834646295044" lon="115.34935685537616"><ele>137.0</ele><time>2026-04-27T09:11:59Z</time></trkpt><trkpt lat="-33.83461412627018" lon="115.3494355818666"><ele>137.0</ele><time>2026-04-27T09:12:00Z</time></trkpt><trkpt lat="-33.83458051305924" lon="115.34951630121809"><ele>137.0</ele><time>2026-04-27T09:12:01Z</time></trkpt><trkpt lat="-33.8345561470981" lon="115.3495933478769"><ele>137.00000000000003</ele><time>2026-04-27T09:12:02Z</time></trkpt><trkpt lat="-33.834539786479404" lon="115.34968477601012"><ele>137.0</ele><time>2026-04-27T09:12:03Z</time></trkpt><trkpt lat="-33.83452518249962" lon="115.34976994693336"><ele>137.0</ele><time>2026-04-27T09:12:04Z</time></trkpt><trkpt lat="-33.83451059612137" lon="115.34984574868311"><ele>137.0</ele><time>2026-04-27T09:12:05Z</time></trkpt><trkpt lat="-33.834490220676294" lon="115.3499253777966"><ele>137.0</ele><time>2026-04-27T09:12:06Z</time></trkpt><trkpt lat="-33.834473845633674" lon="115.3500200331951"><ele>137.00000000000003</ele><time>2026-04-27T09:12:07Z</time></trkpt><trkpt lat="-33.834468994245064" lon="115.35011135499424"><ele>137.0</ele><time>2026-04-27T09:12:08Z</time></trkpt><trkpt lat="-33.83445518572213" lon="115.35019348627561"><ele>138.5</ele><time>2026-04-27T09:12:09Z</time></trkpt><trkpt lat="-33.834416153950656" lon="115.35033395818792"><ele>140.0</ele><time>2026-04-27T09:12:11Z</time></trkpt><trkpt lat="-33.83439538910601" lon="115.35041442680871"><ele>141.5</ele><time>2026-04-27T09:12:12Z</time></trkpt><trkpt lat="-33.83438238637507" lon="115.3504929167174"><ele>143.0</ele><time>2026-04-27T09:12:13Z</time></trkpt><trkpt lat="-33.8343724488953" lon="115.35058478849166"><ele>144.5</ele><time>2026-04-27T09:12:14Z</time></trkpt><trkpt lat="-33.83435037014905" lon="115.350700035096"><ele>146.0</ele><time>2026-04-27T09:12:15Z</time></trkpt><trkpt lat="-33.83432818651623" lon="115.35079233809032"><ele>146.8</ele><time>2026-04-27T09:12:16Z</time></trkpt><trkpt lat="-33.83430616795451" lon="115.35089750826954"><ele>147.6</ele><time>2026-04-27T09:12:17Z</time></trkpt><trkpt lat="-33.83427963545222" lon="115.35102291205659"><ele>148.4</ele><time>2026-04-27T09:12:18Z</time></trkpt><trkpt lat="-33.8342625058866" lon="115.35114842368702"><ele>149.2</ele><time>2026-04-27T09:12:19Z</time></trkpt><trkpt lat="-33.8342456534871" lon="115.3512681424929"><ele>150.0</ele><time>2026-04-27T09:12:20Z</time></trkpt><trkpt lat="-33.83422440778796" lon="115.35141235394339"><ele>147.75</ele><time>2026-04-27T09:12:21Z</time></trkpt><trkpt lat="-33.83419530252439" lon="115.35157437718031"><ele>145.5</ele><time>2026-04-27T09:12:22Z</time></trkpt><trkpt lat="-33.834162915338794" lon="115.35173396942615"><ele>143.25</ele><time>2026-04-27T09:12:23Z</time></trkpt><trkpt lat="-33.83412706051514" lon="115.35188118208566"><ele>141.0</ele><time>2026-04-27T09:12:24Z</time></trkpt><trkpt lat="-33.834094212378" lon="115.35204415310503"><ele>141.0</ele><time>2026-04-27T09:12:25Z</time></trkpt><trkpt lat="-33.83406437867989" lon="115.35220460606448"><ele>141.0</ele><time>2026-04-27T09:12:26Z</time></trkpt><trkpt lat="-33.834022342043795" lon="115.35236785738171"><ele>141.0</ele><time>2026-04-27T09:12:27Z</time></trkpt><trkpt lat="-33.83396153106141" lon="115.35253511701647"><ele>141.0</ele><time>2026-04-27T09:12:28Z</time></trkpt><trkpt lat="-33.83388305669757" lon="115.35270467810429"><ele>142.5</ele><time>2026-04-27T09:12:29Z</time></trkpt><trkpt lat="-33.83380224304475" lon="115.35285544276086"><ele>144.0</ele><time>2026-04-27T09:12:30Z</time></trkpt><trkpt lat="-33.83372376614188" lon="115.352992921805"><ele>145.5</ele><time>2026-04-27T09:12:31Z</time></trkpt><trkpt lat="-33.833628720387544" lon="115.35312507619369"><ele>147.0</ele><time>2026-04-27T09:12:32Z</time></trkpt><trkpt lat="-33.83352361612302" lon="115.35325785159507"><ele>147.33333333333334</ele><time>2026-04-27T09:12:33Z</time></trkpt><trkpt lat="-33.833401925542155" lon="115.35338662759973"><ele>147.66666666666669</ele><time>2026-04-27T09:12:34Z</time></trkpt><trkpt lat="-33.83327213565354" lon="115.35349814684126"><ele>148.0</ele><time>2026-04-27T09:12:35Z</time></trkpt><trkpt lat="-33.83311692143223" lon="115.35358267546714"><ele>148.0</ele><time>2026-04-27T09:12:36Z</time></trkpt><trkpt lat="-33.832962003396446" lon="115.35366111426038"><ele>148.0</ele><time>2026-04-27T09:12:37Z</time></trkpt><trkpt lat="-33.832812910977175" lon="115.35372192638627"><ele>148.0</ele><time>2026-04-27T09:12:38Z</time></trkpt><trkpt lat="-33.832668050690124" lon="115.35376159443169"><ele>149.0</ele><time>2026-04-27T09:12:39Z</time></trkpt><trkpt lat="-33.83251239870604" lon="115.35378087848977"><ele>150.0</ele><time>2026-04-27T09:12:40Z</time></trkpt><trkpt lat="-33.83236031991423" lon="115.35381292490305"><ele>151.0</ele><time>2026-04-27T09:12:41Z</time></trkpt><trkpt lat="-33.83221032587125" lon="115.35384711645106"><ele>151.75</ele><time>2026-04-27T09:12:42Z</time></trkpt><trkpt lat="-33.83206747500612" lon="115.35387671518467"><ele>152.5</ele><time>2026-04-27T09:12:43Z</time></trkpt><trkpt lat="-33.831926557620214" lon="115.3539062007717"><ele>153.25</ele><time>2026-04-27T09:12:44Z</time></trkpt><trkpt lat="-33.83177814374635" lon="115.35393402153552"><ele>154.0</ele><time>2026-04-27T09:12:45Z</time></trkpt><trkpt lat="-33.83163413521279" lon="115.35395904991853"><ele>154.25</ele><time>2026-04-27T09:12:46Z</time></trkpt><trkpt lat="-33.83148566203353" lon="115.35399361996248"><ele>154.5</ele><time>2026-04-27T09:12:47Z</time></trkpt><trkpt lat="-33.831341165866895" lon="115.35401818473629"><ele>154.75</ele><time>2026-04-27T09:12:48Z</time></trkpt><trkpt lat="-33.831205689094695" lon="115.35404997538005"><ele>155.0</ele><time>2026-04-27T09:12:49Z</time></trkpt><trkpt lat="-33.83106275803649" lon="115.3540881587609"><ele>155.0</ele><time>2026-04-27T09:12:50Z</time></trkpt><trkpt lat="-33.83092625179711" lon="115.35412676188758"><ele>155.0</ele><time>2026-04-27T09:12:51Z</time></trkpt><trkpt lat="-33.83079656221344" lon="115.35416048277477"><ele>155.0</ele><time>2026-04-27T09:12:52Z</time></trkpt><trkpt lat="-33.83065916503792" lon="115.35419229273549"><ele>155.0</ele><time>2026-04-27T09:12:53Z</time></trkpt><trkpt lat="-33.83052223845624" lon="115.35421634034022"><ele>155.0</ele><time>2026-04-27T09:12:54Z</time></trkpt><trkpt lat="-33.830383473741136" lon="115.35425130134497"><ele>155.0</ele><time>2026-04-27T09:12:55Z</time></trkpt><trkpt lat="-33.83024521518703" lon="115.35428610722678"><ele>155.0</ele><time>2026-04-27T09:12:56Z</time></trkpt><trkpt lat="-33.83010794641741" lon="115.35431833038595"><ele>155.0</ele><time>2026-04-27T09:12:57Z</time></trkpt><trkpt lat="-33.829984827768804" lon="115.35434061976369"><ele>154.4</ele><time>2026-04-27T09:12:58Z</time></trkpt><trkpt lat="-33.82986375015569" lon="115.35436761730153"><ele>153.8</ele><time>2026-04-27T09:12:59Z</time></trkpt><trkpt lat="-33.82975333247935" lon="115.35439629627817"><ele>153.2</ele><time>2026-04-27T09:13:00Z</time></trkpt><trkpt lat="-33.829656852322444" lon="115.35442078043188"><ele>152.6</ele><time>2026-04-27T09:13:01Z</time></trkpt><trkpt lat="-33.829573261998085" lon="115.35443871419604"><ele>152.0</ele><time>2026-04-27T09:13:02Z</time></trkpt><trkpt lat="-33.82949304420104" lon="115.35445087698886"><ele>152.0</ele><time>2026-04-27T09:13:03Z</time></trkpt><trkpt lat="-33.829414747451025" lon="115.35447171193331"><ele>152.0</ele><time>2026-04-27T09:13:04Z</time></trkpt><trkpt lat="-33.829350096025" lon="115.35451405354159"><ele>152.0</ele><time>2026-04-27T09:13:05Z</time></trkpt><trkpt lat="-33.82930368768011" lon="115.35457555417929"><ele>152.0</ele><time>2026-04-27T09:13:06Z</time></trkpt><trkpt lat="-33.82927199870253" lon="115.35464796853832"><ele>152.0</ele><time>2026-04-27T09:13:07Z</time></trkpt><trkpt lat="-33.82924097436877" lon="115.35475507656145"><ele>152.0</ele><time>2026-04-27T09:13:08Z</time></trkpt><trkpt lat="-33.82921889405428" lon="115.3548753317852"><ele>151.4</ele><time>2026-04-27T09:13:09Z</time></trkpt><trkpt lat="-33.82921197068939" lon="115.35497460427493"><ele>150.79999999999998</ele><time>2026-04-27T09:13:10Z</time></trkpt><trkpt lat="-33.82921818210776" lon="115.3550931142802"><ele>150.2</ele><time>2026-04-27T09:13:11Z</time></trkpt><trkpt lat="-33.82923242234181" lon="115.35523085197772"><ele>149.6</ele><time>2026-04-27T09:13:12Z</time></trkpt><trkpt lat="-33.82924047681878" lon="115.35536539951524"><ele>149.0</ele><time>2026-04-27T09:13:13Z</time></trkpt><trkpt lat="-33.82924065955151" lon="115.35549867388136"><ele>148.6</ele><time>2026-04-27T09:13:14Z</time></trkpt><trkpt lat="-33.829238440105186" lon="115.35562265902011"><ele>148.2</ele><time>2026-04-27T09:13:15Z</time></trkpt><trkpt lat="-33.8292392906577" lon="115.35574543984926"><ele>147.79999999999998</ele><time>2026-04-27T09:13:16Z</time></trkpt><trkpt lat="-33.82924084907489" lon="115.35586065042037"><ele>147.4</ele><time>2026-04-27T09:13:17Z</time></trkpt><trkpt lat="-33.8292381384114" lon="115.35597064570769"><ele>147.0</ele><time>2026-04-27T09:13:18Z</time></trkpt><trkpt lat="-33.82923436316556" lon="115.35607819002973"><ele>147.0</ele><time>2026-04-27T09:13:19Z</time></trkpt><trkpt lat="-33.82922892504588" lon="115.35619843475672"><ele>147.0</ele><time>2026-04-27T09:13:20Z</time></trkpt><trkpt lat="-33.82922449758186" lon="115.35633585570841"><ele>147.0</ele><time>2026-04-27T09:13:21Z</time></trkpt><trkpt lat="-33.82922511690293" lon="115.35648589351207"><ele>147.0</ele><time>2026-04-27T09:13:22Z</time></trkpt><trkpt lat="-33.829226080836584" lon="115.35663186487807"><ele>146.0</ele><time>2026-04-27T09:13:23Z</time></trkpt><trkpt lat="-33.82921994313164" lon="115.3567890390563"><ele>145.0</ele><time>2026-04-27T09:13:24Z</time></trkpt><trkpt lat="-33.829213740605596" lon="115.35695421004235"><ele>144.0</ele><time>2026-04-27T09:13:25Z</time></trkpt><trkpt lat="-33.82921169843288" lon="115.35711924600749"><ele>143.0</ele><time>2026-04-27T09:13:26Z</time></trkpt><trkpt lat="-33.82921398982986" lon="115.35729054182352"><ele>143.0</ele><time>2026-04-27T09:13:27Z</time></trkpt><trkpt lat="-33.82921494802452" lon="115.35747176212452"><ele>143.0</ele><time>2026-04-27T09:13:28Z</time></trkpt><trkpt lat="-33.82919598589077" lon="115.35763708980909"><ele>143.0</ele><time>2026-04-27T09:13:29Z</time></trkpt><trkpt lat="-33.829195586440974" lon="115.35780463138501"><ele>143.0</ele><time>2026-04-27T09:13:30Z</time></trkpt><trkpt lat="-33.8292022736862" lon="115.35796910481749"><ele>143.75</ele><time>2026-04-27T09:13:31Z</time></trkpt><trkpt lat="-33.82921273680394" lon="115.35813754996306"><ele>144.5</ele><time>2026-04-27T09:13:32Z</time></trkpt><trkpt lat="-33.82921772423887" lon="115.35830985464194"><ele>145.25</ele><time>2026-04-27T09:13:33Z</time></trkpt><trkpt lat="-33.82921833871637" lon="115.35847885642802"><ele>146.0</ele><time>2026-04-27T09:13:34Z</time></trkpt><trkpt lat="-33.82921447894144" lon="115.35865542480938"><ele>146.0</ele><time>2026-04-27T09:13:35Z</time></trkpt><trkpt lat="-33.82920865822135" lon="115.35883133503336"><ele>146.0</ele><time>2026-04-27T09:13:36Z</time></trkpt><trkpt lat="-33.829206252635295" lon="115.35900638215017"><ele>146.0</ele><time>2026-04-27T09:13:37Z</time></trkpt><trkpt lat="-33.82920956827931" lon="115.35916771132128"><ele>146.0</ele><time>2026-04-27T09:13:38Z</time></trkpt><trkpt lat="-33.82920962150344" lon="115.35933020361946"><ele>147.0</ele><time>2026-04-27T09:13:39Z</time></trkpt><trkpt lat="-33.829211941712465" lon="115.35950482122144"><ele>148.0</ele><time>2026-04-27T09:13:40Z</time></trkpt><trkpt lat="-33.829208002915536" lon="115.3596739682382"><ele>149.0</ele><time>2026-04-27T09:13:41Z</time></trkpt><trkpt lat="-33.8292050187784" lon="115.35984518602257"><ele>150.0</ele><time>2026-04-27T09:13:42Z</time></trkpt><trkpt lat="-33.82920377851493" lon="115.36001251344483"><ele>151.0</ele><time>2026-04-27T09:13:43Z</time></trkpt><trkpt lat="-33.82920469280358" lon="115.36018888090815"><ele>152.0</ele><time>2026-04-27T09:13:44Z</time></trkpt><trkpt lat="-33.82920519460959" lon="115.36036430234132"><ele>153.0</ele><time>2026-04-27T09:13:45Z</time></trkpt><trkpt lat="-33.82920320332571" lon="115.36054025106846"><ele>154.0</ele><time>2026-04-27T09:13:46Z</time></trkpt><trkpt lat="-33.82919979439217" lon="115.36071477810967"><ele>154.5</ele><time>2026-04-27T09:13:47Z</time></trkpt><trkpt lat="-33.829202968804346" lon="115.36089002713523"><ele>155.0</ele><time>2026-04-27T09:13:48Z</time></trkpt><trkpt lat="-33.82920922313028" lon="115.36105954267144"><ele>155.5</ele><time>2026-04-27T09:13:49Z</time></trkpt><trkpt lat="-33.82921655029889" lon="115.36122075614757"><ele>156.0</ele><time>2026-04-27T09:13:50Z</time></trkpt><trkpt lat="-33.8292259261095" lon="115.36138092557168"><ele>156.25</ele><time>2026-04-27T09:13:51Z</time></trkpt><trkpt lat="-33.82923545088061" lon="115.36155525094334"><ele>156.5</ele><time>2026-04-27T09:13:52Z</time></trkpt><trkpt lat="-33.82923446060071" lon="115.36174453433865"><ele>156.75</ele><time>2026-04-27T09:13:53Z</time></trkpt><trkpt lat="-33.82922146748348" lon="115.36191669003026"><ele>157.0</ele><time>2026-04-27T09:13:54Z</time></trkpt><trkpt lat="-33.829208594459324" lon="115.36210989126154"><ele>156.66666666666669</ele><time>2026-04-27T09:13:55Z</time></trkpt><trkpt lat="-33.8292057313142" lon="115.36230347347815"><ele>156.33333333333334</ele><time>2026-04-27T09:13:56Z</time></trkpt><trkpt lat="-33.82920480097769" lon="115.36249191466868"><ele>156.0</ele><time>2026-04-27T09:13:57Z</time></trkpt><trkpt lat="-33.8292032056146" lon="115.3626582049809"><ele>156.0</ele><time>2026-04-27T09:13:58Z</time></trkpt><trkpt lat="-33.8292029325454" lon="115.36281142624358"><ele>156.0</ele><time>2026-04-27T09:13:59Z</time></trkpt><trkpt lat="-33.829206635127235" lon="115.36295428330283"><ele>156.0</ele><time>2026-04-27T09:14:00Z</time></trkpt><trkpt lat="-33.82920627029434" lon="115.3631024010965"><ele>156.0</ele><time>2026-04-27T09:14:01Z</time></trkpt><trkpt lat="-33.82920570063215" lon="115.36323900819998"><ele>155.5</ele><time>2026-04-27T09:14:02Z</time></trkpt><trkpt lat="-33.829202962800146" lon="115.36338758062388"><ele>155.0</ele><time>2026-04-27T09:14:03Z</time></trkpt><trkpt lat="-33.8292042984504" lon="115.3635498804031"><ele>154.5</ele><time>2026-04-27T09:14:04Z</time></trkpt><trkpt lat="-33.8292069833293" lon="115.36369361056813"><ele>154.0</ele><time>2026-04-27T09:14:05Z</time></trkpt><trkpt lat="-33.82920713312846" lon="115.36383260132085"><ele>154.75</ele><time>2026-04-27T09:14:06Z</time></trkpt><trkpt lat="-33.82920201664701" lon="115.3639675936994"><ele>155.5</ele><time>2026-04-27T09:14:07Z</time></trkpt><trkpt lat="-33.829198848502514" lon="115.36410306638456"><ele>156.25</ele><time>2026-04-27T09:14:08Z</time></trkpt><trkpt lat="-33.829202974359845" lon="115.36425340073318"><ele>157.0</ele><time>2026-04-27T09:14:09Z</time></trkpt><trkpt lat="-33.829208124468465" lon="115.36440656451046"><ele>157.0</ele><time>2026-04-27T09:14:10Z</time></trkpt><trkpt lat="-33.82921280150534" lon="115.36455740127519"><ele>157.0</ele><time>2026-04-27T09:14:11Z</time></trkpt><trkpt lat="-33.82921606112754" lon="115.36471803463746"><ele>157.0</ele><time>2026-04-27T09:14:12Z</time></trkpt><trkpt lat="-33.82922029632389" lon="115.36487890801594"><ele>157.0</ele><time>2026-04-27T09:14:13Z</time></trkpt><trkpt lat="-33.82922014434292" lon="115.36504097027172"><ele>157.0</ele><time>2026-04-27T09:14:14Z</time></trkpt><trkpt lat="-33.829220019221495" lon="115.36521514977528"><ele>157.0</ele><time>2026-04-27T09:14:15Z</time></trkpt><trkpt lat="-33.82922021536302" lon="115.36539126046497"><ele>157.0</ele><time>2026-04-27T09:14:16Z</time></trkpt><trkpt lat="-33.82922108156204" lon="115.36556223792786"><ele>157.0</ele><time>2026-04-27T09:14:17Z</time></trkpt><trkpt lat="-33.829218829288955" lon="115.36572245531961"><ele>156.75</ele><time>2026-04-27T09:14:18Z</time></trkpt><trkpt lat="-33.82922052480659" lon="115.36587898488996"><ele>156.5</ele><time>2026-04-27T09:14:19Z</time></trkpt><trkpt lat="-33.82922705594086" lon="115.36604616808633"><ele>156.25</ele><time>2026-04-27T09:14:20Z</time></trkpt><trkpt lat="-33.829236315193775" lon="115.36620940174967"><ele>156.0</ele><time>2026-04-27T09:14:21Z</time></trkpt><trkpt lat="-33.82924673985879" lon="115.36636027977956"><ele>156.4</ele><time>2026-04-27T09:14:22Z</time></trkpt><trkpt lat="-33.829252840165" lon="115.36649621649782"><ele>156.8</ele><time>2026-04-27T09:14:23Z</time></trkpt><trkpt lat="-33.82925041181314" lon="115.36662489402096"><ele>157.20000000000002</ele><time>2026-04-27T09:14:24Z</time></trkpt><trkpt lat="-33.8292470309093" lon="115.36674299873467"><ele>157.6</ele><time>2026-04-27T09:14:25Z</time></trkpt><trkpt lat="-33.82923846377988" lon="115.36685473828763"><ele>158.0</ele><time>2026-04-27T09:14:26Z</time></trkpt><trkpt lat="-33.829230196316814" lon="115.3669646628274"><ele>158.0</ele><time>2026-04-27T09:14:27Z</time></trkpt><trkpt lat="-33.82922282700636" lon="115.36706398449519"><ele>158.0</ele><time>2026-04-27T09:14:28Z</time></trkpt><trkpt lat="-33.82921919643168" lon="115.3671789658327"><ele>158.0</ele><time>2026-04-27T09:14:29Z</time></trkpt><trkpt lat="-33.829218564464156" lon="115.36728945457341"><ele>158.0</ele><time>2026-04-27T09:14:30Z</time></trkpt><trkpt lat="-33.829222397319434" lon="115.36741698102378"><ele>158.0</ele><time>2026-04-27T09:14:31Z</time></trkpt><trkpt lat="-33.82922388048885" lon="115.36755576272449"><ele>157.75</ele><time>2026-04-27T09:14:32Z</time></trkpt><trkpt lat="-33.82922429639327" lon="115.36769543076527"><ele>157.5</ele><time>2026-04-27T09:14:33Z</time></trkpt><trkpt lat="-33.82922625176622" lon="115.36784353978582"><ele>157.25</ele><time>2026-04-27T09:14:34Z</time></trkpt><trkpt lat="-33.82923031318925" lon="115.36799344331574"><ele>157.0</ele><time>2026-04-27T09:14:35Z</time></trkpt><trkpt lat="-33.82923002842393" lon="115.36814175744271"><ele>157.0</ele><time>2026-04-27T09:14:36Z</time></trkpt><trkpt lat="-33.829230663464664" lon="115.36828625764548"><ele>157.0</ele><time>2026-04-27T09:14:37Z</time></trkpt><trkpt lat="-33.8292343240015" lon="115.36842104795443"><ele>157.0</ele><time>2026-04-27T09:14:38Z</time></trkpt><trkpt lat="-33.82922875617988" lon="115.36856216365436"><ele>157.0</ele><time>2026-04-27T09:14:39Z</time></trkpt><trkpt lat="-33.8292192024525" lon="115.36870922285598"><ele>157.0</ele><time>2026-04-27T09:14:40Z</time></trkpt><trkpt lat="-33.82922464283712" lon="115.36885422610138"><ele>157.0</ele><time>2026-04-27T09:14:41Z</time></trkpt><trkpt lat="-33.829226236560395" lon="115.36899247169187"><ele>157.0</ele><time>2026-04-27T09:14:42Z</time></trkpt><trkpt lat="-33.829223250811104" lon="115.36912613831554"><ele>157.0</ele><time>2026-04-27T09:14:43Z</time></trkpt><trkpt lat="-33.82921758776731" lon="115.36925854749902"><ele>157.5</ele><time>2026-04-27T09:14:44Z</time></trkpt><trkpt lat="-33.82921549642932" lon="115.3693993122817"><ele>158.0</ele><time>2026-04-27T09:14:45Z</time></trkpt><trkpt lat="-33.829212592487025" lon="115.36953944780305"><ele>158.5</ele><time>2026-04-27T09:14:46Z</time></trkpt><trkpt lat="-33.829212968463665" lon="115.36968583389401"><ele>159.0</ele><time>2026-04-27T09:14:47Z</time></trkpt><trkpt lat="-33.829213520886064" lon="115.36983177509897"><ele>159.75</ele><time>2026-04-27T09:14:48Z</time></trkpt><trkpt lat="-33.82921506836875" lon="115.36998008780606"><ele>160.5</ele><time>2026-04-27T09:14:49Z</time></trkpt><trkpt lat="-33.82921586714749" lon="115.37012642150432"><ele>161.25</ele><time>2026-04-27T09:14:50Z</time></trkpt><trkpt lat="-33.82922377227065" lon="115.37027557485162"><ele>162.0</ele><time>2026-04-27T09:14:51Z</time></trkpt><trkpt lat="-33.82923684673409" lon="115.37043368298616"><ele>162.5</ele><time>2026-04-27T09:14:52Z</time></trkpt><trkpt lat="-33.82924834322835" lon="115.37058617780794"><ele>163.0</ele><time>2026-04-27T09:14:53Z</time></trkpt><trkpt lat="-33.829257468119486" lon="115.37074297670411"><ele>163.5</ele><time>2026-04-27T09:14:54Z</time></trkpt><trkpt lat="-33.829256129115926" lon="115.37090066826259"><ele>164.0</ele><time>2026-04-27T09:14:55Z</time></trkpt><trkpt lat="-33.8292482596197" lon="115.3710562649886"><ele>164.0</ele><time>2026-04-27T09:14:56Z</time></trkpt><trkpt lat="-33.829242384462965" lon="115.37119152319201"><ele>164.0</ele><time>2026-04-27T09:14:57Z</time></trkpt><trkpt lat="-33.829243404460875" lon="115.37132664898175"><ele>164.0</ele><time>2026-04-27T09:14:58Z</time></trkpt><trkpt lat="-33.82924788663201" lon="115.37146968654275"><ele>164.0</ele><time>2026-04-27T09:14:59Z</time></trkpt><trkpt lat="-33.82924255090516" lon="115.37162400405005"><ele>164.25</ele><time>2026-04-27T09:15:00Z</time></trkpt><trkpt lat="-33.82923177184168" lon="115.37177659562687"><ele>164.5</ele><time>2026-04-27T09:15:01Z</time></trkpt><trkpt lat="-33.829215452941945" lon="115.3719255853443"><ele>164.75</ele><time>2026-04-27T09:15:02Z</time></trkpt><trkpt lat="-33.829202839361336" lon="115.37207261949267"><ele>165.0</ele><time>2026-04-27T09:15:03Z</time></trkpt><trkpt lat="-33.82919725707516" lon="115.37221197901344"><ele>165.4</ele><time>2026-04-27T09:15:04Z</time></trkpt><trkpt lat="-33.82919633929139" lon="115.37234917352919"><ele>165.8</ele><time>2026-04-27T09:15:05Z</time></trkpt><trkpt lat="-33.82920573697062" lon="115.3724955056085"><ele>166.2</ele><time>2026-04-27T09:15:06Z</time></trkpt><trkpt lat="-33.82921885673107" lon="115.37263005077799"><ele>166.6</ele><time>2026-04-27T09:15:07Z</time></trkpt><trkpt lat="-33.82922497597513" lon="115.37274561856003"><ele>167.0</ele><time>2026-04-27T09:15:08Z</time></trkpt><trkpt lat="-33.829226039251445" lon="115.37283919045541"><ele>167.0</ele><time>2026-04-27T09:15:09Z</time></trkpt><trkpt lat="-33.82922598219294" lon="115.3729151026793"><ele>167.0</ele><time>2026-04-27T09:15:10Z</time></trkpt><trkpt lat="-33.8292085399363" lon="115.37303667161093"><ele>167.0</ele><time>2026-04-27T09:15:12Z</time></trkpt><trkpt lat="-33.82913865540013" lon="115.37310449716497"><ele>167.0</ele><time>2026-04-27T09:15:14Z</time></trkpt><trkpt lat="-33.829012282145875" lon="115.3730930428801"><ele>167.0</ele><time>2026-04-27T09:15:16Z</time></trkpt><trkpt lat="-33.82893298645682" lon="115.37308559543463"><ele>167.0</ele><time>2026-04-27T09:15:17Z</time></trkpt><trkpt lat="-33.82885601768296" lon="115.37307302978235"><ele>167.0</ele><time>2026-04-27T09:15:18Z</time></trkpt><trkpt lat="-33.828776069240845" lon="115.37305125057885"><ele>167.0</ele><time>2026-04-27T09:15:19Z</time></trkpt><trkpt lat="-33.82869171345703" lon="115.37302451180547"><ele>167.0</ele><time>2026-04-27T09:15:20Z</time></trkpt><trkpt lat="-33.828600660149355" lon="115.37301145382276"><ele>167.0</ele><time>2026-04-27T09:15:21Z</time></trkpt><trkpt lat="-33.82851970287105" lon="115.37299222026296"><ele>167.0</ele><time>2026-04-27T09:15:22Z</time></trkpt><trkpt lat="-33.828437687135015" lon="115.37296936665346"><ele>165.2</ele><time>2026-04-27T09:15:23Z</time></trkpt><trkpt lat="-33.828353247701365" lon="115.37293597121494"><ele>163.39999999999998</ele><time>2026-04-27T09:15:24Z</time></trkpt><trkpt lat="-33.82827004678688" lon="115.37291342232794"><ele>161.60000000000002</ele><time>2026-04-27T09:15:25Z</time></trkpt><trkpt lat="-33.82817690750107" lon="115.37289382979948"><ele>159.8</ele><time>2026-04-27T09:15:26Z</time></trkpt><trkpt lat="-33.828073098527774" lon="115.37286751347723"><ele>158.0</ele><time>2026-04-27T09:15:27Z</time></trkpt><trkpt lat="-33.82796059852141" lon="115.3728494613564"><ele>158.0</ele><time>2026-04-27T09:15:28Z</time></trkpt><trkpt lat="-33.82786038870535" lon="115.37282939872061"><ele>158.0</ele><time>2026-04-27T09:15:29Z</time></trkpt><trkpt lat="-33.827765849714744" lon="115.37281530317445"><ele>158.0</ele><time>2026-04-27T09:15:30Z</time></trkpt><trkpt lat="-33.82767576728303" lon="115.3728019859316"><ele>158.0</ele><time>2026-04-27T09:15:31Z</time></trkpt><trkpt lat="-33.827595694882355" lon="115.37278660042287"><ele>158.0</ele><time>2026-04-27T09:15:32Z</time></trkpt><trkpt lat="-33.82747685050196" lon="115.37277069860549"><ele>157.66666666666666</ele><time>2026-04-27T09:15:34Z</time></trkpt><trkpt lat="-33.827389728868674" lon="115.3727410608442"><ele>157.33333333333331</ele><time>2026-04-27T09:15:35Z</time></trkpt><trkpt lat="-33.82730399411898" lon="115.37272811572328"><ele>157.0</ele><time>2026-04-27T09:15:36Z</time></trkpt><trkpt lat="-33.82721693467534" lon="115.37270805316103"><ele>156.66666666666666</ele><time>2026-04-27T09:15:37Z</time></trkpt><trkpt lat="-33.827135359485" lon="115.37267352264023"><ele>156.33333333333334</ele><time>2026-04-27T09:15:38Z</time></trkpt><trkpt lat="-33.82704543047068" lon="115.37264314989766"><ele>156.0</ele><time>2026-04-27T09:15:39Z</time></trkpt><trkpt lat="-33.826948332664195" lon="115.3726201246804"><ele>156.0</ele><time>2026-04-27T09:15:40Z</time></trkpt><trkpt lat="-33.82685261852903" lon="115.37260155168583"><ele>156.0</ele><time>2026-04-27T09:15:41Z</time></trkpt><trkpt lat="-33.82676334369426" lon="115.37259019760475"><ele>156.0</ele><time>2026-04-27T09:15:42Z</time></trkpt><trkpt lat="-33.82668109136002" lon="115.37257678248415"><ele>156.0</ele><time>2026-04-27T09:15:43Z</time></trkpt><trkpt lat="-33.826584681386414" lon="115.37255119962852"><ele>156.0</ele><time>2026-04-27T09:15:44Z</time></trkpt><trkpt lat="-33.826500170098335" lon="115.37254145086594"><ele>156.6</ele><time>2026-04-27T09:15:45Z</time></trkpt><trkpt lat="-33.82641981157567" lon="115.37253243135203"><ele>157.2</ele><time>2026-04-27T09:15:46Z</time></trkpt><trkpt lat="-33.82634327845357" lon="115.3725162329153"><ele>157.8</ele><time>2026-04-27T09:15:47Z</time></trkpt><trkpt lat="-33.82626641994013" lon="115.37250141283884"><ele>158.4</ele><time>2026-04-27T09:15:48Z</time></trkpt><trkpt lat="-33.82616162079318" lon="115.37248076721549"><ele>159.0</ele><time>2026-04-27T09:15:49Z</time></trkpt><trkpt lat="-33.826050754862024" lon="115.37247005924581"><ele>158.8</ele><time>2026-04-27T09:15:50Z</time></trkpt><trkpt lat="-33.82595558255474" lon="115.37245455510089"><ele>158.60000000000002</ele><time>2026-04-27T09:15:51Z</time></trkpt><trkpt lat="-33.82585937625753" lon="115.3724395024307"><ele>158.4</ele><time>2026-04-27T09:15:52Z</time></trkpt><trkpt lat="-33.82575910777718" lon="115.37242172676233"><ele>158.20000000000002</ele><time>2026-04-27T09:15:53Z</time></trkpt><trkpt lat="-33.82566788014887" lon="115.37241216262588"><ele>158.0</ele><time>2026-04-27T09:15:54Z</time></trkpt><trkpt lat="-33.82558176984224" lon="115.372397294651"><ele>158.0</ele><time>2026-04-27T09:15:55Z</time></trkpt><trkpt lat="-33.82548643676934" lon="115.3723869132239"><ele>158.0</ele><time>2026-04-27T09:15:56Z</time></trkpt><trkpt lat="-33.8253965928679" lon="115.37236866573676"><ele>158.0</ele><time>2026-04-27T09:15:57Z</time></trkpt><trkpt lat="-33.8252985441955" lon="115.37233594443434"><ele>158.0</ele><time>2026-04-27T09:15:58Z</time></trkpt><trkpt lat="-33.82519377838891" lon="115.37230568855944"><ele>158.0</ele><time>2026-04-27T09:15:59Z</time></trkpt><trkpt lat="-33.82509146937804" lon="115.37228131659545"><ele>158.0</ele><time>2026-04-27T09:16:00Z</time></trkpt><trkpt lat="-33.82498702158144" lon="115.3722591192697"><ele>158.0</ele><time>2026-04-27T09:16:01Z</time></trkpt><trkpt lat="-33.82489096322372" lon="115.37223293451396"><ele>158.0</ele><time>2026-04-27T09:16:02Z</time></trkpt><trkpt lat="-33.82478397963294" lon="115.37220489590572"><ele>158.0</ele><time>2026-04-27T09:16:03Z</time></trkpt><trkpt lat="-33.82469139549468" lon="115.37218392541686"><ele>158.0</ele><time>2026-04-27T09:16:04Z</time></trkpt><trkpt lat="-33.82459189417649" lon="115.37217181760136"><ele>157.25</ele><time>2026-04-27T09:16:05Z</time></trkpt><trkpt lat="-33.82447908484355" lon="115.37215114169328"><ele>156.5</ele><time>2026-04-27T09:16:06Z</time></trkpt><trkpt lat="-33.824357381286646" lon="115.37210259080163"><ele>155.75</ele><time>2026-04-27T09:16:07Z</time></trkpt><trkpt lat="-33.82423078507593" lon="115.37204542593331"><ele>155.0</ele><time>2026-04-27T09:16:08Z</time></trkpt><trkpt lat="-33.82410499078966" lon="115.37197233467064"><ele>155.0</ele><time>2026-04-27T09:16:09Z</time></trkpt><trkpt lat="-33.82398396901843" lon="115.37189839281478"><ele>155.0</ele><time>2026-04-27T09:16:10Z</time></trkpt><trkpt lat="-33.82388456279557" lon="115.37182999678328"><ele>155.0</ele><time>2026-04-27T09:16:11Z</time></trkpt><trkpt lat="-33.823784603432536" lon="115.37175944233081"><ele>155.0</ele><time>2026-04-27T09:16:12Z</time></trkpt><trkpt lat="-33.82369795659319" lon="115.37170493372085"><ele>155.0</ele><time>2026-04-27T09:16:13Z</time></trkpt><trkpt lat="-33.82360782309256" lon="115.37166000006314"><ele>155.0</ele><time>2026-04-27T09:16:14Z</time></trkpt><trkpt lat="-33.823500960786546" lon="115.37161525024469"><ele>155.0</ele><time>2026-04-27T09:16:15Z</time></trkpt><trkpt lat="-33.82342137120024" lon="115.37156387632652"><ele>155.0</ele><time>2026-04-27T09:16:16Z</time></trkpt><trkpt lat="-33.82334727469363" lon="115.37149437260305"><ele>155.0</ele><time>2026-04-27T09:16:17Z</time></trkpt><trkpt lat="-33.82326438565428" lon="115.37144483236371"><ele>155.25</ele><time>2026-04-27T09:16:18Z</time></trkpt><trkpt lat="-33.8231551282066" lon="115.37139496410306"><ele>155.5</ele><time>2026-04-27T09:16:19Z</time></trkpt><trkpt lat="-33.823046405698" lon="115.37134731240442"><ele>155.75</ele><time>2026-04-27T09:16:20Z</time></trkpt><trkpt lat="-33.82294106539177" lon="115.37128907844279"><ele>156.0</ele><time>2026-04-27T09:16:21Z</time></trkpt><trkpt lat="-33.822835431004414" lon="115.37121321179515"><ele>155.0</ele><time>2026-04-27T09:16:22Z</time></trkpt><trkpt lat="-33.82273531569039" lon="115.37115086857446"><ele>154.0</ele><time>2026-04-27T09:16:23Z</time></trkpt><trkpt lat="-33.82264256107299" lon="115.37109924240141"><ele>153.0</ele><time>2026-04-27T09:16:24Z</time></trkpt><trkpt lat="-33.8225458027472" lon="115.3710450184419"><ele>152.0</ele><time>2026-04-27T09:16:25Z</time></trkpt><trkpt lat="-33.822427053496945" lon="115.37096962508198"><ele>152.0</ele><time>2026-04-27T09:16:26Z</time></trkpt><trkpt lat="-33.82231671550268" lon="115.37092178752219"><ele>152.0</ele><time>2026-04-27T09:16:27Z</time></trkpt><trkpt lat="-33.82222583131731" lon="115.37088429860364"><ele>152.0</ele><time>2026-04-27T09:16:28Z</time></trkpt><trkpt lat="-33.82211998700694" lon="115.37084093494818"><ele>152.0</ele><time>2026-04-27T09:16:29Z</time></trkpt><trkpt lat="-33.82201496387083" lon="115.37076983626231"><ele>152.0</ele><time>2026-04-27T09:16:30Z</time></trkpt><trkpt lat="-33.821917964397436" lon="115.37070085223837"><ele>152.0</ele><time>2026-04-27T09:16:31Z</time></trkpt><trkpt lat="-33.821826788177354" lon="115.37064767866863"><ele>152.0</ele><time>2026-04-27T09:16:32Z</time></trkpt><trkpt lat="-33.82172647750666" lon="115.37061077976374"><ele>152.0</ele><time>2026-04-27T09:16:33Z</time></trkpt><trkpt lat="-33.82162369516061" lon="115.37056446788401"><ele>152.0</ele><time>2026-04-27T09:16:34Z</time></trkpt><trkpt lat="-33.82152821585283" lon="115.37049294968409"><ele>152.0</ele><time>2026-04-27T09:16:35Z</time></trkpt><trkpt lat="-33.82143950908907" lon="115.37042361747527"><ele>152.2</ele><time>2026-04-27T09:16:36Z</time></trkpt><trkpt lat="-33.8213420542775" lon="115.37036305996158"><ele>152.39999999999998</ele><time>2026-04-27T09:16:37Z</time></trkpt><trkpt lat="-33.82124444011188" lon="115.37030612734685"><ele>152.60000000000002</ele><time>2026-04-27T09:16:38Z</time></trkpt><trkpt lat="-33.82115763372208" lon="115.37025694427143"><ele>152.8</ele><time>2026-04-27T09:16:39Z</time></trkpt><trkpt lat="-33.82108288073617" lon="115.3702055936115"><ele>153.0</ele><time>2026-04-27T09:16:40Z</time></trkpt><trkpt lat="-33.82101904769959" lon="115.37015893441517"><ele>153.66666666666666</ele><time>2026-04-27T09:16:41Z</time></trkpt><trkpt lat="-33.82096309435982" lon="115.37012259355801"><ele>154.33333333333334</ele><time>2026-04-27T09:16:42Z</time></trkpt><trkpt lat="-33.82090659008714" lon="115.37007198273676"><ele>155.0</ele><time>2026-04-27T09:16:43Z</time></trkpt><trkpt lat="-33.82085770366872" lon="115.3699892685214"><ele>155.66666666666669</ele><time>2026-04-27T09:16:44Z</time></trkpt><trkpt lat="-33.820809711270044" lon="115.36990041572973"><ele>156.33333333333334</ele><time>2026-04-27T09:16:45Z</time></trkpt><trkpt lat="-33.82074104558355" lon="115.36980141431002"><ele>157.0</ele><time>2026-04-27T09:16:46Z</time></trkpt><trkpt lat="-33.820660283305294" lon="115.36972759226751"><ele>156.25</ele><time>2026-04-27T09:16:47Z</time></trkpt><trkpt lat="-33.82058513596126" lon="115.36962559484296"><ele>155.5</ele><time>2026-04-27T09:16:48Z</time></trkpt><trkpt lat="-33.82046742352974" lon="115.36956692415278"><ele>154.75</ele><time>2026-04-27T09:16:49Z</time></trkpt><trkpt lat="-33.82035283694334" lon="115.36950704324144"><ele>154.0</ele><time>2026-04-27T09:16:50Z</time></trkpt><trkpt lat="-33.82021013979871" lon="115.36945481247483"><ele>154.0</ele><time>2026-04-27T09:16:51Z</time></trkpt><trkpt lat="-33.82006679384598" lon="115.36935768131606"><ele>154.0</ele><time>2026-04-27T09:16:52Z</time></trkpt><trkpt lat="-33.81994891012632" lon="115.36926299444028"><ele>154.0</ele><time>2026-04-27T09:16:53Z</time></trkpt><trkpt lat="-33.81985225488037" lon="115.3691672876204"><ele>154.0</ele><time>2026-04-27T09:16:54Z</time></trkpt><trkpt lat="-33.819751640880355" lon="115.3690454553462"><ele>154.0</ele><time>2026-04-27T09:16:55Z</time></trkpt><trkpt lat="-33.81964522631943" lon="115.36888426371198"><ele>154.0</ele><time>2026-04-27T09:16:56Z</time></trkpt><trkpt lat="-33.81954250637137" lon="115.36870160144153"><ele>154.0</ele><time>2026-04-27T09:16:57Z</time></trkpt><trkpt lat="-33.819456262275835" lon="115.36851933454739"><ele>153.33333333333334</ele><time>2026-04-27T09:16:58Z</time></trkpt><trkpt lat="-33.81938000374631" lon="115.3683309030751"><ele>152.66666666666666</ele><time>2026-04-27T09:16:59Z</time></trkpt><trkpt lat="-33.81931526449997" lon="115.36814837676876"><ele>152.0</ele><time>2026-04-27T09:17:00Z</time></trkpt><trkpt lat="-33.81925346640914" lon="115.36796402407869"><ele>151.33333333333331</ele><time>2026-04-27T09:17:01Z</time></trkpt><trkpt lat="-33.81919409525608" lon="115.36778362769438"><ele>150.66666666666666</ele><time>2026-04-27T09:17:02Z</time></trkpt><trkpt lat="-33.81913412692329" lon="115.3676012004517"><ele>150.0</ele><time>2026-04-27T09:17:03Z</time></trkpt><trkpt lat="-33.8190770679635" lon="115.36743041172221"><ele>150.0</ele><time>2026-04-27T09:17:04Z</time></trkpt><trkpt lat="-33.81901811739447" lon="115.36724873526155"><ele>150.0</ele><time>2026-04-27T09:17:05Z</time></trkpt><trkpt lat="-33.81896144220093" lon="115.36707250534809"><ele>150.0</ele><time>2026-04-27T09:17:06Z</time></trkpt><trkpt lat="-33.81890225929724" lon="115.36688796612736"><ele>150.33333333333334</ele><time>2026-04-27T09:17:07Z</time></trkpt><trkpt lat="-33.81884585381356" lon="115.36670985075742"><ele>150.66666666666669</ele><time>2026-04-27T09:17:08Z</time></trkpt><trkpt lat="-33.818790339502286" lon="115.36653468903684"><ele>151.0</ele><time>2026-04-27T09:17:09Z</time></trkpt><trkpt lat="-33.818734721620054" lon="115.36636017327021"><ele>152.0</ele><time>2026-04-27T09:17:10Z</time></trkpt><trkpt lat="-33.81867948998143" lon="115.36618923843734"><ele>153.0</ele><time>2026-04-27T09:17:11Z</time></trkpt><trkpt lat="-33.81862444330853" lon="115.36601934405795"><ele>154.0</ele><time>2026-04-27T09:17:12Z</time></trkpt><trkpt lat="-33.81856775573581" lon="115.36585062994205"><ele>154.0</ele><time>2026-04-27T09:17:13Z</time></trkpt><trkpt lat="-33.818507969550424" lon="115.36567231872252"><ele>154.0</ele><time>2026-04-27T09:17:14Z</time></trkpt><trkpt lat="-33.81844816399542" lon="115.36549498297354"><ele>154.0</ele><time>2026-04-27T09:17:15Z</time></trkpt><trkpt lat="-33.81838787783091" lon="115.36531749256451"><ele>153.66666666666669</ele><time>2026-04-27T09:17:16Z</time></trkpt><trkpt lat="-33.81833006984204" lon="115.36514496035305"><ele>153.33333333333334</ele><time>2026-04-27T09:17:17Z</time></trkpt><trkpt lat="-33.81827166031779" lon="115.3649699027413"><ele>153.0</ele><time>2026-04-27T09:17:18Z</time></trkpt><trkpt lat="-33.81821549621941" lon="115.36479708964906"><ele>152.66666666666666</ele><time>2026-04-27T09:17:19Z</time></trkpt><trkpt lat="-33.81815953255519" lon="115.36462530070337"><ele>152.33333333333331</ele><time>2026-04-27T09:17:20Z</time></trkpt><trkpt lat="-33.818102050811454" lon="115.36445033216508"><ele>152.0</ele><time>2026-04-27T09:17:21Z</time></trkpt><trkpt lat="-33.81804701917318" lon="115.36427849004015"><ele>152.0</ele><time>2026-04-27T09:17:22Z</time></trkpt><trkpt lat="-33.817992077897024" lon="115.3641075111323"><ele>152.0</ele><time>2026-04-27T09:17:23Z</time></trkpt><trkpt lat="-33.81793575020237" lon="115.36393198355952"><ele>152.0</ele><time>2026-04-27T09:17:24Z</time></trkpt><trkpt lat="-33.81787979354276" lon="115.36375761220158"><ele>152.33333333333331</ele><time>2026-04-27T09:17:25Z</time></trkpt><trkpt lat="-33.81782623107522" lon="115.3635867290201"><ele>152.66666666666666</ele><time>2026-04-27T09:17:26Z</time></trkpt><trkpt lat="-33.81777155736455" lon="115.3634128619469"><ele>153.0</ele><time>2026-04-27T09:17:27Z</time></trkpt><trkpt lat="-33.8177180488589" lon="115.36324061774789"><ele>153.0</ele><time>2026-04-27T09:17:28Z</time></trkpt><trkpt lat="-33.81766367352065" lon="115.36306566427695"><ele>153.0</ele><time>2026-04-27T09:17:29Z</time></trkpt><trkpt lat="-33.8176085263648" lon="115.36289017741197"><ele>153.0</ele><time>2026-04-27T09:17:30Z</time></trkpt><trkpt lat="-33.81755288482889" lon="115.362712455525"><ele>152.66666666666666</ele><time>2026-04-27T09:17:31Z</time></trkpt><trkpt lat="-33.817497293743024" lon="115.36253375495347"><ele>152.33333333333331</ele><time>2026-04-27T09:17:32Z</time></trkpt><trkpt lat="-33.81744047220012" lon="115.36234888359876"><ele>152.0</ele><time>2026-04-27T09:17:33Z</time></trkpt><trkpt lat="-33.817384101066395" lon="115.36216330599055"><ele>151.66666666666666</ele><time>2026-04-27T09:17:34Z</time></trkpt><trkpt lat="-33.817324361698496" lon="115.36197444405153"><ele>151.33333333333334</ele><time>2026-04-27T09:17:35Z</time></trkpt><trkpt lat="-33.81726238636737" lon="115.36178489237663"><ele>151.0</ele><time>2026-04-27T09:17:36Z</time></trkpt><trkpt lat="-33.81719773089819" lon="115.36159619756596"><ele>151.0</ele><time>2026-04-27T09:17:37Z</time></trkpt><trkpt lat="-33.817131409354936" lon="115.36141375176828"><ele>151.0</ele><time>2026-04-27T09:17:38Z</time></trkpt><trkpt lat="-33.817060861534195" lon="115.36123588280185"><ele>151.0</ele><time>2026-04-27T09:17:39Z</time></trkpt><trkpt lat="-33.81698863192322" lon="115.36106237149069"><ele>150.66666666666669</ele><time>2026-04-27T09:17:40Z</time></trkpt><trkpt lat="-33.81691377271059" lon="115.36088967716556"><ele>150.33333333333334</ele><time>2026-04-27T09:17:41Z</time></trkpt><trkpt lat="-33.816836330906185" lon="115.3607171141485"><ele>150.0</ele><time>2026-04-27T09:17:42Z</time></trkpt><trkpt lat="-33.81675711607398" lon="115.36054150949481"><ele>147.33333333333334</ele><time>2026-04-27T09:17:43Z</time></trkpt><trkpt lat="-33.81667842629646" lon="115.36036709774517"><ele>144.66666666666669</ele><time>2026-04-27T09:17:44Z</time></trkpt><trkpt lat="-33.816598388682955" lon="115.36019098216241"><ele>142.0</ele><time>2026-04-27T09:17:45Z</time></trkpt><trkpt lat="-33.81651938905535" lon="115.36001748050701"><ele>142.0</ele><time>2026-04-27T09:17:46Z</time></trkpt><trkpt lat="-33.81643879284728" lon="115.35984370734847"><ele>142.0</ele><time>2026-04-27T09:17:47Z</time></trkpt><trkpt lat="-33.81635656570653" lon="115.35966874165902"><ele>142.0</ele><time>2026-04-27T09:17:48Z</time></trkpt><trkpt lat="-33.81627719011414" lon="115.35949726167706"><ele>141.66666666666669</ele><time>2026-04-27T09:17:49Z</time></trkpt><trkpt lat="-33.81619810139828" lon="115.35932580916618"><ele>141.33333333333334</ele><time>2026-04-27T09:17:50Z</time></trkpt><trkpt lat="-33.81612119256204" lon="115.35915373580876"><ele>141.0</ele><time>2026-04-27T09:17:51Z</time></trkpt><trkpt lat="-33.816046439744746" lon="115.35898529502032"><ele>140.66666666666666</ele><time>2026-04-27T09:17:52Z</time></trkpt><trkpt lat="-33.81595553071295" lon="115.35882587203699"><ele>140.33333333333331</ele><time>2026-04-27T09:17:53Z</time></trkpt><trkpt lat="-33.81588155939844" lon="115.35866201563317"><ele>140.0</ele><time>2026-04-27T09:17:54Z</time></trkpt><trkpt lat="-33.81580253060359" lon="115.35850727706985"><ele>140.0</ele><time>2026-04-27T09:17:55Z</time></trkpt><trkpt lat="-33.81573680983331" lon="115.35834530060589"><ele>140.0</ele><time>2026-04-27T09:17:56Z</time></trkpt><trkpt lat="-33.81565188183052" lon="115.35819617366249"><ele>140.0</ele><time>2026-04-27T09:17:57Z</time></trkpt><trkpt lat="-33.815553645848475" lon="115.35805941783907"><ele>141.66666666666666</ele><time>2026-04-27T09:17:58Z</time></trkpt><trkpt lat="-33.81543044275761" lon="115.35795003354963"><ele>143.33333333333334</ele><time>2026-04-27T09:17:59Z</time></trkpt><trkpt lat="-33.81532073185392" lon="115.35782291816969"><ele>145.0</ele><time>2026-04-27T09:18:00Z</time></trkpt><trkpt lat="-33.81519681991718" lon="115.35771559667016"><ele>144.33333333333334</ele><time>2026-04-27T09:18:01Z</time></trkpt><trkpt lat="-33.815069165320374" lon="115.35760474975282"><ele>143.66666666666666</ele><time>2026-04-27T09:18:02Z</time></trkpt><trkpt lat="-33.814937200507" lon="115.35749317813591"><ele>143.0</ele><time>2026-04-27T09:18:03Z</time></trkpt><trkpt lat="-33.81480241878845" lon="115.35737993389036"><ele>143.0</ele><time>2026-04-27T09:18:04Z</time></trkpt><trkpt lat="-33.8146680995833" lon="115.35726904697667"><ele>143.0</ele><time>2026-04-27T09:18:05Z</time></trkpt><trkpt lat="-33.81454210657716" lon="115.35716406394528"><ele>143.0</ele><time>2026-04-27T09:18:06Z</time></trkpt><trkpt lat="-33.81441705377685" lon="115.35705807358339"><ele>142.0</ele><time>2026-04-27T09:18:07Z</time></trkpt><trkpt lat="-33.81428999300622" lon="115.35694748163733"><ele>141.0</ele><time>2026-04-27T09:18:08Z</time></trkpt><trkpt lat="-33.814163989741836" lon="115.35683695408278"><ele>140.0</ele><time>2026-04-27T09:18:09Z</time></trkpt><trkpt lat="-33.81403942219589" lon="115.3567279236362"><ele>140.0</ele><time>2026-04-27T09:18:10Z</time></trkpt><trkpt lat="-33.81391501374437" lon="115.35661791591967"><ele>140.0</ele><time>2026-04-27T09:18:11Z</time></trkpt><trkpt lat="-33.81379096313568" lon="115.35650822461167"><ele>140.0</ele><time>2026-04-27T09:18:12Z</time></trkpt><trkpt lat="-33.8136654126579" lon="115.35640002021033"><ele>139.33333333333331</ele><time>2026-04-27T09:18:13Z</time></trkpt><trkpt lat="-33.813540481172055" lon="115.35629156848788"><ele>138.66666666666666</ele><time>2026-04-27T09:18:14Z</time></trkpt><trkpt lat="-33.81341534548006" lon="115.35618518619472"><ele>138.0</ele><time>2026-04-27T09:18:15Z</time></trkpt><trkpt lat="-33.81328890606604" lon="115.35608005056409"><ele>138.0</ele><time>2026-04-27T09:18:16Z</time></trkpt><trkpt lat="-33.81316084505223" lon="115.35597406967779"><ele>138.0</ele><time>2026-04-27T09:18:17Z</time></trkpt><trkpt lat="-33.81303177660595" lon="115.35586760718601"><ele>138.0</ele><time>2026-04-27T09:18:18Z</time></trkpt><trkpt lat="-33.812902003004616" lon="115.3557600432751"><ele>138.0</ele><time>2026-04-27T09:18:19Z</time></trkpt><trkpt lat="-33.812776122557025" lon="115.35565334930386"><ele>138.0</ele><time>2026-04-27T09:18:20Z</time></trkpt><trkpt lat="-33.81265010478661" lon="115.35554578964252"><ele>138.0</ele><time>2026-04-27T09:18:21Z</time></trkpt><trkpt lat="-33.81252751770163" lon="115.35543911420703"><ele>137.33333333333334</ele><time>2026-04-27T09:18:22Z</time></trkpt><trkpt lat="-33.812400032039974" lon="115.35533355879998"><ele>136.66666666666669</ele><time>2026-04-27T09:18:23Z</time></trkpt><trkpt lat="-33.812270749275115" lon="115.35523337035725"><ele>136.0</ele><time>2026-04-27T09:18:24Z</time></trkpt><trkpt lat="-33.81214127096239" lon="115.3551395170157"><ele>136.0</ele><time>2026-04-27T09:18:25Z</time></trkpt><trkpt lat="-33.812011714892606" lon="115.35504854781502"><ele>136.0</ele><time>2026-04-27T09:18:26Z</time></trkpt><trkpt lat="-33.811884587179975" lon="115.35495307614545"><ele>136.0</ele><time>2026-04-27T09:18:27Z</time></trkpt><trkpt lat="-33.81175356400141" lon="115.35485421416821"><ele>136.33333333333334</ele><time>2026-04-27T09:18:28Z</time></trkpt><trkpt lat="-33.81161999813528" lon="115.35475153213335"><ele>136.66666666666666</ele><time>2026-04-27T09:18:29Z</time></trkpt><trkpt lat="-33.81148965059955" lon="115.35465042475188"><ele>137.0</ele><time>2026-04-27T09:18:30Z</time></trkpt><trkpt lat="-33.81134916947724" lon="115.35456303710323"><ele>137.0</ele><time>2026-04-27T09:18:31Z</time></trkpt><trkpt lat="-33.81122102805682" lon="115.35445711733973"><ele>137.0</ele><time>2026-04-27T09:18:32Z</time></trkpt><trkpt lat="-33.811087013896305" lon="115.3543483152192"><ele>137.0</ele><time>2026-04-27T09:18:33Z</time></trkpt><trkpt lat="-33.81095214134613" lon="115.35424480937846"><ele>137.0</ele><time>2026-04-27T09:18:34Z</time></trkpt><trkpt lat="-33.81082609690542" lon="115.35412158402202"><ele>137.0</ele><time>2026-04-27T09:18:35Z</time></trkpt><trkpt lat="-33.81069368677868" lon="115.3540153334628"><ele>137.0</ele><time>2026-04-27T09:18:36Z</time></trkpt><trkpt lat="-33.810564372534934" lon="115.35391113007724"><ele>136.66666666666666</ele><time>2026-04-27T09:18:37Z</time></trkpt><trkpt lat="-33.81043360932083" lon="115.35380577276923"><ele>136.33333333333334</ele><time>2026-04-27T09:18:38Z</time></trkpt><trkpt lat="-33.81030202268608" lon="115.35370004495915"><ele>136.0</ele><time>2026-04-27T09:18:39Z</time></trkpt><trkpt lat="-33.81017137045214" lon="115.35359541690386"><ele>137.66666666666669</ele><time>2026-04-27T09:18:40Z</time></trkpt><trkpt lat="-33.81004238348227" lon="115.35349155376562"><ele>139.33333333333334</ele><time>2026-04-27T09:18:41Z</time></trkpt><trkpt lat="-33.80991600727162" lon="115.35338600190745"><ele>141.0</ele><time>2026-04-27T09:18:42Z</time></trkpt><trkpt lat="-33.809792556323984" lon="115.35328042116407"><ele>141.0</ele><time>2026-04-27T09:18:43Z</time></trkpt><trkpt lat="-33.809660517511844" lon="115.35318699168116"><ele>141.0</ele><time>2026-04-27T09:18:44Z</time></trkpt><trkpt lat="-33.80954019725886" lon="115.35307424999372"><ele>141.0</ele><time>2026-04-27T09:18:45Z</time></trkpt><trkpt lat="-33.80941928929413" lon="115.35295957983364"><ele>140.75</ele><time>2026-04-27T09:18:46Z</time></trkpt><trkpt lat="-33.80929911400735" lon="115.35285030861607"><ele>140.5</ele><time>2026-04-27T09:18:47Z</time></trkpt><trkpt lat="-33.809179004395" lon="115.35274691320049"><ele>140.25</ele><time>2026-04-27T09:18:48Z</time></trkpt><trkpt lat="-33.809069093623066" lon="115.35262383194296"><ele>140.0</ele><time>2026-04-27T09:18:49Z</time></trkpt><trkpt lat="-33.80894578843875" lon="115.35250712984035"><ele>140.0</ele><time>2026-04-27T09:18:50Z</time></trkpt><trkpt lat="-33.808832290397476" lon="115.35239878285958"><ele>140.0</ele><time>2026-04-27T09:18:51Z</time></trkpt><trkpt lat="-33.80871723321695" lon="115.35229258070616"><ele>140.0</ele><time>2026-04-27T09:18:52Z</time></trkpt><trkpt lat="-33.80860406932578" lon="115.35219918861706"><ele>140.0</ele><time>2026-04-27T09:18:53Z</time></trkpt><trkpt lat="-33.8084952589614" lon="115.35211934115092"><ele>140.4</ele><time>2026-04-27T09:18:54Z</time></trkpt><trkpt lat="-33.80836968746956" lon="115.35205780738954"><ele>140.8</ele><time>2026-04-27T09:18:55Z</time></trkpt><trkpt lat="-33.80826558676253" lon="115.35200363442196"><ele>141.2</ele><time>2026-04-27T09:18:56Z</time></trkpt><trkpt lat="-33.80817207399757" lon="115.35196268246884"><ele>141.6</ele><time>2026-04-27T09:18:57Z</time></trkpt><trkpt lat="-33.808088849399304" lon="115.3519255992179"><ele>142.0</ele><time>2026-04-27T09:18:58Z</time></trkpt><trkpt lat="-33.80802297493931" lon="115.3519061394658"><ele>142.0</ele><time>2026-04-27T09:18:59Z</time></trkpt><trkpt lat="-33.80793493749668" lon="115.3518787009058"><ele>142.0</ele><time>2026-04-27T09:19:01Z</time></trkpt><trkpt lat="-33.8078828244099" lon="115.35182030100103"><ele>142.0</ele><time>2026-04-27T09:19:05Z</time></trkpt><trkpt lat="-33.80789152971793" lon="115.35167953825086"><ele>142.0</ele><time>2026-04-27T09:19:06Z</time></trkpt><trkpt lat="-33.807892066902696" lon="115.35156131595673"><ele>142.0</ele><time>2026-04-27T09:19:08Z</time></trkpt><trkpt lat="-33.80789693666283" lon="115.3514760928902"><ele>142.0</ele><time>2026-04-27T09:19:09Z</time></trkpt><trkpt lat="-33.80788998143521" lon="115.35138937010946"><ele>141.6</ele><time>2026-04-27T09:19:10Z</time></trkpt><trkpt lat="-33.80788815865581" lon="115.3512901686921"><ele>141.2</ele><time>2026-04-27T09:19:11Z</time></trkpt><trkpt lat="-33.80789695589086" lon="115.35116483071157"><ele>140.8</ele><time>2026-04-27T09:19:12Z</time></trkpt><trkpt lat="-33.80789836151172" lon="115.35102303346025"><ele>140.4</ele><time>2026-04-27T09:19:13Z</time></trkpt><trkpt lat="-33.8078949240827" lon="115.3508582073366"><ele>140.0</ele><time>2026-04-27T09:19:14Z</time></trkpt><trkpt lat="-33.807887428084655" lon="115.35069851156409"><ele>139.0</ele><time>2026-04-27T09:19:15Z</time></trkpt><trkpt lat="-33.80790431302979" lon="115.35053598818388"><ele>138.0</ele><time>2026-04-27T09:19:16Z</time></trkpt><trkpt lat="-33.807908268211065" lon="115.35035359967353"><ele>137.0</ele><time>2026-04-27T09:19:17Z</time></trkpt><trkpt lat="-33.80791034600132" lon="115.35015357558378"><ele>137.0</ele><time>2026-04-27T09:19:18Z</time></trkpt><trkpt lat="-33.80790060852787" lon="115.34995500650918"><ele>137.0</ele><time>2026-04-27T09:19:19Z</time></trkpt><trkpt lat="-33.807902942501144" lon="115.34976490252696"><ele>137.0</ele><time>2026-04-27T09:19:20Z</time></trkpt><trkpt lat="-33.80790231621854" lon="115.34957264022549"><ele>135.66666666666666</ele><time>2026-04-27T09:19:21Z</time></trkpt><trkpt lat="-33.80790224674848" lon="115.34935798269716"><ele>134.33333333333334</ele><time>2026-04-27T09:19:22Z</time></trkpt><trkpt lat="-33.807905089221656" lon="115.34912175156286"><ele>133.0</ele><time>2026-04-27T09:19:23Z</time></trkpt><trkpt lat="-33.80790708098361" lon="115.34891257555908"><ele>132.0</ele><time>2026-04-27T09:19:24Z</time></trkpt><trkpt lat="-33.80790682311289" lon="115.34873403927294"><ele>131.0</ele><time>2026-04-27T09:19:25Z</time></trkpt><trkpt lat="-33.80790913918477" lon="115.3485713301122"><ele>130.0</ele><time>2026-04-27T09:19:26Z</time></trkpt><trkpt lat="-33.80791174327864" lon="115.34841929655353"><ele>129.0</ele><time>2026-04-27T09:19:27Z</time></trkpt><trkpt lat="-33.80790724236693" lon="115.34827572581347"><ele>129.0</ele><time>2026-04-27T09:19:28Z</time></trkpt><trkpt lat="-33.80789538153374" lon="115.34813731044846"><ele>129.0</ele><time>2026-04-27T09:19:29Z</time></trkpt><trkpt lat="-33.80789279758976" lon="115.34800626709526"><ele>129.0</ele><time>2026-04-27T09:19:30Z</time></trkpt><trkpt lat="-33.80785044331073" lon="115.34789238145922"><ele>129.0</ele><time>2026-04-27T09:19:31Z</time></trkpt><trkpt lat="-33.8077556284418" lon="115.34783358184953"><ele>129.0</ele><time>2026-04-27T09:19:32Z</time></trkpt><trkpt lat="-33.80767764603733" lon="115.34779343437701"><ele>129.0</ele><time>2026-04-27T09:19:33Z</time></trkpt><trkpt lat="-33.807600305472846" lon="115.34777115712944"><ele>129.0</ele><time>2026-04-27T09:19:34Z</time></trkpt><trkpt lat="-33.8075292983064" lon="115.3477636108014"><ele>129.0</ele><time>2026-04-27T09:19:35Z</time></trkpt><trkpt lat="-33.80744808810191" lon="115.3477415764062"><ele>129.0</ele><time>2026-04-27T09:19:36Z</time></trkpt><trkpt lat="-33.807371290046554" lon="115.34768372796447"><ele>129.0</ele><time>2026-04-27T09:19:37Z</time></trkpt><trkpt lat="-33.807290442038514" lon="115.34764205696588"><ele>129.0</ele><time>2026-04-27T09:19:38Z</time></trkpt><trkpt lat="-33.80722426702315" lon="115.34760445160668"><ele>129.0</ele><time>2026-04-27T09:19:39Z</time></trkpt><trkpt lat="-33.80716197219081" lon="115.3475666100154"><ele>129.0</ele><time>2026-04-27T09:19:40Z</time></trkpt><trkpt lat="-33.80710600286553" lon="115.34753094800261"><ele>129.0</ele><time>2026-04-27T09:19:41Z</time></trkpt><trkpt lat="-33.80703483155783" lon="115.34748114911982"><ele>129.0</ele><time>2026-04-27T09:19:42Z</time></trkpt><trkpt lat="-33.806950441899914" lon="115.34740899295379"><ele>129.0</ele><time>2026-04-27T09:19:43Z</time></trkpt><trkpt lat="-33.8068628506404" lon="115.34733936160127"><ele>129.0</ele><time>2026-04-27T09:19:44Z</time></trkpt><trkpt lat="-33.80676385741824" lon="115.34730792791264"><ele>129.0</ele><time>2026-04-27T09:19:45Z</time></trkpt><trkpt lat="-33.806681073618385" lon="115.34725278937515"><ele>129.0</ele><time>2026-04-27T09:19:46Z</time></trkpt><trkpt lat="-33.8066160381514" lon="115.34719583218534"><ele>129.0</ele><time>2026-04-27T09:19:47Z</time></trkpt><trkpt lat="-33.80655219396781" lon="115.34709154363996"><ele>129.0</ele><time>2026-04-27T09:19:49Z</time></trkpt><trkpt lat="-33.80653634325855" lon="115.34693355752907"><ele>129.0</ele><time>2026-04-27T09:19:51Z</time></trkpt><trkpt lat="-33.80652559731957" lon="115.34685258831169"><ele>129.0</ele><time>2026-04-27T09:19:52Z</time></trkpt><trkpt lat="-33.806510561003975" lon="115.34671773541675"><ele>129.0</ele><time>2026-04-27T09:19:54Z</time></trkpt><trkpt lat="-33.80650177184377" lon="115.34661233738542"><ele>129.0</ele><time>2026-04-27T09:19:56Z</time></trkpt><trkpt lat="-33.806493989364675" lon="115.34652021668893"><ele>129.0</ele><time>2026-04-27T09:20:00Z</time></trkpt><trkpt lat="-33.80653587159465" lon="115.34646310097907"><ele>129.0</ele><time>2026-04-27T09:22:08Z</time></trkpt><trkpt lat="-33.80654601273547" lon="115.34654422677096"><ele>129.0</ele><time>2026-04-27T09:36:46Z</time></trkpt><trkpt lat="-33.806604199812966" lon="115.3465867711567"><ele>129.0</ele><time>2026-04-27T09:36:53Z</time></trkpt><trkpt lat="-33.8066478492426" lon="115.34665428153684"><ele>129.0</ele><time>2026-04-27T09:36:59Z</time></trkpt><trkpt lat="-33.806679329773246" lon="115.3467248920617"><ele>129.0</ele><time>2026-04-27T09:37:16Z</time></trkpt><trkpt lat="-33.80665345251071" lon="115.34664811794"><ele>129.0</ele><time>2026-04-27T09:38:39Z</time></trkpt><trkpt lat="-33.8066602617969" lon="115.34673258268441"><ele>129.0</ele><time>2026-04-27T09:40:59Z</time></trkpt><trkpt lat="-33.80666308256971" lon="115.34681851778673"><ele>129.0</ele><time>2026-04-27T09:41:04Z</time></trkpt><trkpt lat="-33.80667261520514" lon="115.34689867502469"><ele>129.0</ele><time>2026-04-27T09:41:13Z</time></trkpt></trkseg><trkseg><trkpt lat="-33.80675126301869" lon="115.3468970583545"><ele>128.99999999999997</ele><time>2026-05-01T23:11:40.5Z</time></trkpt><trkpt lat="-33.806689670039454" lon="115.34692867230223"><ele>129.0</ele><time>2026-05-01T23:13:37Z</time></trkpt><trkpt lat="-33.80672735520069" lon="115.34686453602582"><ele>129.0</ele><time>2026-05-01T23:14:10Z</time></trkpt><trkpt lat="-33.806669666704195" lon="115.34681333177686"><ele>129.0</ele><time>2026-05-01T23:17:37Z</time></trkpt><trkpt lat="-33.80666246478511" lon="115.34690005326259"><ele>129.0</ele><time>2026-05-01T23:18:04Z</time></trkpt><trkpt lat="-33.806700947195644" lon="115.34683720028936"><ele>128.99999999999997</ele><time>2026-05-01T23:19:13Z</time></trkpt><trkpt lat="-33.80663650391947" lon="115.34685755898683"><ele>129.0</ele><time>2026-05-01T23:20:27Z</time></trkpt><trkpt lat="-33.80675800341421" lon="115.3468630708549"><ele>128.99999999999997</ele><time>2026-05-01T23:20:53.522Z</time></trkpt><trkpt lat="-33.80669005690401" lon="115.34690545768477"><ele>129.0</ele><time>2026-05-01T23:21:02.8Z</time></trkpt><trkpt lat="-33.8066453544648" lon="115.3469733098624"><ele>129.0</ele><time>2026-05-02T00:54:41Z</time></trkpt><trkpt lat="-33.8066916374364" lon="115.34689035844377"><ele>129.0</ele><time>2026-05-02T00:54:47Z</time></trkpt><trkpt lat="-33.80660791212963" lon="115.34689285470952"><ele>129.0</ele><time>2026-05-02T00:55:59Z</time></trkpt><trkpt lat="-33.80667446314299" lon="115.34688787091832"><ele>128.99999999999997</ele><time>2026-05-02T00:56:18Z</time></trkpt><trkpt lat="-33.80671968672618" lon="115.34682819973166"><ele>129.0</ele><time>2026-05-02T00:56:33Z</time></trkpt><trkpt lat="-33.80669581314347" lon="115.34675078124613"><ele>128.99999999999997</ele><time>2026-05-02T00:56:37Z</time></trkpt><trkpt lat="-33.80663962544783" lon="115.34666787055481"><ele>129.0</ele><time>2026-05-02T00:57:07Z</time></trkpt><trkpt lat="-33.80662255886226" lon="115.34674531850506"><ele>129.0</ele><time>2026-05-02T00:58:22Z</time></trkpt><trkpt lat="-33.80661201016016" lon="115.34666166020817"><ele>129.0</ele><time>2026-05-02T00:58:47Z</time></trkpt><trkpt lat="-33.80658422599915" lon="115.34657881187839"><ele>129.0</ele><time>2026-05-02T00:58:53Z</time></trkpt><trkpt lat="-33.806557511567284" lon="115.34650656542492"><ele>128.99999999999997</ele><time>2026-05-02T00:59:00Z</time></trkpt><trkpt lat="-33.806568941207665" lon="115.34658778997672"><ele>129.0</ele><time>2026-05-02T00:59:14Z</time></trkpt><trkpt lat="-33.80660414626915" lon="115.34665700638163"><ele>128.99999999999997</ele><time>2026-05-02T00:59:21Z</time></trkpt><trkpt lat="-33.806579482124505" lon="115.34657652751326"><ele>129.0</ele><time>2026-05-02T00:59:41Z</time></trkpt><trkpt lat="-33.80655829587138" lon="115.34650230634638"><ele>129.0</ele><time>2026-05-02T00:59:49Z</time></trkpt><trkpt lat="-33.80652949770918" lon="115.34641137207"><ele>129.0</ele><time>2026-05-02T01:00:20Z</time></trkpt><trkpt lat="-33.806568473068225" lon="115.34647213674184"><ele>129.0</ele><time>2026-05-02T01:00:57Z</time></trkpt><trkpt lat="-33.806634618942816" lon="115.34651956979472"><ele>128.99999999999997</ele><time>2026-05-02T01:01:01Z</time></trkpt><trkpt lat="-33.80666824789138" lon="115.34660165750972"><ele>129.0</ele><time>2026-05-02T01:01:04Z</time></trkpt><trkpt lat="-33.80673922690436" lon="115.34664238810396"><ele>129.0</ele><time>2026-05-02T01:02:18.226Z</time></trkpt><trkpt lat="-33.80657776161295" lon="115.34664241319116"><ele>129.0</ele><time>2026-05-02T01:02:32.35Z</time></trkpt><trkpt lat="-33.80660171956765" lon="115.34657220086763"><ele>129.0</ele><time>2026-05-02T01:03:27.288Z</time></trkpt><trkpt lat="-33.806626436823905" lon="115.34649998879489"><ele>129.0</ele><time>2026-05-02T01:04:02Z</time></trkpt><trkpt lat="-33.80663499219077" lon="115.34641392627535"><ele>129.0</ele><time>2026-05-02T01:07:41Z</time></trkpt><trkpt lat="-33.806586496902845" lon="115.34647937037177"><ele>129.0</ele><time>2026-05-02T01:07:55Z</time></trkpt><trkpt lat="-33.80653089562948" lon="115.34651710799207"><ele>129.0</ele><time>2026-05-02T01:07:58Z</time></trkpt><trkpt lat="-33.80663747808882" lon="115.34670300737615"><ele>129.0</ele><time>2026-05-02T01:09:01.45Z</time></trkpt><trkpt lat="-33.806650838045925" lon="115.34682208005096"><ele>129.0</ele><time>2026-05-02T01:09:11.46Z</time></trkpt><trkpt lat="-33.8065043268921" lon="115.34648200360273"><ele>129.0</ele><time>2026-05-02T01:10:44.4Z</time></trkpt><trkpt lat="-33.8066007346517" lon="115.34647089714495"><ele>129.0</ele><time>2026-05-02T01:12:10Z</time></trkpt><trkpt lat="-33.806591270847406" lon="115.3463906239887"><ele>129.0</ele><time>2026-05-02T01:12:15Z</time></trkpt><trkpt lat="-33.806650651370866" lon="115.34646516799722"><ele>129.0</ele><time>2026-05-02T01:12:22Z</time></trkpt><trkpt lat="-33.806630574383504" lon="115.34654025838866"><ele>129.0</ele><time>2026-05-02T01:13:06Z</time></trkpt><trkpt lat="-33.8066667548981" lon="115.34637657861421"><ele>129.0</ele><time>2026-05-02T01:14:36Z</time></trkpt><trkpt lat="-33.80660835245002" lon="115.3464224745338"><ele>129.0</ele><time>2026-05-02T01:15:07.825Z</time></trkpt><trkpt lat="-33.80653750178968" lon="115.34645547160181"><ele>129.0</ele><time>2026-05-02T01:15:11.624Z</time></trkpt><trkpt lat="-33.8064922205525" lon="115.34654289717776"><ele>129.0</ele><time>2026-05-02T01:15:31Z</time></trkpt><trkpt lat="-33.80630280521162" lon="115.3464623412309"><ele>129.0</ele><time>2026-05-02T01:15:32Z</time></trkpt><trkpt lat="-33.806375528173376" lon="115.34647192467585"><ele>129.0</ele><time>2026-05-02T01:15:33Z</time></trkpt><trkpt lat="-33.80649553099378" lon="115.34650541773708"><ele>129.0</ele><time>2026-05-02T01:15:39Z</time></trkpt><trkpt lat="-33.806555326617186" lon="115.3465389147631"><ele>129.0</ele><time>2026-05-02T01:15:42Z</time></trkpt><trkpt lat="-33.80658553945943" lon="115.34660976523209"><ele>129.0</ele><time>2026-05-02T01:16:21Z</time></trkpt><trkpt lat="-33.80661365745649" lon="115.34668061657058"><ele>129.0</ele><time>2026-05-02T01:16:27Z</time></trkpt><trkpt lat="-33.80658119555936" lon="115.34660781423925"><ele>129.0</ele><time>2026-05-02T01:17:02Z</time></trkpt><trkpt lat="-33.80661355867842" lon="115.34668644506833"><ele>128.99999999999997</ele><time>2026-05-02T01:17:38Z</time></trkpt><trkpt lat="-33.80662614885378" lon="115.34676126379473"><ele>129.0</ele><time>2026-05-02T01:17:58Z</time></trkpt><trkpt lat="-33.806648464035646" lon="115.34684288280367"><ele>129.0</ele><time>2026-05-02T01:18:04Z</time></trkpt><trkpt lat="-33.80663586764358" lon="115.34676665303499"><ele>129.0</ele><time>2026-05-02T01:18:22Z</time></trkpt><trkpt lat="-33.80669288475329" lon="115.3467267310727"><ele>129.0</ele><time>2026-05-02T01:18:30Z</time></trkpt><trkpt lat="-33.806702651248536" lon="115.34682152360205"><ele>128.99999999999997</ele><time>2026-05-02T01:18:39Z</time></trkpt><trkpt lat="-33.80663045074667" lon="115.34679717276082"><ele>129.0</ele><time>2026-05-02T01:18:54Z</time></trkpt><trkpt lat="-33.806584879480035" lon="115.34684995506936"><ele>128.99999999999997</ele><time>2026-05-02T01:19:03Z</time></trkpt><trkpt lat="-33.80662846592009" lon="115.34679367746114"><ele>129.0</ele><time>2026-05-02T01:19:17Z</time></trkpt><trkpt lat="-33.806609238541704" lon="115.34670055289371"><ele>129.0</ele><time>2026-05-02T01:19:34Z</time></trkpt><trkpt lat="-33.806535645335224" lon="115.34675130120044"><ele>129.0</ele><time>2026-05-02T01:19:58Z</time></trkpt><trkpt lat="-33.80652080985982" lon="115.34684405065185"><ele>129.0</ele><time>2026-05-02T01:20:23Z</time></trkpt><trkpt lat="-33.80652065651485" lon="115.34693650042229"><ele>128.99999999999997</ele><time>2026-05-02T01:20:27Z</time></trkpt><trkpt lat="-33.80652596237504" lon="115.34701433420956"><ele>129.0</ele><time>2026-05-02T01:20:30Z</time></trkpt><trkpt lat="-33.8065494990659" lon="115.34711701982546"><ele>129.0</ele><time>2026-05-02T01:20:33Z</time></trkpt><trkpt lat="-33.806591152963264" lon="115.34719395778666"><ele>129.0</ele><time>2026-05-02T01:20:35Z</time></trkpt><trkpt lat="-33.806649316619556" lon="115.34725030471508"><ele>129.0</ele><time>2026-05-02T01:20:37Z</time></trkpt><trkpt lat="-33.80671773608884" lon="115.34729070952908"><ele>129.0</ele><time>2026-05-02T01:20:39Z</time></trkpt><trkpt lat="-33.80678713386138" lon="115.34732641276321"><ele>129.0</ele><time>2026-05-02T01:20:41Z</time></trkpt><trkpt lat="-33.80685181675903" lon="115.34737358152674"><ele>129.0</ele><time>2026-05-02T01:20:43Z</time></trkpt><trkpt lat="-33.80691436494785" lon="115.34742338726086"><ele>128.99999999999997</ele><time>2026-05-02T01:20:45Z</time></trkpt><trkpt lat="-33.80697869341364" lon="115.34746776655125"><ele>129.0</ele><time>2026-05-02T01:20:47Z</time></trkpt><trkpt lat="-33.807046300883556" lon="115.34750779637429"><ele>129.0</ele><time>2026-05-02T01:20:49Z</time></trkpt><trkpt lat="-33.80711420417547" lon="115.3475464909252"><ele>129.0</ele><time>2026-05-02T01:20:51Z</time></trkpt><trkpt lat="-33.8071783045363" lon="115.34758901096713"><ele>129.0</ele><time>2026-05-02T01:20:53Z</time></trkpt><trkpt lat="-33.8072413777778" lon="115.34763580899481"><ele>128.99999999999997</ele><time>2026-05-02T01:20:55Z</time></trkpt><trkpt lat="-33.80730776892387" lon="115.34768330910842"><ele>129.0</ele><time>2026-05-02T01:20:57Z</time></trkpt><trkpt lat="-33.807375922546" lon="115.34772750987698"><ele>129.0</ele><time>2026-05-02T01:20:59Z</time></trkpt><trkpt lat="-33.80744651707605" lon="115.34776934032985"><ele>129.0</ele><time>2026-05-02T01:21:01Z</time></trkpt><trkpt lat="-33.807520034671995" lon="115.34780151353914"><ele>129.0</ele><time>2026-05-02T01:21:03Z</time></trkpt><trkpt lat="-33.807595981358936" lon="115.34782874466771"><ele>129.0</ele><time>2026-05-02T01:21:05Z</time></trkpt><trkpt lat="-33.807664807492515" lon="115.34785596830068"><ele>129.0</ele><time>2026-05-02T01:21:07Z</time></trkpt><trkpt lat="-33.807732686739726" lon="115.34787945258334"><ele>129.0</ele><time>2026-05-02T01:21:09Z</time></trkpt><trkpt lat="-33.80790156396861" lon="115.34834225380911"><ele>129.0</ele><time>2026-05-02T01:21:22Z</time></trkpt><trkpt lat="-33.807901439103055" lon="115.34843029861737"><ele>129.0</ele><time>2026-05-02T01:21:24Z</time></trkpt><trkpt lat="-33.807901765220365" lon="115.34889240581208"><ele>133.0</ele><time>2026-05-02T01:22:07Z</time></trkpt></trkseg><trkseg><trkpt lat="-33.836374502681586" lon="115.34864456416112"><ele>136.0</ele><time>2026-05-02T01:43:04Z</time></trkpt><trkpt lat="-33.83643909778484" lon="115.3486518136375"><ele>136.0</ele><time>2026-05-02T01:43:22Z</time></trkpt><trkpt lat="-33.83627693364578" lon="115.34856483473189"><ele>136.0</ele><time>2026-05-02T01:43:41Z</time></trkpt><trkpt lat="-33.83624100502876" lon="115.3486340147957"><ele>136.0</ele><time>2026-05-02T01:44:02Z</time></trkpt><trkpt lat="-33.836233345514025" lon="115.34872231273599"><ele>136.0</ele><time>2026-05-02T01:44:10Z</time></trkpt><trkpt lat="-33.83624754527728" lon="115.34879847155783"><ele>136.0</ele><time>2026-05-02T01:44:18Z</time></trkpt><trkpt lat="-33.83623837948906" lon="115.34887351075601"><ele>135.99999999999997</ele><time>2026-05-02T01:44:25Z</time></trkpt><trkpt lat="-33.83629885766035" lon="115.348913152751"><ele>136.0</ele><time>2026-05-02T01:44:37Z</time></trkpt><trkpt lat="-33.83635295058561" lon="115.34886896300125"><ele>136.0</ele><time>2026-05-02T01:45:12Z</time></trkpt><trkpt lat="-33.83640813441121" lon="115.34882952106793"><ele>136.0</ele><time>2026-05-02T01:45:21Z</time></trkpt><trkpt lat="-33.83644513547704" lon="115.34875427507207"><ele>136.0</ele><time>2026-05-02T01:45:35Z</time></trkpt><trkpt lat="-33.83642536977852" lon="115.3486763060029"><ele>135.99999999999997</ele><time>2026-05-02T01:46:43Z</time></trkpt><trkpt lat="-33.836415799260806" lon="115.34859973147962"><ele>136.0</ele><time>2026-05-02T01:50:09Z</time></trkpt><trkpt lat="-33.83641561261628" lon="115.34851991263591"><ele>135.99999999999997</ele><time>2026-05-02T01:50:21Z</time></trkpt><trkpt lat="-33.83647856930395" lon="115.34853663944402"><ele>136.0</ele><time>2026-05-02T01:50:40Z</time></trkpt><trkpt lat="-33.836478973305965" lon="115.3486245385447"><ele>136.0</ele><time>2026-05-02T01:51:17Z</time></trkpt><trkpt lat="-33.83653229988672" lon="115.34867449935192"><ele>136.0</ele><time>2026-05-02T01:51:43Z</time></trkpt><trkpt lat="-33.83653064185412" lon="115.34875661186597"><ele>136.0</ele><time>2026-05-02T01:51:54Z</time></trkpt><trkpt lat="-33.836533837768286" lon="115.34883269119045"><ele>135.99999999999997</ele><time>2026-05-02T01:52:07Z</time></trkpt><trkpt lat="-33.83658030311876" lon="115.34890646486497"><ele>136.0</ele><time>2026-05-02T01:52:15Z</time></trkpt><trkpt lat="-33.83660212064198" lon="115.34897858503665"><ele>137.14285714285714</ele><time>2026-05-02T01:52:25Z</time></trkpt><trkpt lat="-33.836604985238566" lon="115.3490596860165"><ele>138.28571428571428</ele><time>2026-05-02T01:52:35Z</time></trkpt><trkpt lat="-33.83656621306424" lon="115.3491223941706"><ele>139.42857142857144</ele><time>2026-05-02T01:52:43Z</time></trkpt><trkpt lat="-33.836631478360864" lon="115.34908786181236"><ele>140.57142857142856</ele><time>2026-05-02T01:56:14Z</time></trkpt><trkpt lat="-33.83657429732524" lon="115.34913122449716"><ele>141.71428571428572</ele><time>2026-05-02T01:56:30Z</time></trkpt><trkpt lat="-33.836558567513976" lon="115.34920554102725"><ele>142.85714285714286</ele><time>2026-05-02T01:57:02Z</time></trkpt><trkpt lat="-33.83656013338814" lon="115.34928658591143"><ele>144.0</ele><time>2026-05-02T01:57:17Z</time></trkpt><trkpt lat="-33.83651104491352" lon="115.34934554195294"><ele>144.00000000000003</ele><time>2026-05-02T01:57:29Z</time></trkpt><trkpt lat="-33.83649600440786" lon="115.34941967422067"><ele>144.0</ele><time>2026-05-02T01:57:34Z</time></trkpt><trkpt lat="-33.836497647493864" lon="115.34949554097356"><ele>144.0</ele><time>2026-05-02T01:57:43Z</time></trkpt><trkpt lat="-33.83650154214379" lon="115.34961162100126"><ele>144.0</ele><time>2026-05-02T01:59:28Z</time></trkpt><trkpt lat="-33.83644831297752" lon="115.34965390834482"><ele>144.0</ele><time>2026-05-02T01:59:56Z</time></trkpt><trkpt lat="-33.83648599404302" lon="115.3497420677962"><ele>144.00000000000003</ele><time>2026-05-02T02:00:39Z</time></trkpt><trkpt lat="-33.83652486379061" lon="115.34980555366535"><ele>144.0</ele><time>2026-05-02T02:00:52Z</time></trkpt><trkpt lat="-33.83655890207736" lon="115.34987835618783"><ele>144.71428571428572</ele><time>2026-05-02T02:01:19Z</time></trkpt><trkpt lat="-33.83659348800721" lon="115.3498074394288"><ele>145.42857142857144</ele><time>2026-05-02T02:01:33Z</time></trkpt><trkpt lat="-33.836578279822575" lon="115.34989665522629"><ele>146.14285714285714</ele><time>2026-05-02T02:02:27Z</time></trkpt><trkpt lat="-33.836582043105956" lon="115.34997297902461"><ele>146.85714285714286</ele><time>2026-05-02T02:02:34Z</time></trkpt><trkpt lat="-33.83660050264809" lon="115.35004754678802"><ele>147.57142857142856</ele><time>2026-05-02T02:03:50Z</time></trkpt><trkpt lat="-33.836550385491904" lon="115.35010198538293"><ele>148.28571428571428</ele><time>2026-05-02T02:06:27Z</time></trkpt><trkpt lat="-33.836617963804514" lon="115.35008237992791"><ele>149.0</ele><time>2026-05-02T02:07:11Z</time></trkpt><trkpt lat="-33.83656588688275" lon="115.35012712047315"><ele>149.0</ele><time>2026-05-02T02:10:19Z</time></trkpt><trkpt lat="-33.836527968460246" lon="115.3501920329325"><ele>149.0</ele><time>2026-05-02T02:10:44Z</time></trkpt><trkpt lat="-33.8364836212995" lon="115.35025315692056"><ele>149.0</ele><time>2026-05-02T02:11:15Z</time></trkpt><trkpt lat="-33.836423122382804" lon="115.35028698049075"><ele>149.0</ele><time>2026-05-02T02:12:19Z</time></trkpt><trkpt lat="-33.83639716495687" lon="115.35036161598129"><ele>149.0</ele><time>2026-05-02T02:12:39Z</time></trkpt><trkpt lat="-33.83634947870314" lon="115.350415409482"><ele>149.0</ele><time>2026-05-02T02:12:45Z</time></trkpt><trkpt lat="-33.836293580497944" lon="115.35046073739856"><ele>149.0</ele><time>2026-05-02T02:12:51Z</time></trkpt><trkpt lat="-33.83625745456016" lon="115.3505323567822"><ele>149.57142857142856</ele><time>2026-05-02T02:13:40Z</time></trkpt><trkpt lat="-33.83621877319181" lon="115.35059445307377"><ele>150.14285714285714</ele><time>2026-05-02T02:13:51Z</time></trkpt><trkpt lat="-33.836209504851084" lon="115.35067172443745"><ele>150.71428571428572</ele><time>2026-05-02T02:14:00Z</time></trkpt><trkpt lat="-33.8362530760182" lon="115.35061302004522"><ele>151.28571428571428</ele><time>2026-05-02T02:15:09Z</time></trkpt><trkpt lat="-33.836197073026995" lon="115.35065882723195"><ele>151.85714285714286</ele><time>2026-05-02T02:15:43Z</time></trkpt><trkpt lat="-33.83625754433459" lon="115.35062320727792"><ele>152.42857142857142</ele><time>2026-05-02T02:16:45Z</time></trkpt><trkpt lat="-33.836201652866535" lon="115.35067499995213"><ele>153.0</ele><time>2026-05-02T02:17:16Z</time></trkpt><trkpt lat="-33.836174618066806" lon="115.35074883220082"><ele>153.0</ele><time>2026-05-02T02:17:39Z</time></trkpt><trkpt lat="-33.83615016524836" lon="115.35081911359853"><ele>153.0</ele><time>2026-05-02T02:18:04Z</time></trkpt><trkpt lat="-33.83615191805929" lon="115.35089645188678"><ele>153.0</ele><time>2026-05-02T02:18:16Z</time></trkpt><trkpt lat="-33.83617315409046" lon="115.35082171879296"><ele>153.0</ele><time>2026-05-02T02:18:41Z</time></trkpt><trkpt lat="-33.8361579302115" lon="115.35090347543314"><ele>153.0</ele><time>2026-05-02T02:18:58Z</time></trkpt><trkpt lat="-33.8361422011455" lon="115.35098561951328"><ele>153.0</ele><time>2026-05-02T02:19:05Z</time></trkpt><trkpt lat="-33.8361683905224" lon="115.35107360643325"><ele>153.0</ele><time>2026-05-02T02:19:32Z</time></trkpt><trkpt lat="-33.836229514425604" lon="115.3511198341048"><ele>153.0</ele><time>2026-05-02T02:20:58Z</time></trkpt><trkpt lat="-33.83618612175681" lon="115.35105761780603"><ele>153.0</ele><time>2026-05-02T02:21:27Z</time></trkpt><trkpt lat="-33.83620451806779" lon="115.35114667913359"><ele>153.0</ele><time>2026-05-02T02:22:16Z</time></trkpt><trkpt lat="-33.83627039213756" lon="115.35115911102604"><ele>153.0</ele><time>2026-05-02T02:23:52Z</time></trkpt><trkpt lat="-33.8363362646999" lon="115.35116402895689"><ele>153.0</ele><time>2026-05-02T02:23:58Z</time></trkpt><trkpt lat="-33.83640329671903" lon="115.35114494980749"><ele>153.0</ele><time>2026-05-02T02:24:06Z</time></trkpt><trkpt lat="-33.836461923192154" lon="115.35118215595206"><ele>153.0</ele><time>2026-05-02T02:26:06Z</time></trkpt><trkpt lat="-33.83650463532644" lon="115.35123925300859"><ele>153.0</ele><time>2026-05-02T02:26:14Z</time></trkpt><trkpt lat="-33.83656668251087" lon="115.35127134045415"><ele>153.0</ele><time>2026-05-02T02:28:01Z</time></trkpt><trkpt lat="-33.83663670811409" lon="115.35127064003613"><ele>153.0</ele><time>2026-05-02T02:28:52Z</time></trkpt><trkpt lat="-33.836615488179966" lon="115.35135636476433"><ele>153.0</ele><time>2026-05-02T02:29:08Z</time></trkpt><trkpt lat="-33.83662105506937" lon="115.35127747243938"><ele>153.0</ele><time>2026-05-02T02:29:21Z</time></trkpt><trkpt lat="-33.836600264844634" lon="115.35135281275666"><ele>153.0</ele><time>2026-05-02T02:29:38Z</time></trkpt><trkpt lat="-33.83660807721351" lon="115.35143207408032"><ele>153.0</ele><time>2026-05-02T02:29:44Z</time></trkpt><trkpt lat="-33.83661141358953" lon="115.35152040704337"><ele>153.28571428571428</ele><time>2026-05-02T02:30:16Z</time></trkpt><trkpt lat="-33.8366071545968" lon="115.35160893778006"><ele>153.57142857142858</ele><time>2026-05-02T02:30:22Z</time></trkpt><trkpt lat="-33.83658910729793" lon="115.3516825608547"><ele>153.85714285714286</ele><time>2026-05-02T02:30:40Z</time></trkpt><trkpt lat="-33.83661389523" lon="115.35175436406152"><ele>154.14285714285714</ele><time>2026-05-02T02:31:12Z</time></trkpt><trkpt lat="-33.83660460521275" lon="115.35184326775928"><ele>154.42857142857142</ele><time>2026-05-02T02:31:18Z</time></trkpt><trkpt lat="-33.8365927452696" lon="115.35192926949236"><ele>154.71428571428572</ele><time>2026-05-02T02:31:24Z</time></trkpt><trkpt lat="-33.83658943905563" lon="115.35201014448604"><ele>155.0</ele><time>2026-05-02T02:31:30Z</time></trkpt><trkpt lat="-33.83660042718216" lon="115.35209587187262"><ele>155.0</ele><time>2026-05-02T02:32:00Z</time></trkpt><trkpt lat="-33.83659611276516" lon="115.35217490305537"><ele>155.0</ele><time>2026-05-02T02:32:08Z</time></trkpt><trkpt lat="-33.836590547817224" lon="115.35225070923784"><ele>155.0</ele><time>2026-05-02T02:32:14Z</time></trkpt><trkpt lat="-33.836611088685494" lon="115.35233814734832"><ele>155.0</ele><time>2026-05-02T02:32:47Z</time></trkpt><trkpt lat="-33.8366743486323" lon="115.35233026913887"><ele>155.0</ele><time>2026-05-02T02:32:54Z</time></trkpt><trkpt lat="-33.83660681493264" lon="115.35228112665331"><ele>155.0</ele><time>2026-05-02T02:33:15Z</time></trkpt><trkpt lat="-33.83659620832602" lon="115.3523609711907"><ele>155.0</ele><time>2026-05-02T02:34:15Z</time></trkpt><trkpt lat="-33.836568973268285" lon="115.35243202593986"><ele>155.28571428571428</ele><time>2026-05-02T02:34:21Z</time></trkpt><trkpt lat="-33.83651801126927" lon="115.35249887921081"><ele>155.57142857142856</ele><time>2026-05-02T02:34:34Z</time></trkpt><trkpt lat="-33.83648040064743" lon="115.3525690851564"><ele>155.85714285714283</ele><time>2026-05-02T02:34:40Z</time></trkpt><trkpt lat="-33.836465977286814" lon="115.35264734827751"><ele>156.14285714285714</ele><time>2026-05-02T02:35:11Z</time></trkpt><trkpt lat="-33.83644455639999" lon="115.35272326795926"><ele>156.42857142857142</ele><time>2026-05-02T02:35:17Z</time></trkpt><trkpt lat="-33.83639373831256" lon="115.35279991674291"><ele>156.7142857142857</ele><time>2026-05-02T02:36:05Z</time></trkpt><trkpt lat="-33.83632560986114" lon="115.3528202869767"><ele>157.0</ele><time>2026-05-02T02:36:16Z</time></trkpt><trkpt lat="-33.83639235117883" lon="115.35279687058998"><ele>157.0</ele><time>2026-05-02T02:36:29Z</time></trkpt><trkpt lat="-33.83648434966378" lon="115.35270114551442"><ele>157.0</ele><time>2026-05-02T02:37:04Z</time></trkpt><trkpt lat="-33.83654156649923" lon="115.35273655955118"><ele>157.0</ele><time>2026-05-02T02:37:25Z</time></trkpt><trkpt lat="-33.83660270828897" lon="115.35277868369852"><ele>157.0</ele><time>2026-05-02T02:37:34Z</time></trkpt><trkpt lat="-33.83666123681374" lon="115.3528096267065"><ele>157.0</ele><time>2026-05-02T02:37:43Z</time></trkpt><trkpt lat="-33.83672626448736" lon="115.35284323178055"><ele>157.0</ele><time>2026-05-02T02:37:50Z</time></trkpt><trkpt lat="-33.836652999091235" lon="115.35282013142925"><ele>156.99999999999997</ele><time>2026-05-02T02:38:48Z</time></trkpt><trkpt lat="-33.83658979002644" lon="115.3527550464358"><ele>157.0</ele><time>2026-05-02T02:39:36Z</time></trkpt><trkpt lat="-33.836536413748505" lon="115.3527148288458"><ele>157.0</ele><time>2026-05-02T02:39:44Z</time></trkpt><trkpt lat="-33.836594503424514" lon="115.3527609717976"><ele>157.0</ele><time>2026-05-02T02:40:11Z</time></trkpt><trkpt lat="-33.8366471559403" lon="115.3528040003054"><ele>157.0</ele><time>2026-05-02T02:40:18Z</time></trkpt><trkpt lat="-33.8367067542034" lon="115.35283941693307"><ele>156.99999999999997</ele><time>2026-05-02T02:40:25Z</time></trkpt><trkpt lat="-33.836782437438565" lon="115.35283961367551"><ele>157.0</ele><time>2026-05-02T02:40:36Z</time></trkpt><trkpt lat="-33.83683539061187" lon="115.35277652531788"><ele>157.28571428571428</ele><time>2026-05-02T02:40:54Z</time></trkpt><trkpt lat="-33.83688153874722" lon="115.35271477792276"><ele>157.57142857142856</ele><time>2026-05-02T02:41:35Z</time></trkpt><trkpt lat="-33.836924324181446" lon="115.35264950976752"><ele>157.85714285714283</ele><time>2026-05-02T02:42:43Z</time></trkpt><trkpt lat="-33.83697977094185" lon="115.35259137590619"><ele>158.14285714285714</ele><time>2026-05-02T02:42:50Z</time></trkpt><trkpt lat="-33.83702260480023" lon="115.35252683449019"><ele>158.42857142857144</ele><time>2026-05-02T02:43:30Z</time></trkpt><trkpt lat="-33.83697573912987" lon="115.35257765803611"><ele>158.7142857142857</ele><time>2026-05-02T02:44:49Z</time></trkpt><trkpt lat="-33.83700958160544" lon="115.35251192862954"><ele>159.0</ele><time>2026-05-02T02:45:19Z</time></trkpt><trkpt lat="-33.83695611248399" lon="115.35235274955966"><ele>159.0</ele><time>2026-05-02T02:46:31Z</time></trkpt><trkpt lat="-33.836802113641326" lon="115.35229798679592"><ele>159.0</ele><time>2026-05-02T02:47:38Z</time></trkpt><trkpt lat="-33.836915549125564" lon="115.35224873757285"><ele>159.0</ele><time>2026-05-02T02:47:39Z</time></trkpt><trkpt lat="-33.83697836103041" lon="115.3521694498757"><ele>159.0</ele><time>2026-05-02T02:47:44Z</time></trkpt><trkpt lat="-33.83694543556271" lon="115.35209479544373"><ele>159.0</ele><time>2026-05-02T02:49:41Z</time></trkpt><trkpt lat="-33.836903657950735" lon="115.35203060549821"><ele>158.0</ele><time>2026-05-02T02:50:18Z</time></trkpt><trkpt lat="-33.83689830651028" lon="115.35194881689806"><ele>157.0</ele><time>2026-05-02T02:51:15Z</time></trkpt><trkpt lat="-33.83661069999667" lon="115.35123783761132"><ele>156.2</ele><time>2026-05-02T02:53:05.5Z</time></trkpt><trkpt lat="-33.83660533383785" lon="115.35115909755316"><ele>155.39999999999998</ele><time>2026-05-02T02:53:41Z</time></trkpt><trkpt lat="-33.836616415038364" lon="115.35106117450212"><ele>154.60000000000002</ele><time>2026-05-02T02:53:48Z</time></trkpt><trkpt lat="-33.836612493678075" lon="115.350982683416"><ele>153.8</ele><time>2026-05-02T02:53:53Z</time></trkpt><trkpt lat="-33.83659128762683" lon="115.3508943142642"><ele>153.0</ele><time>2026-05-02T02:53:58Z</time></trkpt><trkpt lat="-33.8360523098146" lon="115.3503063850202"><ele>153.14285714285714</ele><time>2026-05-02T02:55:00Z</time></trkpt><trkpt lat="-33.835998865900805" lon="115.35025303622838"><ele>153.28571428571428</ele><time>2026-05-02T02:55:05Z</time></trkpt><trkpt lat="-33.83596018731025" lon="115.35018217143012"><ele>153.42857142857144</ele><time>2026-05-02T02:55:11Z</time></trkpt><trkpt lat="-33.835929850821586" lon="115.35011276813012"><ele>153.57142857142856</ele><time>2026-05-02T02:55:17Z</time></trkpt><trkpt lat="-33.83586836918807" lon="115.35009578800577"><ele>153.71428571428572</ele><time>2026-05-02T02:55:21Z</time></trkpt><trkpt lat="-33.83579514941109" lon="115.35007346737063"><ele>153.85714285714286</ele><time>2026-05-02T02:55:26Z</time></trkpt><trkpt lat="-33.83572870661073" lon="115.35008347692748"><ele>154.0</ele><time>2026-05-02T02:55:31Z</time></trkpt><trkpt lat="-33.83567365267338" lon="115.3500445897159"><ele>154.0</ele><time>2026-05-02T02:55:35Z</time></trkpt><trkpt lat="-33.83560663934463" lon="115.35001856280415"><ele>154.0</ele><time>2026-05-02T02:55:40Z</time></trkpt><trkpt lat="-33.835540490697696" lon="115.35003782764306"><ele>154.0</ele><time>2026-05-02T02:55:45Z</time></trkpt><trkpt lat="-33.83548205148208" lon="115.35000645289462"><ele>154.0</ele><time>2026-05-02T02:55:50Z</time></trkpt><trkpt lat="-33.8354897006776" lon="115.3499239884498"><ele>154.0</ele><time>2026-05-02T02:55:54Z</time></trkpt><trkpt lat="-33.835512685422" lon="115.34983801686694"><ele>154.0</ele><time>2026-05-02T02:55:59Z</time></trkpt><trkpt lat="-33.836662879432524" lon="115.34828110022116"><ele>149.25</ele><time>2026-05-02T03:05:39Z</time></trkpt><trkpt lat="-33.836898978494354" lon="115.34836938153389"><ele>144.5</ele><time>2026-05-02T03:05:48Z</time></trkpt><trkpt lat="-33.83696583573427" lon="115.34838343097739"><ele>139.75</ele><time>2026-05-02T03:05:50Z</time></trkpt><trkpt lat="-33.837041221941305" lon="115.34840613320871"><ele>135.0</ele><time>2026-05-02T03:05:52Z</time></trkpt><trkpt lat="-33.83711824044471" lon="115.34841769187253"><ele>135.0</ele><time>2026-05-02T03:05:54Z</time></trkpt><trkpt lat="-33.83719396781601" lon="115.34843197647858"><ele>135.0</ele><time>2026-05-02T03:05:56Z</time></trkpt><trkpt lat="-33.837263101649555" lon="115.34844086226938"><ele>135.0</ele><time>2026-05-02T03:05:58Z</time></trkpt><trkpt lat="-33.837335058866344" lon="115.34845840650574"><ele>135.0</ele><time>2026-05-02T03:06:00Z</time></trkpt><trkpt lat="-33.83740475834069" lon="115.34846654742198"><ele>135.0</ele><time>2026-05-02T03:06:02Z</time></trkpt><trkpt lat="-33.83746834565114" lon="115.34847321141164"><ele>135.0</ele><time>2026-05-02T03:06:04Z</time></trkpt><trkpt lat="-33.83762842075486" lon="115.34847541882641"><ele>135.16666666666666</ele><time>2026-05-02T03:06:11Z</time></trkpt><trkpt lat="-33.83769829300596" lon="115.348493712801"><ele>135.33333333333334</ele><time>2026-05-02T03:06:13Z</time></trkpt><trkpt lat="-33.83776541329478" lon="115.34850519153068"><ele>135.5</ele><time>2026-05-02T03:06:14Z</time></trkpt><trkpt lat="-33.837847422108005" lon="115.34851558108953"><ele>135.66666666666669</ele><time>2026-05-02T03:06:15Z</time></trkpt><trkpt lat="-33.83793578235485" lon="115.34852105481798"><ele>135.83333333333334</ele><time>2026-05-02T03:06:16Z</time></trkpt><trkpt lat="-33.83803094183134" lon="115.3485245336203"><ele>136.0</ele><time>2026-05-02T03:06:17Z</time></trkpt><trkpt lat="-33.8381247466162" lon="115.3485345698579"><ele>136.0</ele><time>2026-05-02T03:06:18Z</time></trkpt><trkpt lat="-33.83821627459779" lon="115.3485499315223"><ele>136.0</ele><time>2026-05-02T03:06:19Z</time></trkpt><trkpt lat="-33.83831531303317" lon="115.34857456560805"><ele>136.0</ele><time>2026-05-02T03:06:20Z</time></trkpt><trkpt lat="-33.83841036853666" lon="115.34857977554536"><ele>136.0</ele><time>2026-05-02T03:06:21Z</time></trkpt><trkpt lat="-33.838496183591396" lon="115.34859539088711"><ele>136.0</ele><time>2026-05-02T03:06:22Z</time></trkpt><trkpt lat="-33.83858638963297" lon="115.34860697471534"><ele>136.2</ele><time>2026-05-02T03:06:23Z</time></trkpt><trkpt lat="-33.838686036157405" lon="115.34861438490263"><ele>136.39999999999998</ele><time>2026-05-02T03:06:24Z</time></trkpt><trkpt lat="-33.83877853891751" lon="115.34862117887813"><ele>136.6</ele><time>2026-05-02T03:06:25Z</time></trkpt><trkpt lat="-33.838930522647324" lon="115.34864154033832"><ele>136.79999999999998</ele><time>2026-05-02T03:06:27Z</time></trkpt><trkpt lat="-33.83900039385584" lon="115.34864775517467"><ele>137.0</ele><time>2026-05-02T03:06:28Z</time></trkpt><trkpt lat="-33.83906563737314" lon="115.34865659926065"><ele>137.0</ele><time>2026-05-02T03:06:29Z</time></trkpt><trkpt lat="-33.8391405021364" lon="115.34866895651525"><ele>137.0</ele><time>2026-05-02T03:06:30Z</time></trkpt><trkpt lat="-33.83921973162431" lon="115.3486827133499"><ele>137.0</ele><time>2026-05-02T03:06:31Z</time></trkpt><trkpt lat="-33.83930924174944" lon="115.3486887469349"><ele>137.0</ele><time>2026-05-02T03:06:32Z</time></trkpt><trkpt lat="-33.83942050694837" lon="115.34869072560095"><ele>137.0</ele><time>2026-05-02T03:06:33Z</time></trkpt><trkpt lat="-33.83954004616851" lon="115.34869878378983"><ele>137.75</ele><time>2026-05-02T03:06:34Z</time></trkpt><trkpt lat="-33.83966515060113" lon="115.34870348773883"><ele>138.5</ele><time>2026-05-02T03:06:35Z</time></trkpt><trkpt lat="-33.83979913609217" lon="115.34869024402136"><ele>139.25</ele><time>2026-05-02T03:06:36Z</time></trkpt><trkpt lat="-33.839944864895294" lon="115.34866086990462"><ele>140.0</ele><time>2026-05-02T03:06:37Z</time></trkpt><trkpt lat="-33.84009098705675" lon="115.34862299362632"><ele>139.33333333333331</ele><time>2026-05-02T03:06:38Z</time></trkpt><trkpt lat="-33.840231482657956" lon="115.348587100815"><ele>138.66666666666666</ele><time>2026-05-02T03:06:39Z</time></trkpt><trkpt lat="-33.84038232911039" lon="115.34854319470845"><ele>138.0</ele><time>2026-05-02T03:06:40Z</time></trkpt><trkpt lat="-33.84053514342957" lon="115.34849489234588"><ele>138.0</ele><time>2026-05-02T03:06:41Z</time></trkpt><trkpt lat="-33.84068444337433" lon="115.34845605176467"><ele>138.0</ele><time>2026-05-02T03:06:42Z</time></trkpt><trkpt lat="-33.840814213197916" lon="115.34841496009042"><ele>138.0</ele><time>2026-05-02T03:06:43Z</time></trkpt><trkpt lat="-33.84093870614084" lon="115.34838353977158"><ele>138.0</ele><time>2026-05-02T03:06:44Z</time></trkpt><trkpt lat="-33.84105402709155" lon="115.34835321365473"><ele>140.0</ele><time>2026-05-02T03:06:45Z</time></trkpt><trkpt lat="-33.841163907100565" lon="115.34832338514057"><ele>140.0</ele><time>2026-05-02T03:06:46Z</time></trkpt></trkseg><trkseg><trkpt lat="-33.843724971294776" lon="115.34767652456463"><ele>147.0</ele><time>2026-05-02T03:07:52Z</time></trkpt><trkpt lat="-33.84380969478402" lon="115.34767965292801"><ele>147.0</ele><time>2026-05-02T03:07:54Z</time></trkpt><trkpt lat="-33.843897854930105" lon="115.34768484882859"><ele>147.0</ele><time>2026-05-02T03:07:56Z</time></trkpt><trkpt lat="-33.843979042801195" lon="115.34770231998942"><ele>147.0</ele><time>2026-05-02T03:07:58Z</time></trkpt><trkpt lat="-33.84405557084636" lon="115.34771395553251"><ele>147.0</ele><time>2026-05-02T03:08:00Z</time></trkpt><trkpt lat="-33.8441253104386" lon="115.34772965179522"><ele>147.0</ele><time>2026-05-02T03:08:02Z</time></trkpt><trkpt lat="-33.84421188407292" lon="115.34775026069111"><ele>147.2</ele><time>2026-05-02T03:08:04Z</time></trkpt><trkpt lat="-33.84431328286922" lon="115.3477711070608"><ele>147.39999999999998</ele><time>2026-05-02T03:08:06Z</time></trkpt><trkpt lat="-33.84441694586706" lon="115.34779540504991"><ele>147.60000000000002</ele><time>2026-05-02T03:08:08Z</time></trkpt><trkpt lat="-33.84448417930618" lon="115.34780799017516"><ele>147.8</ele><time>2026-05-02T03:08:09Z</time></trkpt><trkpt lat="-33.84457259645131" lon="115.34782429644046"><ele>148.0</ele><time>2026-05-02T03:08:10Z</time></trkpt><trkpt lat="-33.844687859148515" lon="115.34784676011131"><ele>148.0</ele><time>2026-05-02T03:08:11Z</time></trkpt><trkpt lat="-33.844798888424556" lon="115.34787082451871"><ele>148.0</ele><time>2026-05-02T03:08:12Z</time></trkpt><trkpt lat="-33.844903125503414" lon="115.34789928633627"><ele>148.0</ele><time>2026-05-02T03:08:13Z</time></trkpt><trkpt lat="-33.845019634355346" lon="115.34792388273863"><ele>148.0</ele><time>2026-05-02T03:08:14Z</time></trkpt><trkpt lat="-33.845135461725555" lon="115.3479462983304"><ele>147.6</ele><time>2026-05-02T03:08:15Z</time></trkpt><trkpt lat="-33.84523705939342" lon="115.34796816832178"><ele>147.20000000000002</ele><time>2026-05-02T03:08:16Z</time></trkpt><trkpt lat="-33.84532884522146" lon="115.34798562941933"><ele>146.8</ele><time>2026-05-02T03:08:17Z</time></trkpt><trkpt lat="-33.84541271468182" lon="115.3480063264674"><ele>146.4</ele><time>2026-05-02T03:08:18Z</time></trkpt><trkpt lat="-33.84550548923103" lon="115.34802752363224"><ele>146.0</ele><time>2026-05-02T03:08:19Z</time></trkpt><trkpt lat="-33.8456007469283" lon="115.34805970144262"><ele>146.0</ele><time>2026-05-02T03:08:20Z</time></trkpt><trkpt lat="-33.84570369264169" lon="115.34808336784805"><ele>146.0</ele><time>2026-05-02T03:08:21Z</time></trkpt><trkpt lat="-33.84580558541028" lon="115.34809635735914"><ele>146.0</ele><time>2026-05-02T03:08:22Z</time></trkpt><trkpt lat="-33.84589058959967" lon="115.34810762189647"><ele>146.0</ele><time>2026-05-02T03:08:23Z</time></trkpt><trkpt lat="-33.84596040269987" lon="115.34811851173852"><ele>146.0</ele><time>2026-05-02T03:08:24Z</time></trkpt><trkpt lat="-33.84603513466135" lon="115.34809829105214"><ele>146.0</ele><time>2026-05-02T03:08:26Z</time></trkpt><trkpt lat="-33.84606925325663" lon="115.34800718419974"><ele>146.0</ele><time>2026-05-02T03:08:29Z</time></trkpt><trkpt lat="-33.84606901225541" lon="115.34788901035022"><ele>146.0</ele><time>2026-05-02T03:08:31Z</time></trkpt><trkpt lat="-33.84604337436732" lon="115.347816842557"><ele>146.0</ele><time>2026-05-02T03:08:32Z</time></trkpt><trkpt lat="-33.84600498410785" lon="115.34773374373052"><ele>146.0</ele><time>2026-05-02T03:08:33Z</time></trkpt><trkpt lat="-33.84595925766081" lon="115.34763699593859"><ele>146.0</ele><time>2026-05-02T03:08:34Z</time></trkpt><trkpt lat="-33.845916541981595" lon="115.34753440927983"><ele>146.0</ele><time>2026-05-02T03:08:35Z</time></trkpt><trkpt lat="-33.845877874250625" lon="115.3474352093443"><ele>145.75</ele><time>2026-05-02T03:08:36Z</time></trkpt><trkpt lat="-33.845830924793006" lon="115.34731904481625"><ele>145.5</ele><time>2026-05-02T03:08:37Z</time></trkpt><trkpt lat="-33.845774167013325" lon="115.34718236217356"><ele>145.25</ele><time>2026-05-02T03:08:38Z</time></trkpt><trkpt lat="-33.84572257068189" lon="115.3470407914289"><ele>145.0</ele><time>2026-05-02T03:08:39Z</time></trkpt><trkpt lat="-33.84566911052753" lon="115.34690162686044"><ele>145.0</ele><time>2026-05-02T03:08:40Z</time></trkpt><trkpt lat="-33.84561360072673" lon="115.34676864109046"><ele>145.0</ele><time>2026-05-02T03:08:41Z</time></trkpt><trkpt lat="-33.84555588778248" lon="115.34663847295796"><ele>145.0</ele><time>2026-05-02T03:08:42Z</time></trkpt><trkpt lat="-33.84549741107221" lon="115.34650725860892"><ele>145.0</ele><time>2026-05-02T03:08:43Z</time></trkpt><trkpt lat="-33.84544228920232" lon="115.34637682547466"><ele>146.5</ele><time>2026-05-02T03:08:44Z</time></trkpt><trkpt lat="-33.84538340876374" lon="115.34624868535437"><ele>148.0</ele><time>2026-05-02T03:08:45Z</time></trkpt><trkpt lat="-33.84532403805829" lon="115.34611622893966"><ele>149.5</ele><time>2026-05-02T03:08:46Z</time></trkpt><trkpt lat="-33.84526539595997" lon="115.34598249497803"><ele>151.0</ele><time>2026-05-02T03:08:47Z</time></trkpt><trkpt lat="-33.84520153082344" lon="115.34584912835506"><ele>151.0</ele><time>2026-05-02T03:08:48Z</time></trkpt><trkpt lat="-33.84514160357458" lon="115.3457133923146"><ele>151.0</ele><time>2026-05-02T03:08:49Z</time></trkpt><trkpt lat="-33.84508410387309" lon="115.34557273306586"><ele>151.0</ele><time>2026-05-02T03:08:50Z</time></trkpt><trkpt lat="-33.84502682794561" lon="115.34542064600372"><ele>151.0</ele><time>2026-05-02T03:08:51Z</time></trkpt><trkpt lat="-33.84496270059338" lon="115.34526285984732"><ele>149.33333333333334</ele><time>2026-05-02T03:08:52Z</time></trkpt><trkpt lat="-33.84488789263317" lon="115.3450970996235"><ele>147.66666666666666</ele><time>2026-05-02T03:08:53Z</time></trkpt><trkpt lat="-33.84481781418456" lon="115.3449375183967"><ele>146.0</ele><time>2026-05-02T03:08:54Z</time></trkpt><trkpt lat="-33.844751757329405" lon="115.34477724597363"><ele>146.5</ele><time>2026-05-02T03:08:55Z</time></trkpt><trkpt lat="-33.844684051198506" lon="115.34461951673886"><ele>147.0</ele><time>2026-05-02T03:08:56Z</time></trkpt><trkpt lat="-33.844616404275605" lon="115.34445946211838"><ele>147.5</ele><time>2026-05-02T03:08:57Z</time></trkpt><trkpt lat="-33.844555642593726" lon="115.34430555502168"><ele>148.0</ele><time>2026-05-02T03:08:58Z</time></trkpt><trkpt lat="-33.844486126402145" lon="115.34414603031234"><ele>148.0</ele><time>2026-05-02T03:08:59Z</time></trkpt><trkpt lat="-33.84441883451576" lon="115.34398301602066"><ele>148.0</ele><time>2026-05-02T03:09:00Z</time></trkpt><trkpt lat="-33.844350183291795" lon="115.3438268618741"><ele>148.0</ele><time>2026-05-02T03:09:01Z</time></trkpt><trkpt lat="-33.84427774766125" lon="115.34366468903757"><ele>147.66666666666669</ele><time>2026-05-02T03:09:02Z</time></trkpt><trkpt lat="-33.84420324626848" lon="115.3434957653273"><ele>147.33333333333334</ele><time>2026-05-02T03:09:03Z</time></trkpt><trkpt lat="-33.84413290795435" lon="115.34333259131559"><ele>147.0</ele><time>2026-05-02T03:09:04Z</time></trkpt><trkpt lat="-33.844070848562325" lon="115.34318027306703"><ele>147.5</ele><time>2026-05-02T03:09:05Z</time></trkpt><trkpt lat="-33.84401114944088" lon="115.34302828469963"><ele>148.0</ele><time>2026-05-02T03:09:06Z</time></trkpt><trkpt lat="-33.84394131888302" lon="115.34287176449418"><ele>148.5</ele><time>2026-05-02T03:09:07Z</time></trkpt><trkpt lat="-33.843875457774224" lon="115.34271636732852"><ele>149.0</ele><time>2026-05-02T03:09:08Z</time></trkpt><trkpt lat="-33.843812882485075" lon="115.34256338236256"><ele>149.0</ele><time>2026-05-02T03:09:09Z</time></trkpt><trkpt lat="-33.84375162916142" lon="115.34241279936536"><ele>149.0</ele><time>2026-05-02T03:09:10Z</time></trkpt><trkpt lat="-33.843691694500656" lon="115.34227194681884"><ele>149.0</ele><time>2026-05-02T03:09:11Z</time></trkpt><trkpt lat="-33.843631354315946" lon="115.3421351803377"><ele>149.0</ele><time>2026-05-02T03:09:12Z</time></trkpt><trkpt lat="-33.84357498761945" lon="115.34199003000907"><ele>149.25</ele><time>2026-05-02T03:09:13Z</time></trkpt><trkpt lat="-33.843509743552076" lon="115.34183994148847"><ele>149.5</ele><time>2026-05-02T03:09:14Z</time></trkpt><trkpt lat="-33.84344349499964" lon="115.34168152054649"><ele>149.75</ele><time>2026-05-02T03:09:15Z</time></trkpt><trkpt lat="-33.8433692582116" lon="115.34151336530167"><ele>150.0</ele><time>2026-05-02T03:09:16Z</time></trkpt><trkpt lat="-33.84329247415512" lon="115.34133584096776"><ele>149.0</ele><time>2026-05-02T03:09:17Z</time></trkpt><trkpt lat="-33.843212713901146" lon="115.34114881809913"><ele>148.0</ele><time>2026-05-02T03:09:18Z</time></trkpt><trkpt lat="-33.84313689153982" lon="115.34096145194141"><ele>147.0</ele><time>2026-05-02T03:09:19Z</time></trkpt><trkpt lat="-33.84306178451394" lon="115.34078151530404"><ele>147.0</ele><time>2026-05-02T03:09:20Z</time></trkpt><trkpt lat="-33.84298691863143" lon="115.3406054854256"><ele>147.0</ele><time>2026-05-02T03:09:21Z</time></trkpt><trkpt lat="-33.842914075010256" lon="115.34043437155223"><ele>147.0</ele><time>2026-05-02T03:09:22Z</time></trkpt><trkpt lat="-33.842844352615685" lon="115.34026919318086"><ele>147.25</ele><time>2026-05-02T03:09:23Z</time></trkpt><trkpt lat="-33.84277738005001" lon="115.34010843524504"><ele>147.5</ele><time>2026-05-02T03:09:24Z</time></trkpt><trkpt lat="-33.842714060886586" lon="115.33995039150196"><ele>147.75</ele><time>2026-05-02T03:09:25Z</time></trkpt><trkpt lat="-33.842652792785614" lon="115.33979784720027"><ele>148.0</ele><time>2026-05-02T03:09:26Z</time></trkpt><trkpt lat="-33.84259177244555" lon="115.33965082090377"><ele>147.25</ele><time>2026-05-02T03:09:27Z</time></trkpt><trkpt lat="-33.842533316886446" lon="115.33950824873827"><ele>146.5</ele><time>2026-05-02T03:09:28Z</time></trkpt><trkpt lat="-33.84247733155326" lon="115.33936867718268"><ele>145.75</ele><time>2026-05-02T03:09:29Z</time></trkpt><trkpt lat="-33.84242539130218" lon="115.33923219281203"><ele>145.0</ele><time>2026-05-02T03:09:30Z</time></trkpt><trkpt lat="-33.8423740912574" lon="115.33910053099096"><ele>145.0</ele><time>2026-05-02T03:09:31Z</time></trkpt><trkpt lat="-33.8423271011967" lon="115.33897002624084"><ele>145.0</ele><time>2026-05-02T03:09:32Z</time></trkpt><trkpt lat="-33.84230202196249" lon="115.33883533024057"><ele>145.0</ele><time>2026-05-02T03:09:33Z</time></trkpt><trkpt lat="-33.842269554276534" lon="115.33870750169538"><ele>145.0</ele><time>2026-05-02T03:09:34Z</time></trkpt><trkpt lat="-33.84223102201221" lon="115.33858806605843"><ele>145.2</ele><time>2026-05-02T03:09:35Z</time></trkpt><trkpt lat="-33.84221396924146" lon="115.33846393254474"><ele>145.4</ele><time>2026-05-02T03:09:36Z</time></trkpt><trkpt lat="-33.84220228816255" lon="115.33834382693135"><ele>145.6</ele><time>2026-05-02T03:09:37Z</time></trkpt><trkpt lat="-33.84219353758694" lon="115.33822734687897"><ele>145.8</ele><time>2026-05-02T03:09:38Z</time></trkpt><trkpt lat="-33.84218824890508" lon="115.33810441674044"><ele>146.0</ele><time>2026-05-02T03:09:39Z</time></trkpt><trkpt lat="-33.84218561784173" lon="115.3379773682296"><ele>146.2</ele><time>2026-05-02T03:09:40Z</time></trkpt><trkpt lat="-33.842200878383736" lon="115.33784953952696"><ele>146.39999999999998</ele><time>2026-05-02T03:09:41Z</time></trkpt><trkpt lat="-33.84218337381116" lon="115.33772278410584"><ele>146.6</ele><time>2026-05-02T03:09:42Z</time></trkpt><trkpt lat="-33.84218752586133" lon="115.33760166163489"><ele>146.79999999999998</ele><time>2026-05-02T03:09:43Z</time></trkpt><trkpt lat="-33.842188772350845" lon="115.33747605706591"><ele>147.0</ele><time>2026-05-02T03:09:44Z</time></trkpt><trkpt lat="-33.842184129158014" lon="115.33734550648984"><ele>147.25</ele><time>2026-05-02T03:09:45Z</time></trkpt><trkpt lat="-33.84217851880203" lon="115.3372017191115"><ele>147.5</ele><time>2026-05-02T03:09:46Z</time></trkpt><trkpt lat="-33.84217855049467" lon="115.33705770038688"><ele>147.75</ele><time>2026-05-02T03:09:47Z</time></trkpt><trkpt lat="-33.842182315003825" lon="115.3369072134251"><ele>148.0</ele><time>2026-05-02T03:09:48Z</time></trkpt><trkpt lat="-33.84218209617477" lon="115.33674920937051"><ele>148.0</ele><time>2026-05-02T03:09:49Z</time></trkpt><trkpt lat="-33.84218054199782" lon="115.33658264734356"><ele>148.0</ele><time>2026-05-02T03:09:50Z</time></trkpt><trkpt lat="-33.8421798954614" lon="115.33641002892013"><ele>148.0</ele><time>2026-05-02T03:09:51Z</time></trkpt><trkpt lat="-33.842181268335864" lon="115.3362297766767"><ele>148.0</ele><time>2026-05-02T03:09:52Z</time></trkpt><trkpt lat="-33.842182061332934" lon="115.33603894133509"><ele>148.0</ele><time>2026-05-02T03:09:53Z</time></trkpt><trkpt lat="-33.84218474351445" lon="115.3358385966941"><ele>148.0</ele><time>2026-05-02T03:09:54Z</time></trkpt><trkpt lat="-33.842183289233795" lon="115.33563453893814"><ele>148.0</ele><time>2026-05-02T03:09:55Z</time></trkpt><trkpt lat="-33.84218314944695" lon="115.3354319801846"><ele>148.0</ele><time>2026-05-02T03:09:56Z</time></trkpt><trkpt lat="-33.842182673679574" lon="115.33522955742202"><ele>148.0</ele><time>2026-05-02T03:09:57Z</time></trkpt><trkpt lat="-33.84218252353768" lon="115.33502827674046"><ele>148.0</ele><time>2026-05-02T03:09:58Z</time></trkpt><trkpt lat="-33.842182132468906" lon="115.33483083651521"><ele>147.66666666666669</ele><time>2026-05-02T03:09:59Z</time></trkpt><trkpt lat="-33.84218208248884" lon="115.33463773701871"><ele>147.33333333333334</ele><time>2026-05-02T03:10:00Z</time></trkpt><trkpt lat="-33.84217945816292" lon="115.33444380384636"><ele>147.0</ele><time>2026-05-02T03:10:01Z</time></trkpt><trkpt lat="-33.842180100342866" lon="115.33425261478074"><ele>147.0</ele><time>2026-05-02T03:10:02Z</time></trkpt><trkpt lat="-33.84217944195258" lon="115.33406294857991"><ele>147.0</ele><time>2026-05-02T03:10:03Z</time></trkpt><trkpt lat="-33.842181419728014" lon="115.33387430213418"><ele>147.0</ele><time>2026-05-02T03:10:04Z</time></trkpt><trkpt lat="-33.842183386980096" lon="115.33368626937593"><ele>147.0</ele><time>2026-05-02T03:10:05Z</time></trkpt><trkpt lat="-33.842190357469086" lon="115.33349819839842"><ele>147.0</ele><time>2026-05-02T03:10:06Z</time></trkpt><trkpt lat="-33.84219866585779" lon="115.3333065385752"><ele>147.0</ele><time>2026-05-02T03:10:07Z</time></trkpt><trkpt lat="-33.842210490709775" lon="115.33311563281812"><ele>147.33333333333334</ele><time>2026-05-02T03:10:08Z</time></trkpt><trkpt lat="-33.84222707506851" lon="115.33292288594083"><ele>147.66666666666669</ele><time>2026-05-02T03:10:09Z</time></trkpt><trkpt lat="-33.842242197340475" lon="115.33272613217603"><ele>148.0</ele><time>2026-05-02T03:10:10Z</time></trkpt><trkpt lat="-33.842282701016146" lon="115.33252875363227"><ele>148.0</ele><time>2026-05-02T03:10:11Z</time></trkpt><trkpt lat="-33.84230802053442" lon="115.33232777016552"><ele>148.0</ele><time>2026-05-02T03:10:12Z</time></trkpt><trkpt lat="-33.84233609885113" lon="115.33212251589885"><ele>148.0</ele><time>2026-05-02T03:10:13Z</time></trkpt><trkpt lat="-33.842366289963394" lon="115.33191870938815"><ele>147.66666666666669</ele><time>2026-05-02T03:10:14Z</time></trkpt><trkpt lat="-33.842381265989836" lon="115.33171156761303"><ele>147.33333333333334</ele><time>2026-05-02T03:10:15Z</time></trkpt><trkpt lat="-33.8424125098627" lon="115.33151306186879"><ele>147.0</ele><time>2026-05-02T03:10:16Z</time></trkpt><trkpt lat="-33.842443306458286" lon="115.33131633551976"><ele>146.66666666666666</ele><time>2026-05-02T03:10:17Z</time></trkpt><trkpt lat="-33.842470334961575" lon="115.33112202769674"><ele>146.33333333333331</ele><time>2026-05-02T03:10:18Z</time></trkpt><trkpt lat="-33.84250075669502" lon="115.33092769508158"><ele>146.0</ele><time>2026-05-02T03:10:19Z</time></trkpt><trkpt lat="-33.84253192141686" lon="115.33073417905727"><ele>144.66666666666666</ele><time>2026-05-02T03:10:20Z</time></trkpt><trkpt lat="-33.84257278486041" lon="115.33054373272266"><ele>143.33333333333334</ele><time>2026-05-02T03:10:21Z</time></trkpt><trkpt lat="-33.84262804895528" lon="115.33035616205873"><ele>142.0</ele><time>2026-05-02T03:10:22Z</time></trkpt><trkpt lat="-33.84269092031521" lon="115.33016898597144"><ele>143.0</ele><time>2026-05-02T03:10:23Z</time></trkpt><trkpt lat="-33.842763651667106" lon="115.32998459193175"><ele>144.0</ele><time>2026-05-02T03:10:24Z</time></trkpt><trkpt lat="-33.84284223655047" lon="115.32980197584668"><ele>145.0</ele><time>2026-05-02T03:10:25Z</time></trkpt><trkpt lat="-33.842927794799024" lon="115.32962180925958"><ele>145.0</ele><time>2026-05-02T03:10:26Z</time></trkpt><trkpt lat="-33.84301894382542" lon="115.3294430918167"><ele>145.0</ele><time>2026-05-02T03:10:27Z</time></trkpt><trkpt lat="-33.84310901570894" lon="115.32926274365255"><ele>145.0</ele><time>2026-05-02T03:10:28Z</time></trkpt><trkpt lat="-33.843198178775374" lon="115.32908408991875"><ele>145.0</ele><time>2026-05-02T03:10:29Z</time></trkpt><trkpt lat="-33.84328684955953" lon="115.32890466669947"><ele>145.0</ele><time>2026-05-02T03:10:30Z</time></trkpt><trkpt lat="-33.843369484276174" lon="115.32872745551914"><ele>145.0</ele><time>2026-05-02T03:10:31Z</time></trkpt><trkpt lat="-33.84344917197084" lon="115.32854703279466"><ele>146.66666666666669</ele><time>2026-05-02T03:10:32Z</time></trkpt><trkpt lat="-33.84351496073114" lon="115.32835728944609"><ele>148.33333333333334</ele><time>2026-05-02T03:10:33Z</time></trkpt><trkpt lat="-33.84357125137248" lon="115.3281601892433"><ele>150.0</ele><time>2026-05-02T03:10:34Z</time></trkpt><trkpt lat="-33.84362299410146" lon="115.32795898375039"><ele>150.0</ele><time>2026-05-02T03:10:35Z</time></trkpt><trkpt lat="-33.84368262246072" lon="115.32775573382519"><ele>150.0</ele><time>2026-05-02T03:10:36Z</time></trkpt><trkpt lat="-33.84371874235514" lon="115.32754070434727"><ele>150.0</ele><time>2026-05-02T03:10:37Z</time></trkpt><trkpt lat="-33.84373362431719" lon="115.32732215576264"><ele>149.0</ele><time>2026-05-02T03:10:38Z</time></trkpt><trkpt lat="-33.843769144539934" lon="115.32710482361331"><ele>148.0</ele><time>2026-05-02T03:10:39Z</time></trkpt><trkpt lat="-33.84380725009725" lon="115.32688702692455"><ele>147.0</ele><time>2026-05-02T03:10:40Z</time></trkpt><trkpt lat="-33.84385520681843" lon="115.32667173161283"><ele>147.0</ele><time>2026-05-02T03:10:41Z</time></trkpt><trkpt lat="-33.8439086634568" lon="115.32645914424599"><ele>147.0</ele><time>2026-05-02T03:10:42Z</time></trkpt><trkpt lat="-33.843968001326004" lon="115.32625347034012"><ele>147.0</ele><time>2026-05-02T03:10:43Z</time></trkpt><trkpt lat="-33.844034198765776" lon="115.32605794359188"><ele>145.66666666666666</ele><time>2026-05-02T03:10:44Z</time></trkpt><trkpt lat="-33.84410513592217" lon="115.32587518889014"><ele>144.33333333333331</ele><time>2026-05-02T03:10:45Z</time></trkpt><trkpt lat="-33.84417877928736" lon="115.32569635202483"><ele>143.0</ele><time>2026-05-02T03:10:46Z</time></trkpt><trkpt lat="-33.84425623842198" lon="115.32552503377484"><ele>144.66666666666666</ele><time>2026-05-02T03:10:47Z</time></trkpt><trkpt lat="-33.844336906767474" lon="115.32535138148867"><ele>146.33333333333334</ele><time>2026-05-02T03:10:48Z</time></trkpt><trkpt lat="-33.84441581534917" lon="115.325174652534"><ele>148.0</ele><time>2026-05-02T03:10:49Z</time></trkpt><trkpt lat="-33.844498706599445" lon="115.32499678913057"><ele>148.0</ele><time>2026-05-02T03:10:50Z</time></trkpt><trkpt lat="-33.84458100277637" lon="115.32481344346363"><ele>148.0</ele><time>2026-05-02T03:10:51Z</time></trkpt><trkpt lat="-33.84466774112012" lon="115.32462716332309"><ele>148.0</ele><time>2026-05-02T03:10:52Z</time></trkpt><trkpt lat="-33.844757472634896" lon="115.32443901974412"><ele>147.33333333333334</ele><time>2026-05-02T03:10:53Z</time></trkpt><trkpt lat="-33.844846571314676" lon="115.32424708406056"><ele>146.66666666666666</ele><time>2026-05-02T03:10:54Z</time></trkpt><trkpt lat="-33.844934680149294" lon="115.32405462327847"><ele>146.0</ele><time>2026-05-02T03:10:55Z</time></trkpt><trkpt lat="-33.84502267666923" lon="115.32386044185797"><ele>146.0</ele><time>2026-05-02T03:10:56Z</time></trkpt><trkpt lat="-33.84510971686748" lon="115.32366684036243"><ele>146.0</ele><time>2026-05-02T03:10:57Z</time></trkpt><trkpt lat="-33.845211217148645" lon="115.32348572004918"><ele>146.0</ele><time>2026-05-02T03:10:58Z</time></trkpt><trkpt lat="-33.84529579697754" lon="115.32329769613733"><ele>144.66666666666666</ele><time>2026-05-02T03:10:59Z</time></trkpt><trkpt lat="-33.84537890925864" lon="115.32311138034811"><ele>143.33333333333334</ele><time>2026-05-02T03:11:00Z</time></trkpt><trkpt lat="-33.845462126484676" lon="115.32292417431152"><ele>142.0</ele><time>2026-05-02T03:11:01Z</time></trkpt><trkpt lat="-33.84553124475646" lon="115.32272899530767"><ele>142.0</ele><time>2026-05-02T03:11:02Z</time></trkpt><trkpt lat="-33.84561482647302" lon="115.3225436683631"><ele>142.0</ele><time>2026-05-02T03:11:03Z</time></trkpt><trkpt lat="-33.84569809688346" lon="115.32235798123537"><ele>142.0</ele><time>2026-05-02T03:11:04Z</time></trkpt><trkpt lat="-33.845782429672205" lon="115.32217128535937"><ele>141.0</ele><time>2026-05-02T03:11:05Z</time></trkpt><trkpt lat="-33.84586757493396" lon="115.32198070765189"><ele>140.0</ele><time>2026-05-02T03:11:06Z</time></trkpt><trkpt lat="-33.84595464435182" lon="115.32178738696841"><ele>139.0</ele><time>2026-05-02T03:11:07Z</time></trkpt><trkpt lat="-33.84604077164788" lon="115.32159606144351"><ele>139.66666666666669</ele><time>2026-05-02T03:11:08Z</time></trkpt><trkpt lat="-33.846126702737415" lon="115.32140476065706"><ele>140.33333333333334</ele><time>2026-05-02T03:11:09Z</time></trkpt><trkpt lat="-33.84621129688667" lon="115.3212197915647"><ele>141.0</ele><time>2026-05-02T03:11:10Z</time></trkpt><trkpt lat="-33.84629773271446" lon="115.32103774017813"><ele>141.0</ele><time>2026-05-02T03:11:11Z</time></trkpt><trkpt lat="-33.8463828587746" lon="115.32085843015768"><ele>141.0</ele><time>2026-05-02T03:11:12Z</time></trkpt><trkpt lat="-33.84646346154523" lon="115.3206835378222"><ele>141.0</ele><time>2026-05-02T03:11:13Z</time></trkpt><trkpt lat="-33.846542072949475" lon="115.32051332793404"><ele>139.33333333333334</ele><time>2026-05-02T03:11:14Z</time></trkpt><trkpt lat="-33.84661627447651" lon="115.32034686020768"><ele>137.66666666666669</ele><time>2026-05-02T03:11:15Z</time></trkpt><trkpt lat="-33.84668938544354" lon="115.32017826183613"><ele>136.0</ele><time>2026-05-02T03:11:16Z</time></trkpt><trkpt lat="-33.84676522880366" lon="115.32001022651647"><ele>137.66666666666669</ele><time>2026-05-02T03:11:17Z</time></trkpt><trkpt lat="-33.846841911004184" lon="115.31984173575466"><ele>139.33333333333334</ele><time>2026-05-02T03:11:18Z</time></trkpt><trkpt lat="-33.84691600249748" lon="115.31967395436834"><ele>141.0</ele><time>2026-05-02T03:11:19Z</time></trkpt><trkpt lat="-33.84699068695194" lon="115.31950785708916"><ele>141.0</ele><time>2026-05-02T03:11:20Z</time></trkpt><trkpt lat="-33.847065936687436" lon="115.31933357272695"><ele>141.0</ele><time>2026-05-02T03:11:21Z</time></trkpt><trkpt lat="-33.84714444113809" lon="115.31914818357586"><ele>141.0</ele><time>2026-05-02T03:11:22Z</time></trkpt><trkpt lat="-33.847220443589144" lon="115.31895598801883"><ele>139.66666666666666</ele><time>2026-05-02T03:11:23Z</time></trkpt><trkpt lat="-33.84731284210372" lon="115.31876775610888"><ele>138.33333333333331</ele><time>2026-05-02T03:11:24Z</time></trkpt><trkpt lat="-33.84739018119562" lon="115.31857179024239"><ele>137.0</ele><time>2026-05-02T03:11:25Z</time></trkpt><trkpt lat="-33.84745384863805" lon="115.3183689986627"><ele>137.0</ele><time>2026-05-02T03:11:26Z</time></trkpt><trkpt lat="-33.84753067015724" lon="115.31817714687084"><ele>137.0</ele><time>2026-05-02T03:11:27Z</time></trkpt><trkpt lat="-33.847619844813124" lon="115.31799677864751"><ele>137.0</ele><time>2026-05-02T03:11:28Z</time></trkpt><trkpt lat="-33.847694957715284" lon="115.31781224501978"><ele>138.66666666666666</ele><time>2026-05-02T03:11:29Z</time></trkpt><trkpt lat="-33.84775414524673" lon="115.31762518522709"><ele>140.33333333333334</ele><time>2026-05-02T03:11:30Z</time></trkpt><trkpt lat="-33.847825636210466" lon="115.31744914089559"><ele>142.0</ele><time>2026-05-02T03:11:31Z</time></trkpt><trkpt lat="-33.84789289401665" lon="115.31727617542957"><ele>141.33333333333334</ele><time>2026-05-02T03:11:32Z</time></trkpt><trkpt lat="-33.847958209661975" lon="115.31710598449587"><ele>140.66666666666666</ele><time>2026-05-02T03:11:33Z</time></trkpt><trkpt lat="-33.84802228730798" lon="115.31693944449061"><ele>140.0</ele><time>2026-05-02T03:11:34Z</time></trkpt><trkpt lat="-33.84808625486825" lon="115.31678224067755"><ele>140.0</ele><time>2026-05-02T03:11:35Z</time></trkpt><trkpt lat="-33.848146963897356" lon="115.31662467865519"><ele>140.0</ele><time>2026-05-02T03:11:36Z</time></trkpt><trkpt lat="-33.84820584675861" lon="115.31646832520765"><ele>140.0</ele><time>2026-05-02T03:11:37Z</time></trkpt><trkpt lat="-33.84826609381136" lon="115.31631046080727"><ele>140.0</ele><time>2026-05-02T03:11:38Z</time></trkpt><trkpt lat="-33.84832124333816" lon="115.3161506500397"><ele>140.25</ele><time>2026-05-02T03:11:39Z</time></trkpt><trkpt lat="-33.84837802987869" lon="115.31599285690596"><ele>140.5</ele><time>2026-05-02T03:11:40Z</time></trkpt><trkpt lat="-33.84843232658832" lon="115.31583049334088"><ele>140.75</ele><time>2026-05-02T03:11:41Z</time></trkpt><trkpt lat="-33.8484854225801" lon="115.3156620102766"><ele>141.0</ele><time>2026-05-02T03:11:42Z</time></trkpt><trkpt lat="-33.84853723563917" lon="115.31548683318196"><ele>142.66666666666666</ele><time>2026-05-02T03:11:43Z</time></trkpt><trkpt lat="-33.848583580199275" lon="115.31530783884791"><ele>144.33333333333331</ele><time>2026-05-02T03:11:44Z</time></trkpt><trkpt lat="-33.848646216661116" lon="115.3151363912036"><ele>146.0</ele><time>2026-05-02T03:11:45Z</time></trkpt><trkpt lat="-33.848688973403654" lon="115.31496279283863"><ele>146.0</ele><time>2026-05-02T03:11:46Z</time></trkpt><trkpt lat="-33.84872374760786" lon="115.31479730269767"><ele>146.0</ele><time>2026-05-02T03:11:47Z</time></trkpt><trkpt lat="-33.848734715128266" lon="115.31465462124908"><ele>146.0</ele><time>2026-05-02T03:11:48Z</time></trkpt><trkpt lat="-33.84876233368665" lon="115.31453232948155"><ele>146.0</ele><time>2026-05-02T03:11:49Z</time></trkpt><trkpt lat="-33.84878405515714" lon="115.31442669714076"><ele>145.6</ele><time>2026-05-02T03:11:50Z</time></trkpt><trkpt lat="-33.84879944820257" lon="115.31434229382485"><ele>145.2</ele><time>2026-05-02T03:11:51Z</time></trkpt><trkpt lat="-33.84881745660609" lon="115.31421698130343"><ele>144.8</ele><time>2026-05-02T03:11:53Z</time></trkpt><trkpt lat="-33.848829303357746" lon="115.31412883249287"><ele>144.4</ele><time>2026-05-02T03:11:55Z</time></trkpt><trkpt lat="-33.84882271487583" lon="115.31405007623532"><ele>144.0</ele><time>2026-05-02T03:11:58Z</time></trkpt><trkpt lat="-33.84865532082739" lon="115.3139983158091"><ele>144.0</ele><time>2026-05-02T03:11:59Z</time></trkpt><trkpt lat="-33.84852494368797" lon="115.31402792337406"><ele>144.0</ele><time>2026-05-02T03:12:01Z</time></trkpt><trkpt lat="-33.8484425961606" lon="115.31405188608873"><ele>144.0</ele><time>2026-05-02T03:12:02Z</time></trkpt><trkpt lat="-33.84835139497838" lon="115.31407683168041"><ele>144.0</ele><time>2026-05-02T03:12:03Z</time></trkpt><trkpt lat="-33.84825400067326" lon="115.31410211817432"><ele>144.0</ele><time>2026-05-02T03:12:04Z</time></trkpt><trkpt lat="-33.84815560139082" lon="115.31412475518391"><ele>143.25</ele><time>2026-05-02T03:12:05Z</time></trkpt><trkpt lat="-33.84804053827125" lon="115.31415307752721"><ele>142.5</ele><time>2026-05-02T03:12:06Z</time></trkpt><trkpt lat="-33.84790996449261" lon="115.31418707358819"><ele>141.75</ele><time>2026-05-02T03:12:07Z</time></trkpt><trkpt lat="-33.84776124829167" lon="115.31422616373519"><ele>141.0</ele><time>2026-05-02T03:12:08Z</time></trkpt><trkpt lat="-33.84760654780854" lon="115.31426360684371"><ele>139.66666666666666</ele><time>2026-05-02T03:12:09Z</time></trkpt><trkpt lat="-33.84744943996817" lon="115.31430197807717"><ele>138.33333333333331</ele><time>2026-05-02T03:12:10Z</time></trkpt><trkpt lat="-33.84727747892512" lon="115.31434289334734"><ele>137.0</ele><time>2026-05-02T03:12:11Z</time></trkpt><trkpt lat="-33.84709198204541" lon="115.3143871802347"><ele>137.0</ele><time>2026-05-02T03:12:12Z</time></trkpt><trkpt lat="-33.84689308003014" lon="115.31444003138617"><ele>137.0</ele><time>2026-05-02T03:12:13Z</time></trkpt><trkpt lat="-33.8466907339735" lon="115.31448685271687"><ele>137.0</ele><time>2026-05-02T03:12:14Z</time></trkpt><trkpt lat="-33.846484895938985" lon="115.31453584035265"><ele>134.66666666666666</ele><time>2026-05-02T03:12:15Z</time></trkpt><trkpt lat="-33.84627499950311" lon="115.31458506451403"><ele>132.33333333333334</ele><time>2026-05-02T03:12:16Z</time></trkpt><trkpt lat="-33.846065112948665" lon="115.31463736231397"><ele>130.0</ele><time>2026-05-02T03:12:17Z</time></trkpt><trkpt lat="-33.84585946484422" lon="115.31468729917775"><ele>129.66666666666669</ele><time>2026-05-02T03:12:18Z</time></trkpt><trkpt lat="-33.84565640865408" lon="115.31473601484545"><ele>129.33333333333334</ele><time>2026-05-02T03:12:19Z</time></trkpt><trkpt lat="-33.845456057716724" lon="115.31478419814606"><ele>129.0</ele><time>2026-05-02T03:12:20Z</time></trkpt><trkpt lat="-33.84526027640213" lon="115.31482863326796"><ele>128.0</ele><time>2026-05-02T03:12:21Z</time></trkpt><trkpt lat="-33.84506946449208" lon="115.31487013119956"><ele>127.0</ele><time>2026-05-02T03:12:22Z</time></trkpt><trkpt lat="-33.84488579767717" lon="115.31491171532785"><ele>126.0</ele><time>2026-05-02T03:12:23Z</time></trkpt><trkpt lat="-33.844699600927754" lon="115.31495154709646"><ele>126.0</ele><time>2026-05-02T03:12:24Z</time></trkpt><trkpt lat="-33.844515153451184" lon="115.314997967022"><ele>126.0</ele><time>2026-05-02T03:12:25Z</time></trkpt><trkpt lat="-33.84433656502686" lon="115.31504137354514"><ele>126.0</ele><time>2026-05-02T03:12:26Z</time></trkpt><trkpt lat="-33.84416218794769" lon="115.31508236893258"><ele>125.0</ele><time>2026-05-02T03:12:27Z</time></trkpt><trkpt lat="-33.84398868522336" lon="115.31512305405903"><ele>124.0</ele><time>2026-05-02T03:12:28Z</time></trkpt><trkpt lat="-33.84381927485047" lon="115.31516493165822"><ele>123.0</ele><time>2026-05-02T03:12:29Z</time></trkpt><trkpt lat="-33.84365136967687" lon="115.31520480516139"><ele>123.0</ele><time>2026-05-02T03:12:30Z</time></trkpt><trkpt lat="-33.8434836978504" lon="115.31524395295762"><ele>123.0</ele><time>2026-05-02T03:12:31Z</time></trkpt><trkpt lat="-33.84331524275203" lon="115.3152841309209"><ele>123.0</ele><time>2026-05-02T03:12:32Z</time></trkpt><trkpt lat="-33.8431485973355" lon="115.31532483564783"><ele>122.33333333333334</ele><time>2026-05-02T03:12:33Z</time></trkpt><trkpt lat="-33.84298562424071" lon="115.3153652515266"><ele>121.66666666666667</ele><time>2026-05-02T03:12:34Z</time></trkpt><trkpt lat="-33.84282528505859" lon="115.31540326483056"><ele>121.0</ele><time>2026-05-02T03:12:35Z</time></trkpt><trkpt lat="-33.8426689190252" lon="115.315438510238"><ele>121.0</ele><time>2026-05-02T03:12:36Z</time></trkpt><trkpt lat="-33.84250961900341" lon="115.3154766763466"><ele>121.0</ele><time>2026-05-02T03:12:37Z</time></trkpt><trkpt lat="-33.84234257230302" lon="115.31551693056069"><ele>121.0</ele><time>2026-05-02T03:12:38Z</time></trkpt><trkpt lat="-33.84217373456088" lon="115.31556246012981"><ele>119.33333333333334</ele><time>2026-05-02T03:12:39Z</time></trkpt><trkpt lat="-33.841997450903726" lon="115.315604345825"><ele>117.66666666666666</ele><time>2026-05-02T03:12:40Z</time></trkpt><trkpt lat="-33.841813031329714" lon="115.31564929263703"><ele>116.0</ele><time>2026-05-02T03:12:41Z</time></trkpt><trkpt lat="-33.841616862651136" lon="115.31569484118104"><ele>115.66666666666666</ele><time>2026-05-02T03:12:42Z</time></trkpt><trkpt lat="-33.84141605927985" lon="115.31574393516125"><ele>115.33333333333334</ele><time>2026-05-02T03:12:43Z</time></trkpt><trkpt lat="-33.841216307143995" lon="115.31579425857178"><ele>115.0</ele><time>2026-05-02T03:12:44Z</time></trkpt><trkpt lat="-33.84102092912065" lon="115.31584342344831"><ele>114.33333333333334</ele><time>2026-05-02T03:12:45Z</time></trkpt><trkpt lat="-33.84083240508938" lon="115.31589039070057"><ele>113.66666666666666</ele><time>2026-05-02T03:12:46Z</time></trkpt><trkpt lat="-33.840649837218315" lon="115.3159378272552"><ele>113.0</ele><time>2026-05-02T03:12:47Z</time></trkpt><trkpt lat="-33.840478501970594" lon="115.31597715185055"><ele>113.0</ele><time>2026-05-02T03:12:48Z</time></trkpt><trkpt lat="-33.840320767729686" lon="115.31601472717341"><ele>113.0</ele><time>2026-05-02T03:12:49Z</time></trkpt><trkpt lat="-33.84018473400477" lon="115.31604906496672"><ele>113.0</ele><time>2026-05-02T03:12:50Z</time></trkpt><trkpt lat="-33.840070433073265" lon="115.31607780751875"><ele>113.0</ele><time>2026-05-02T03:12:51Z</time></trkpt><trkpt lat="-33.83997491419832" lon="115.31610170436626"><ele>112.75</ele><time>2026-05-02T03:12:52Z</time></trkpt><trkpt lat="-33.83989382914941" lon="115.31611740868966"><ele>112.5</ele><time>2026-05-02T03:12:53Z</time></trkpt><trkpt lat="-33.83982997061123" lon="115.31611018661908"><ele>112.25</ele><time>2026-05-02T03:12:54Z</time></trkpt><trkpt lat="-33.83976581566127" lon="115.3161151755016"><ele>112.0</ele><time>2026-05-02T03:12:56Z</time></trkpt><trkpt lat="-33.839755002614524" lon="115.31581484504802"><ele>112.0</ele><time>2026-05-02T03:12:58Z</time></trkpt><trkpt lat="-33.839768117209154" lon="115.31570056642015"><ele>112.0</ele><time>2026-05-02T03:12:59Z</time></trkpt><trkpt lat="-33.83976681712236" lon="115.31555705292944"><ele>112.0</ele><time>2026-05-02T03:13:00Z</time></trkpt><trkpt lat="-33.83976373955341" lon="115.31540628885429"><ele>112.0</ele><time>2026-05-02T03:13:01Z</time></trkpt><trkpt lat="-33.839766102352364" lon="115.3152449576975"><ele>112.0</ele><time>2026-05-02T03:13:02Z</time></trkpt><trkpt lat="-33.83976699345505" lon="115.31508092000769"><ele>112.0</ele><time>2026-05-02T03:13:03Z</time></trkpt><trkpt lat="-33.83976980948703" lon="115.31491130208151"><ele>112.0</ele><time>2026-05-02T03:13:04Z</time></trkpt><trkpt lat="-33.8397742533729" lon="115.31474222435429"><ele>112.0</ele><time>2026-05-02T03:13:05Z</time></trkpt><trkpt lat="-33.83977891408431" lon="115.31458152382291"><ele>113.25</ele><time>2026-05-02T03:13:06Z</time></trkpt><trkpt lat="-33.83978184583968" lon="115.31441350290238"><ele>114.5</ele><time>2026-05-02T03:13:07Z</time></trkpt><trkpt lat="-33.83978137143481" lon="115.31424265432524"><ele>115.75</ele><time>2026-05-02T03:13:08Z</time></trkpt><trkpt lat="-33.83977877861106" lon="115.31407000974615"><ele>117.0</ele><time>2026-05-02T03:13:09Z</time></trkpt><trkpt lat="-33.839780231864914" lon="115.31390223795712"><ele>117.6</ele><time>2026-05-02T03:13:10Z</time></trkpt><trkpt lat="-33.83978056736326" lon="115.31374495568734"><ele>118.19999999999999</ele><time>2026-05-02T03:13:11Z</time></trkpt><trkpt lat="-33.839779994117976" lon="115.31361356233974"><ele>118.8</ele><time>2026-05-02T03:13:12Z</time></trkpt><trkpt lat="-33.839779238167175" lon="115.31349483890142"><ele>119.4</ele><time>2026-05-02T03:13:13Z</time></trkpt><trkpt lat="-33.83977725454091" lon="115.31336552991318"><ele>120.0</ele><time>2026-05-02T03:13:14Z</time></trkpt><trkpt lat="-33.83977852677024" lon="115.31322898329934"><ele>120.0</ele><time>2026-05-02T03:13:15Z</time></trkpt><trkpt lat="-33.83978136878032" lon="115.31308293896743"><ele>120.0</ele><time>2026-05-02T03:13:16Z</time></trkpt><trkpt lat="-33.83978088848657" lon="115.31292892470884"><ele>120.0</ele><time>2026-05-02T03:13:17Z</time></trkpt><trkpt lat="-33.83977847099231" lon="115.3127643829469"><ele>120.0</ele><time>2026-05-02T03:13:18Z</time></trkpt><trkpt lat="-33.83977748900945" lon="115.31259000580623"><ele>120.0</ele><time>2026-05-02T03:13:19Z</time></trkpt><trkpt lat="-33.83977610195093" lon="115.31240440639542"><ele>120.0</ele><time>2026-05-02T03:13:20Z</time></trkpt><trkpt lat="-33.8397741575603" lon="115.31221908729714"><ele>120.0</ele><time>2026-05-02T03:13:21Z</time></trkpt><trkpt lat="-33.839773182441355" lon="115.31204234916616"><ele>120.0</ele><time>2026-05-02T03:13:22Z</time></trkpt><trkpt lat="-33.8397757879979" lon="115.3118668352148"><ele>120.0</ele><time>2026-05-02T03:13:23Z</time></trkpt><trkpt lat="-33.839774898710935" lon="115.31169150633802"><ele>120.0</ele><time>2026-05-02T03:13:24Z</time></trkpt><trkpt lat="-33.839772460208046" lon="115.3115156918747"><ele>120.0</ele><time>2026-05-02T03:13:25Z</time></trkpt><trkpt lat="-33.83977322691832" lon="115.31134030088027"><ele>120.75</ele><time>2026-05-02T03:13:26Z</time></trkpt><trkpt lat="-33.83977828034393" lon="115.3111645969463"><ele>121.5</ele><time>2026-05-02T03:13:27Z</time></trkpt><trkpt lat="-33.839779729861974" lon="115.31098931527947"><ele>122.25</ele><time>2026-05-02T03:13:28Z</time></trkpt><trkpt lat="-33.83977938017839" lon="115.31081413955421"><ele>123.0</ele><time>2026-05-02T03:13:29Z</time></trkpt><trkpt lat="-33.83977898166391" lon="115.31063724391575"><ele>121.66666666666666</ele><time>2026-05-02T03:13:30Z</time></trkpt><trkpt lat="-33.83977852930545" lon="115.31045540458823"><ele>120.33333333333333</ele><time>2026-05-02T03:13:31Z</time></trkpt><trkpt lat="-33.8397768691071" lon="115.31026919207181"><ele>119.0</ele><time>2026-05-02T03:13:32Z</time></trkpt><trkpt lat="-33.839774586679674" lon="115.31008171335817"><ele>119.0</ele><time>2026-05-02T03:13:33Z</time></trkpt><trkpt lat="-33.839769989153176" lon="115.30988133314709"><ele>119.0</ele><time>2026-05-02T03:13:34Z</time></trkpt><trkpt lat="-33.839763475353315" lon="115.3096776214829"><ele>119.0</ele><time>2026-05-02T03:13:35Z</time></trkpt><trkpt lat="-33.83976078191781" lon="115.30947719960876"><ele>119.0</ele><time>2026-05-02T03:13:36Z</time></trkpt><trkpt lat="-33.839759096354186" lon="115.30927855409807"><ele>119.0</ele><time>2026-05-02T03:13:37Z</time></trkpt><trkpt lat="-33.83975838121842" lon="115.30908517449045"><ele>119.0</ele><time>2026-05-02T03:13:38Z</time></trkpt><trkpt lat="-33.839758308811696" lon="115.30889620614288"><ele>118.75</ele><time>2026-05-02T03:13:39Z</time></trkpt><trkpt lat="-33.83975914684581" lon="115.30871269613301"><ele>118.5</ele><time>2026-05-02T03:13:40Z</time></trkpt><trkpt lat="-33.83976193960463" lon="115.30853734700075"><ele>118.25</ele><time>2026-05-02T03:13:41Z</time></trkpt><trkpt lat="-33.83976406115734" lon="115.30836877721948"><ele>118.0</ele><time>2026-05-02T03:13:42Z</time></trkpt><trkpt lat="-33.83976463293679" lon="115.30820520057215"><ele>118.0</ele><time>2026-05-02T03:13:43Z</time></trkpt><trkpt lat="-33.83976398715976" lon="115.30804474834196"><ele>118.00000000000001</ele><time>2026-05-02T03:13:44Z</time></trkpt><trkpt lat="-33.83976260081743" lon="115.30789913544783"><ele>118.00000000000001</ele><time>2026-05-02T03:13:45Z</time></trkpt><trkpt lat="-33.83976463008495" lon="115.30777722915208"><ele>118.0</ele><time>2026-05-02T03:13:46Z</time></trkpt><trkpt lat="-33.83977489598858" lon="115.30768009478848"><ele>118.0</ele><time>2026-05-02T03:13:47Z</time></trkpt><trkpt lat="-33.83979334297593" lon="115.30760295969027"><ele>118.00000000000001</ele><time>2026-05-02T03:13:48Z</time></trkpt><trkpt lat="-33.83982079390255" lon="115.30752973369188"><ele>118.0</ele><time>2026-05-02T03:13:49Z</time></trkpt><trkpt lat="-33.83989671625277" lon="115.30747080190763"><ele>118.0</ele><time>2026-05-02T03:13:51Z</time></trkpt><trkpt lat="-33.83995768179033" lon="115.30750540290187"><ele>118.0</ele><time>2026-05-02T03:13:53Z</time></trkpt><trkpt lat="-33.83996289269134" lon="115.3076105796198"><ele>118.00000000000001</ele><time>2026-05-02T03:17:11Z</time></trkpt><trkpt lat="-33.83990170413778" lon="115.3076428755698"><ele>118.0</ele><time>2026-05-02T03:17:14Z</time></trkpt><trkpt lat="-33.83983567988882" lon="115.30767665665253"><ele>118.0</ele><time>2026-05-02T03:17:18Z</time></trkpt><trkpt lat="-33.83977936318442" lon="115.30775851014327"><ele>118.0</ele><time>2026-05-02T03:17:21Z</time></trkpt><trkpt lat="-33.839753271015695" lon="115.30784622666867"><ele>118.0</ele><time>2026-05-02T03:17:24Z</time></trkpt><trkpt lat="-33.83975739621434" lon="115.3079284480453"><ele>118.0</ele><time>2026-05-02T03:17:26Z</time></trkpt><trkpt lat="-33.839762557074394" lon="115.30801245968577"><ele>118.0</ele><time>2026-05-02T03:17:28Z</time></trkpt><trkpt lat="-33.83976388787583" lon="115.30809126134123"><ele>118.0</ele><time>2026-05-02T03:17:30Z</time></trkpt><trkpt lat="-33.83976521068377" lon="115.30818739307472"><ele>118.0</ele><time>2026-05-02T03:17:32Z</time></trkpt><trkpt lat="-33.83976593302204" lon="115.30829548893401"><ele>118.0</ele><time>2026-05-02T03:17:34Z</time></trkpt><trkpt lat="-33.83976231460039" lon="115.30841943915301"><ele>118.00000000000001</ele><time>2026-05-02T03:17:36Z</time></trkpt><trkpt lat="-33.83976303678996" lon="115.3085655251278"><ele>118.00000000000001</ele><time>2026-05-02T03:17:38Z</time></trkpt><trkpt lat="-33.83976158305646" lon="115.30865967895453"><ele>118.0</ele><time>2026-05-02T03:17:39Z</time></trkpt><trkpt lat="-33.83975837142275" lon="115.30875561108765"><ele>118.0</ele><time>2026-05-02T03:17:40Z</time></trkpt><trkpt lat="-33.83975386764799" lon="115.30885333984038"><ele>118.16666666666667</ele><time>2026-05-02T03:17:41Z</time></trkpt><trkpt lat="-33.83975216727046" lon="115.30895493800256"><ele>118.33333333333334</ele><time>2026-05-02T03:17:42Z</time></trkpt><trkpt lat="-33.83975097151395" lon="115.30906108468297"><ele>118.5</ele><time>2026-05-02T03:17:43Z</time></trkpt><trkpt lat="-33.839756095930476" lon="115.30916195319374"><ele>118.66666666666666</ele><time>2026-05-02T03:17:44Z</time></trkpt><trkpt lat="-33.8397614464595" lon="115.30926851640942"><ele>118.83333333333333</ele><time>2026-05-02T03:17:45Z</time></trkpt><trkpt lat="-33.839765949372264" lon="115.30937405415762"><ele>119.0</ele><time>2026-05-02T03:17:46Z</time></trkpt><trkpt lat="-33.83976816509855" lon="115.30947954710265"><ele>118.99999999999999</ele><time>2026-05-02T03:17:47Z</time></trkpt><trkpt lat="-33.8397688823724" lon="115.30958268567831"><ele>119.0</ele><time>2026-05-02T03:17:48Z</time></trkpt><trkpt lat="-33.83977120479524" lon="115.30968653524232"><ele>119.0</ele><time>2026-05-02T03:17:49Z</time></trkpt><trkpt lat="-33.83977330369824" lon="115.3097894447826"><ele>119.0</ele><time>2026-05-02T03:17:50Z</time></trkpt><trkpt lat="-33.83977380869514" lon="115.30989428864461"><ele>118.99999999999999</ele><time>2026-05-02T03:17:51Z</time></trkpt><trkpt lat="-33.83977519405857" lon="115.30999607387456"><ele>119.0</ele><time>2026-05-02T03:17:52Z</time></trkpt><trkpt lat="-33.83977628262641" lon="115.31009828458788"><ele>119.0</ele><time>2026-05-02T03:17:53Z</time></trkpt><trkpt lat="-33.83977652719061" lon="115.31020294956517"><ele>119.0</ele><time>2026-05-02T03:17:54Z</time></trkpt><trkpt lat="-33.839774893481" lon="115.31031065249498"><ele>119.0</ele><time>2026-05-02T03:17:55Z</time></trkpt><trkpt lat="-33.83977797505742" lon="115.31042411548965"><ele>119.0</ele><time>2026-05-02T03:17:56Z</time></trkpt><trkpt lat="-33.839780335571696" lon="115.3105462077782"><ele>119.0</ele><time>2026-05-02T03:17:57Z</time></trkpt><trkpt lat="-33.83978290290231" lon="115.31067011955864"><ele>119.80000000000001</ele><time>2026-05-02T03:17:58Z</time></trkpt><trkpt lat="-33.83978308851745" lon="115.31078287297052"><ele>120.60000000000001</ele><time>2026-05-02T03:17:59Z</time></trkpt><trkpt lat="-33.83978239025376" lon="115.31090478327428"><ele>121.4</ele><time>2026-05-02T03:18:00Z</time></trkpt><trkpt lat="-33.839777899895175" lon="115.3110389017333"><ele>122.2</ele><time>2026-05-02T03:18:01Z</time></trkpt><trkpt lat="-33.83977169932985" lon="115.31117010747816"><ele>123.0</ele><time>2026-05-02T03:18:02Z</time></trkpt><trkpt lat="-33.83976927675051" lon="115.31131095708896"><ele>122.25</ele><time>2026-05-02T03:18:03Z</time></trkpt><trkpt lat="-33.83976937517395" lon="115.31145400343858"><ele>121.5</ele><time>2026-05-02T03:18:04Z</time></trkpt><trkpt lat="-33.83977043405102" lon="115.31160453323874"><ele>120.75</ele><time>2026-05-02T03:18:05Z</time></trkpt><trkpt lat="-33.839764260490604" lon="115.31174624393351"><ele>120.0</ele><time>2026-05-02T03:18:06Z</time></trkpt><trkpt lat="-33.83976402440233" lon="115.31188791593533"><ele>120.0</ele><time>2026-05-02T03:18:07Z</time></trkpt><trkpt lat="-33.83976028812545" lon="115.3120226280786"><ele>120.0</ele><time>2026-05-02T03:18:08Z</time></trkpt><trkpt lat="-33.83975970466173" lon="115.31215604922271"><ele>120.0</ele><time>2026-05-02T03:18:09Z</time></trkpt><trkpt lat="-33.839758591982424" lon="115.31229761108766"><ele>120.0</ele><time>2026-05-02T03:18:10Z</time></trkpt><trkpt lat="-33.839760281315" lon="115.31243743954828"><ele>120.5</ele><time>2026-05-02T03:18:11Z</time></trkpt><trkpt lat="-33.83976178048189" lon="115.31257669665123"><ele>121.0</ele><time>2026-05-02T03:18:12Z</time></trkpt><trkpt lat="-33.83976706264093" lon="115.31271514381952"><ele>121.5</ele><time>2026-05-02T03:18:13Z</time></trkpt><trkpt lat="-33.83976643948481" lon="115.31284948837188"><ele>122.0</ele><time>2026-05-02T03:18:14Z</time></trkpt><trkpt lat="-33.839766939824926" lon="115.3129881908134"><ele>121.6</ele><time>2026-05-02T03:18:15Z</time></trkpt><trkpt lat="-33.83976634544764" lon="115.31312599882139"><ele>121.19999999999999</ele><time>2026-05-02T03:18:16Z</time></trkpt><trkpt lat="-33.839768085692924" lon="115.31326055354221"><ele>120.8</ele><time>2026-05-02T03:18:17Z</time></trkpt><trkpt lat="-33.83976724636305" lon="115.31339450528553"><ele>120.4</ele><time>2026-05-02T03:18:18Z</time></trkpt><trkpt lat="-33.83977150165616" lon="115.31352904606132"><ele>120.0</ele><time>2026-05-02T03:18:19Z</time></trkpt><trkpt lat="-33.839776950701555" lon="115.31365547114875"><ele>120.0</ele><time>2026-05-02T03:18:20Z</time></trkpt><trkpt lat="-33.839783864499715" lon="115.31378296708294"><ele>120.0</ele><time>2026-05-02T03:18:21Z</time></trkpt><trkpt lat="-33.839793128251216" lon="115.31390141589878"><ele>120.0</ele><time>2026-05-02T03:18:22Z</time></trkpt><trkpt lat="-33.839793654867755" lon="115.31402944718826"><ele>120.0</ele><time>2026-05-02T03:18:23Z</time></trkpt><trkpt lat="-33.839789582701314" lon="115.31416970763499"><ele>120.0</ele><time>2026-05-02T03:18:24Z</time></trkpt><trkpt lat="-33.83978971027838" lon="115.31431558793662"><ele>119.25</ele><time>2026-05-02T03:18:25Z</time></trkpt><trkpt lat="-33.83978380952979" lon="115.31447044654547"><ele>118.5</ele><time>2026-05-02T03:18:26Z</time></trkpt><trkpt lat="-33.839781126495026" lon="115.31461812037487"><ele>117.75</ele><time>2026-05-02T03:18:27Z</time></trkpt><trkpt lat="-33.83978465287075" lon="115.31476359597153"><ele>117.0</ele><time>2026-05-02T03:18:28Z</time></trkpt><trkpt lat="-33.83978745998961" lon="115.3149022957173"><ele>116.0</ele><time>2026-05-02T03:18:29Z</time></trkpt><trkpt lat="-33.83978718259628" lon="115.31503786929233"><ele>114.99999999999999</ele><time>2026-05-02T03:18:30Z</time></trkpt><trkpt lat="-33.839786979693386" lon="115.31516108055841"><ele>113.99999999999999</ele><time>2026-05-02T03:18:31Z</time></trkpt><trkpt lat="-33.83977720121665" lon="115.3152721072835"><ele>113.0</ele><time>2026-05-02T03:18:32Z</time></trkpt><trkpt lat="-33.83976923570706" lon="115.3153803219533"><ele>112.0</ele><time>2026-05-02T03:18:33Z</time></trkpt><trkpt lat="-33.839773342037375" lon="115.3154945377418"><ele>112.00000000000001</ele><time>2026-05-02T03:18:34Z</time></trkpt><trkpt lat="-33.83977336655468" lon="115.31561611175219"><ele>112.0</ele><time>2026-05-02T03:18:35Z</time></trkpt><trkpt lat="-33.83977150134987" lon="115.31573280451236"><ele>112.0</ele><time>2026-05-02T03:18:36Z</time></trkpt><trkpt lat="-33.83978011051047" lon="115.31583561921572"><ele>112.0</ele><time>2026-05-02T03:18:37Z</time></trkpt><trkpt lat="-33.83978450974033" lon="115.31593077944703"><ele>112.00000000000001</ele><time>2026-05-02T03:18:38Z</time></trkpt><trkpt lat="-33.839782820093816" lon="115.31601747160705"><ele>112.0</ele><time>2026-05-02T03:18:39Z</time></trkpt><trkpt lat="-33.839749517023996" lon="115.31612486540136"><ele>112.0</ele><time>2026-05-02T03:18:41Z</time></trkpt><trkpt lat="-33.83966938027523" lon="115.31620230151485"><ele>111.99999999999999</ele><time>2026-05-02T03:18:43Z</time></trkpt><trkpt lat="-33.83960782923317" lon="115.31621928788451"><ele>111.99999999999999</ele><time>2026-05-02T03:18:44Z</time></trkpt><trkpt lat="-33.83951528275646" lon="115.31620960618342"><ele>112.0</ele><time>2026-05-02T03:18:45Z</time></trkpt><trkpt lat="-33.83941672819047" lon="115.3162346808587"><ele>112.0</ele><time>2026-05-02T03:18:46Z</time></trkpt><trkpt lat="-33.839308283135665" lon="115.31626346692302"><ele>112.0</ele><time>2026-05-02T03:18:47Z</time></trkpt><trkpt lat="-33.83920960042676" lon="115.31630676321993"><ele>112.0</ele><time>2026-05-02T03:18:48Z</time></trkpt><trkpt lat="-33.839102482868846" lon="115.31632913823486"><ele>112.0</ele><time>2026-05-02T03:18:49Z</time></trkpt><trkpt lat="-33.83897499464436" lon="115.31636323290219"><ele>112.0</ele><time>2026-05-02T03:18:50Z</time></trkpt><trkpt lat="-33.83883183401881" lon="115.31641234584882"><ele>112.66666666666667</ele><time>2026-05-02T03:18:51Z</time></trkpt><trkpt lat="-33.838681882697806" lon="115.31643295816001"><ele>113.33333333333334</ele><time>2026-05-02T03:18:52Z</time></trkpt><trkpt lat="-33.83853548798843" lon="115.31648440802391"><ele>114.0</ele><time>2026-05-02T03:18:53Z</time></trkpt><trkpt lat="-33.8383865005811" lon="115.31652255094082"><ele>114.0</ele><time>2026-05-02T03:18:54Z</time></trkpt><trkpt lat="-33.83823343269086" lon="115.3165667635828"><ele>114.0</ele><time>2026-05-02T03:18:55Z</time></trkpt><trkpt lat="-33.83807426589128" lon="115.31659187665711"><ele>114.0</ele><time>2026-05-02T03:18:56Z</time></trkpt><trkpt lat="-33.83792339292814" lon="115.3166316264749"><ele>114.0</ele><time>2026-05-02T03:18:57Z</time></trkpt><trkpt lat="-33.837774049697366" lon="115.31667051001044"><ele>114.0</ele><time>2026-05-02T03:18:58Z</time></trkpt><trkpt lat="-33.83762093497456" lon="115.31671060683162"><ele>114.0</ele><time>2026-05-02T03:18:59Z</time></trkpt><trkpt lat="-33.83746736896949" lon="115.31675098637649"><ele>114.0</ele><time>2026-05-02T03:19:00Z</time></trkpt><trkpt lat="-33.837319028320096" lon="115.3167912158378"><ele>114.0</ele><time>2026-05-02T03:19:01Z</time></trkpt><trkpt lat="-33.83718477496615" lon="115.31682772674893"><ele>114.0</ele><time>2026-05-02T03:19:02Z</time></trkpt><trkpt lat="-33.83703730411947" lon="115.31686745072906"><ele>114.0</ele><time>2026-05-02T03:19:03Z</time></trkpt><trkpt lat="-33.836885437905366" lon="115.31692698706276"><ele>112.66666666666666</ele><time>2026-05-02T03:19:04Z</time></trkpt><trkpt lat="-33.83673340404436" lon="115.31696863928553"><ele>111.33333333333333</ele><time>2026-05-02T03:19:05Z</time></trkpt><trkpt lat="-33.83657785016986" lon="115.31700458120096"><ele>110.0</ele><time>2026-05-02T03:19:06Z</time></trkpt><trkpt lat="-33.83642202495286" lon="115.31704751338046"><ele>110.0</ele><time>2026-05-02T03:19:07Z</time></trkpt><trkpt lat="-33.8362580772695" lon="115.3170922815385"><ele>110.0</ele><time>2026-05-02T03:19:08Z</time></trkpt><trkpt lat="-33.83609200971183" lon="115.31711207492374"><ele>110.0</ele><time>2026-05-02T03:19:09Z</time></trkpt><trkpt lat="-33.835923867094664" lon="115.31717049262437"><ele>109.66666666666666</ele><time>2026-05-02T03:19:10Z</time></trkpt><trkpt lat="-33.835753771784724" lon="115.31719575055324"><ele>109.33333333333334</ele><time>2026-05-02T03:19:11Z</time></trkpt><trkpt lat="-33.83558783103655" lon="115.31723652912437"><ele>109.0</ele><time>2026-05-02T03:19:12Z</time></trkpt><trkpt lat="-33.83542158297774" lon="115.31729724243748"><ele>109.0</ele><time>2026-05-02T03:19:13Z</time></trkpt><trkpt lat="-33.83525251066914" lon="115.31734179493026"><ele>109.0</ele><time>2026-05-02T03:19:14Z</time></trkpt><trkpt lat="-33.83509039500547" lon="115.31738288196706"><ele>109.0</ele><time>2026-05-02T03:19:15Z</time></trkpt><trkpt lat="-33.834926685091474" lon="115.31742452048482"><ele>108.33333333333334</ele><time>2026-05-02T03:19:16Z</time></trkpt><trkpt lat="-33.83475832670729" lon="115.31746403129264"><ele>107.66666666666666</ele><time>2026-05-02T03:19:17Z</time></trkpt><trkpt lat="-33.834593007928696" lon="115.31750396673446"><ele>107.0</ele><time>2026-05-02T03:19:18Z</time></trkpt><trkpt lat="-33.83442804865712" lon="115.31754350423412"><ele>105.33333333333333</ele><time>2026-05-02T03:19:19Z</time></trkpt><trkpt lat="-33.83426753830465" lon="115.31759319489264"><ele>103.66666666666666</ele><time>2026-05-02T03:19:20Z</time></trkpt><trkpt lat="-33.8340941356295" lon="115.31764099698572"><ele>102.0</ele><time>2026-05-02T03:19:21Z</time></trkpt><trkpt lat="-33.83392053284062" lon="115.31768963191723"><ele>102.0</ele><time>2026-05-02T03:19:22Z</time></trkpt><trkpt lat="-33.83374964149263" lon="115.31774349055691"><ele>102.0</ele><time>2026-05-02T03:19:23Z</time></trkpt><trkpt lat="-33.833586289473665" lon="115.31776647494873"><ele>102.0</ele><time>2026-05-02T03:19:24Z</time></trkpt><trkpt lat="-33.83342342545156" lon="115.31780820858741"><ele>101.0</ele><time>2026-05-02T03:19:25Z</time></trkpt><trkpt lat="-33.83325404024237" lon="115.31787072133153"><ele>100.0</ele><time>2026-05-02T03:19:26Z</time></trkpt><trkpt lat="-33.833087253696554" lon="115.31791342058996"><ele>99.0</ele><time>2026-05-02T03:19:27Z</time></trkpt><trkpt lat="-33.83291762418795" lon="115.31795762032276"><ele>99.0</ele><time>2026-05-02T03:19:28Z</time></trkpt><trkpt lat="-33.83275020618205" lon="115.31800654375125"><ele>99.0</ele><time>2026-05-02T03:19:29Z</time></trkpt><trkpt lat="-33.832577775235606" lon="115.31805267005299"><ele>99.0</ele><time>2026-05-02T03:19:30Z</time></trkpt><trkpt lat="-33.832409414889135" lon="115.31810198032031"><ele>99.0</ele><time>2026-05-02T03:19:31Z</time></trkpt><trkpt lat="-33.83223196072686" lon="115.3181495077087"><ele>99.0</ele><time>2026-05-02T03:19:32Z</time></trkpt><trkpt lat="-33.83207580849646" lon="115.31820113621424"><ele>99.0</ele><time>2026-05-02T03:19:33Z</time></trkpt><trkpt lat="-33.83191585000751" lon="115.31825400313218"><ele>98.0</ele><time>2026-05-02T03:19:34Z</time></trkpt><trkpt lat="-33.831741840151025" lon="115.31830005954262"><ele>97.0</ele><time>2026-05-02T03:19:35Z</time></trkpt><trkpt lat="-33.83157407342953" lon="115.31834118948089"><ele>96.0</ele><time>2026-05-02T03:19:36Z</time></trkpt><trkpt lat="-33.83140186738843" lon="115.31838368742234"><ele>96.0</ele><time>2026-05-02T03:19:37Z</time></trkpt><trkpt lat="-33.8312281341125" lon="115.31842640882887"><ele>96.0</ele><time>2026-05-02T03:19:38Z</time></trkpt><trkpt lat="-33.83105001764789" lon="115.31846992248273"><ele>96.0</ele><time>2026-05-02T03:19:39Z</time></trkpt><trkpt lat="-33.83086644191518" lon="115.31850428661645"><ele>96.33333333333334</ele><time>2026-05-02T03:19:40Z</time></trkpt><trkpt lat="-33.830684999293844" lon="115.31853410995852"><ele>96.66666666666667</ele><time>2026-05-02T03:19:41Z</time></trkpt><trkpt lat="-33.83050444051234" lon="115.31858113759297"><ele>97.0</ele><time>2026-05-02T03:19:42Z</time></trkpt><trkpt lat="-33.83033023941628" lon="115.31861495033775"><ele>97.0</ele><time>2026-05-02T03:19:43Z</time></trkpt><trkpt lat="-33.83014727979464" lon="115.31864655422338"><ele>97.0</ele><time>2026-05-02T03:19:44Z</time></trkpt><trkpt lat="-33.82997529351113" lon="115.31867753289846"><ele>97.0</ele><time>2026-05-02T03:19:45Z</time></trkpt><trkpt lat="-33.829800125068175" lon="115.31871983696091"><ele>97.33333333333334</ele><time>2026-05-02T03:19:46Z</time></trkpt><trkpt lat="-33.82963353701403" lon="115.31874919224651"><ele>97.66666666666666</ele><time>2026-05-02T03:19:47Z</time></trkpt><trkpt lat="-33.82947823538311" lon="115.31878732004712"><ele>98.0</ele><time>2026-05-02T03:19:48Z</time></trkpt><trkpt lat="-33.82932851651952" lon="115.31883997506121"><ele>98.75</ele><time>2026-05-02T03:19:49Z</time></trkpt><trkpt lat="-33.82919448867402" lon="115.3188965472901"><ele>99.5</ele><time>2026-05-02T03:19:50Z</time></trkpt><trkpt lat="-33.82906626065003" lon="115.31896080719454"><ele>100.25</ele><time>2026-05-02T03:19:51Z</time></trkpt><trkpt lat="-33.82893912484279" lon="115.31906947258764"><ele>101.0</ele><time>2026-05-02T03:19:52Z</time></trkpt><trkpt lat="-33.82882930857533" lon="115.31918706718193"><ele>101.0</ele><time>2026-05-02T03:19:53Z</time></trkpt><trkpt lat="-33.82871499088342" lon="115.31932469448977"><ele>101.0</ele><time>2026-05-02T03:19:54Z</time></trkpt><trkpt lat="-33.82860003664177" lon="115.3194740303213"><ele>101.0</ele><time>2026-05-02T03:19:55Z</time></trkpt><trkpt lat="-33.82848407669377" lon="115.31962628937424"><ele>99.0</ele><time>2026-05-02T03:19:56Z</time></trkpt><trkpt lat="-33.82837131095743" lon="115.31978293621592"><ele>97.0</ele><time>2026-05-02T03:19:57Z</time></trkpt><trkpt lat="-33.82825448461954" lon="115.31991409166778"><ele>95.0</ele><time>2026-05-02T03:19:58Z</time></trkpt><trkpt lat="-33.82813716749349" lon="115.32004793687155"><ele>95.0</ele><time>2026-05-02T03:19:59Z</time></trkpt><trkpt lat="-33.82801942190184" lon="115.32018153878872"><ele>95.0</ele><time>2026-05-02T03:20:00Z</time></trkpt><trkpt lat="-33.82790446586604" lon="115.32032610271183"><ele>95.0</ele><time>2026-05-02T03:20:01Z</time></trkpt><trkpt lat="-33.82779150118719" lon="115.32046761578991"><ele>94.33333333333334</ele><time>2026-05-02T03:20:02Z</time></trkpt><trkpt lat="-33.82767608141255" lon="115.32060954972546"><ele>93.66666666666667</ele><time>2026-05-02T03:20:03Z</time></trkpt><trkpt lat="-33.827561620032235" lon="115.32075089565437"><ele>93.0</ele><time>2026-05-02T03:20:04Z</time></trkpt><trkpt lat="-33.82744749128127" lon="115.3208873419924"><ele>93.0</ele><time>2026-05-02T03:20:05Z</time></trkpt><trkpt lat="-33.82733652656846" lon="115.3210263347177"><ele>93.0</ele><time>2026-05-02T03:20:06Z</time></trkpt><trkpt lat="-33.82723210260856" lon="115.3211668437891"><ele>93.0</ele><time>2026-05-02T03:20:07Z</time></trkpt><trkpt lat="-33.827131398272776" lon="115.32131101110201"><ele>93.66666666666667</ele><time>2026-05-02T03:20:08Z</time></trkpt><trkpt lat="-33.82703343683288" lon="115.32144463028827"><ele>94.33333333333334</ele><time>2026-05-02T03:20:09Z</time></trkpt><trkpt lat="-33.82693280971966" lon="115.32159460530818"><ele>95.0</ele><time>2026-05-02T03:20:10Z</time></trkpt><trkpt lat="-33.82683114781088" lon="115.32173494525115"><ele>93.33333333333334</ele><time>2026-05-02T03:20:11Z</time></trkpt><trkpt lat="-33.82672587277896" lon="115.32186888245862"><ele>91.66666666666667</ele><time>2026-05-02T03:20:12Z</time></trkpt><trkpt lat="-33.826611284758364" lon="115.32199285067384"><ele>90.0</ele><time>2026-05-02T03:20:13Z</time></trkpt><trkpt lat="-33.82648986219915" lon="115.32210601764936"><ele>90.0</ele><time>2026-05-02T03:20:14Z</time></trkpt><trkpt lat="-33.82636551876167" lon="115.32219382580537"><ele>90.0</ele><time>2026-05-02T03:20:15Z</time></trkpt><trkpt lat="-33.82623283639922" lon="115.3222406679529"><ele>90.0</ele><time>2026-05-02T03:20:16Z</time></trkpt><trkpt lat="-33.82609506409217" lon="115.32226646310583"><ele>90.0</ele><time>2026-05-02T03:20:17Z</time></trkpt><trkpt lat="-33.82594284559093" lon="115.32227040380174"><ele>91.0</ele><time>2026-05-02T03:20:18Z</time></trkpt><trkpt lat="-33.825782120786855" lon="115.32227349997333"><ele>92.0</ele><time>2026-05-02T03:20:19Z</time></trkpt><trkpt lat="-33.82561912974244" lon="115.32227825747331"><ele>93.0</ele><time>2026-05-02T03:20:20Z</time></trkpt><trkpt lat="-33.8254511665223" lon="115.32228940401848"><ele>93.0</ele><time>2026-05-02T03:20:21Z</time></trkpt><trkpt lat="-33.825282889684594" lon="115.32231372270647"><ele>93.0</ele><time>2026-05-02T03:20:22Z</time></trkpt><trkpt lat="-33.825110034438055" lon="115.32236091249725"><ele>93.0</ele><time>2026-05-02T03:20:23Z</time></trkpt><trkpt lat="-33.82494282138979" lon="115.3224272711324"><ele>93.33333333333333</ele><time>2026-05-02T03:20:24Z</time></trkpt><trkpt lat="-33.82477231935954" lon="115.32252765068907"><ele>93.66666666666666</ele><time>2026-05-02T03:20:25Z</time></trkpt><trkpt lat="-33.82460647205469" lon="115.3226238464922"><ele>94.0</ele><time>2026-05-02T03:20:26Z</time></trkpt><trkpt lat="-33.824442027628" lon="115.32272353676191"><ele>96.66666666666666</ele><time>2026-05-02T03:20:27Z</time></trkpt><trkpt lat="-33.82428070651865" lon="115.32281019129026"><ele>99.33333333333333</ele><time>2026-05-02T03:20:28Z</time></trkpt><trkpt lat="-33.824128570844636" lon="115.3228911361068"><ele>102.0</ele><time>2026-05-02T03:20:29Z</time></trkpt><trkpt lat="-33.82397879646449" lon="115.32298211153524"><ele>102.0</ele><time>2026-05-02T03:20:30Z</time></trkpt><trkpt lat="-33.82383344638768" lon="115.32306225587"><ele>102.0</ele><time>2026-05-02T03:20:31Z</time></trkpt><trkpt lat="-33.823686454015494" lon="115.32314755227542"><ele>102.0</ele><time>2026-05-02T03:20:32Z</time></trkpt><trkpt lat="-33.82355842690801" lon="115.32323163074884"><ele>102.5</ele><time>2026-05-02T03:20:33Z</time></trkpt><trkpt lat="-33.82344597867828" lon="115.32333454201496"><ele>103.0</ele><time>2026-05-02T03:20:34Z</time></trkpt><trkpt lat="-33.823351119445675" lon="115.32345829810492"><ele>103.5</ele><time>2026-05-02T03:20:35Z</time></trkpt><trkpt lat="-33.82326959399724" lon="115.32360484518223"><ele>104.0</ele><time>2026-05-02T03:20:36Z</time></trkpt><trkpt lat="-33.82319388041022" lon="115.32377224413209"><ele>104.33333333333333</ele><time>2026-05-02T03:20:37Z</time></trkpt><trkpt lat="-33.82312012868249" lon="115.3239552585779"><ele>104.66666666666666</ele><time>2026-05-02T03:20:38Z</time></trkpt><trkpt lat="-33.823037446845476" lon="115.3241485048475"><ele>105.0</ele><time>2026-05-02T03:20:39Z</time></trkpt><trkpt lat="-33.822951443137185" lon="115.32435640359336"><ele>105.0</ele><time>2026-05-02T03:20:40Z</time></trkpt><trkpt lat="-33.82286043029928" lon="115.32456461801132"><ele>105.0</ele><time>2026-05-02T03:20:41Z</time></trkpt><trkpt lat="-33.822769651637984" lon="115.32477356126024"><ele>105.0</ele><time>2026-05-02T03:20:42Z</time></trkpt><trkpt lat="-33.82268262367262" lon="115.32497547532446"><ele>105.0</ele><time>2026-05-02T03:20:43Z</time></trkpt><trkpt lat="-33.8225974532766" lon="115.32517812913207"><ele>105.0</ele><time>2026-05-02T03:20:44Z</time></trkpt><trkpt lat="-33.822502977509366" lon="115.32538229697771"><ele>105.0</ele><time>2026-05-02T03:20:45Z</time></trkpt><trkpt lat="-33.822408492350725" lon="115.32559436106226"><ele>106.0</ele><time>2026-05-02T03:20:46Z</time></trkpt><trkpt lat="-33.82231063708349" lon="115.32580102436579"><ele>107.0</ele><time>2026-05-02T03:20:47Z</time></trkpt><trkpt lat="-33.82218909878689" lon="115.32601928310909"><ele>108.0</ele><time>2026-05-02T03:20:48Z</time></trkpt><trkpt lat="-33.82205358290771" lon="115.32620377352362"><ele>108.0</ele><time>2026-05-02T03:20:49Z</time></trkpt><trkpt lat="-33.82190811565749" lon="115.32637819870645"><ele>108.0</ele><time>2026-05-02T03:20:50Z</time></trkpt><trkpt lat="-33.82175689185264" lon="115.32654468820425"><ele>108.0</ele><time>2026-05-02T03:20:51Z</time></trkpt><trkpt lat="-33.821607212552344" lon="115.3267053876516"><ele>106.33333333333334</ele><time>2026-05-02T03:20:52Z</time></trkpt><trkpt lat="-33.82145733292667" lon="115.32687383947564"><ele>104.66666666666667</ele><time>2026-05-02T03:20:53Z</time></trkpt><trkpt lat="-33.821309511159804" lon="115.32702972317884"><ele>103.0</ele><time>2026-05-02T03:20:54Z</time></trkpt><trkpt lat="-33.82117020695439" lon="115.32718937901106"><ele>103.66666666666667</ele><time>2026-05-02T03:20:55Z</time></trkpt><trkpt lat="-33.82103074750283" lon="115.3273453983594"><ele>104.33333333333334</ele><time>2026-05-02T03:20:56Z</time></trkpt><trkpt lat="-33.8208937014158" lon="115.32749986904307"><ele>105.0</ele><time>2026-05-02T03:20:57Z</time></trkpt><trkpt lat="-33.82075765805118" lon="115.32765518426166"><ele>105.0</ele><time>2026-05-02T03:20:58Z</time></trkpt><trkpt lat="-33.82063202544563" lon="115.32780364019568"><ele>105.0</ele><time>2026-05-02T03:20:59Z</time></trkpt><trkpt lat="-33.82051452875688" lon="115.32795402625324"><ele>105.0</ele><time>2026-05-02T03:21:00Z</time></trkpt><trkpt lat="-33.820414993447336" lon="115.32811236348105"><ele>105.33333333333334</ele><time>2026-05-02T03:21:01Z</time></trkpt><trkpt lat="-33.82032433016263" lon="115.32827791491697"><ele>105.66666666666667</ele><time>2026-05-02T03:21:02Z</time></trkpt><trkpt lat="-33.8202321140483" lon="115.32844250573089"><ele>106.0</ele><time>2026-05-02T03:21:03Z</time></trkpt><trkpt lat="-33.820130360015625" lon="115.3286173136379"><ele>105.66666666666667</ele><time>2026-05-02T03:21:04Z</time></trkpt><trkpt lat="-33.82002623294874" lon="115.32879119149624"><ele>105.33333333333334</ele><time>2026-05-02T03:21:05Z</time></trkpt><trkpt lat="-33.819920284452216" lon="115.3289678665545"><ele>105.0</ele><time>2026-05-02T03:21:06Z</time></trkpt><trkpt lat="-33.819809932020526" lon="115.32914621902265"><ele>105.0</ele><time>2026-05-02T03:21:07Z</time></trkpt><trkpt lat="-33.81967965968836" lon="115.32931491991519"><ele>105.0</ele><time>2026-05-02T03:21:08Z</time></trkpt><trkpt lat="-33.81957106677647" lon="115.32949755551896"><ele>105.0</ele><time>2026-05-02T03:21:09Z</time></trkpt><trkpt lat="-33.81946765875882" lon="115.32967207147732"><ele>104.66666666666666</ele><time>2026-05-02T03:21:10Z</time></trkpt><trkpt lat="-33.81937181012089" lon="115.32986402436286"><ele>104.33333333333333</ele><time>2026-05-02T03:21:11Z</time></trkpt><trkpt lat="-33.819248290087785" lon="115.33002938156125"><ele>104.0</ele><time>2026-05-02T03:21:12Z</time></trkpt><trkpt lat="-33.81913331514295" lon="115.33021752088695"><ele>105.33333333333333</ele><time>2026-05-02T03:21:13Z</time></trkpt><trkpt lat="-33.81901590846291" lon="115.33041112077248"><ele>106.66666666666666</ele><time>2026-05-02T03:21:14Z</time></trkpt><trkpt lat="-33.818898267793664" lon="115.33060552971443"><ele>108.0</ele><time>2026-05-02T03:21:15Z</time></trkpt><trkpt lat="-33.81879151783031" lon="115.33081212341256"><ele>108.0</ele><time>2026-05-02T03:21:16Z</time></trkpt><trkpt lat="-33.818666012008606" lon="115.3310127890814"><ele>108.0</ele><time>2026-05-02T03:21:17Z</time></trkpt><trkpt lat="-33.81853814850832" lon="115.33121190670755"><ele>108.0</ele><time>2026-05-02T03:21:18Z</time></trkpt><trkpt lat="-33.81840469799184" lon="115.33141673712737"><ele>107.66666666666666</ele><time>2026-05-02T03:21:19Z</time></trkpt><trkpt lat="-33.81827950151185" lon="115.33161389839374"><ele>107.33333333333333</ele><time>2026-05-02T03:21:20Z</time></trkpt><trkpt lat="-33.818154103773836" lon="115.33181155353405"><ele>107.0</ele><time>2026-05-02T03:21:21Z</time></trkpt><trkpt lat="-33.81802824020081" lon="115.33201079885629"><ele>107.0</ele><time>2026-05-02T03:21:22Z</time></trkpt><trkpt lat="-33.81790395936883" lon="115.33220664767035"><ele>107.0</ele><time>2026-05-02T03:21:23Z</time></trkpt><trkpt lat="-33.817781047825584" lon="115.33239433363403"><ele>107.0</ele><time>2026-05-02T03:21:24Z</time></trkpt><trkpt lat="-33.81765682073987" lon="115.33257518607003"><ele>106.0</ele><time>2026-05-02T03:21:25Z</time></trkpt><trkpt lat="-33.81752141245364" lon="115.33274081530305"><ele>105.0</ele><time>2026-05-02T03:21:26Z</time></trkpt><trkpt lat="-33.81735347058779" lon="115.33285209710202"><ele>104.0</ele><time>2026-05-02T03:21:27Z</time></trkpt><trkpt lat="-33.817178729348115" lon="115.33293575142731"><ele>104.0</ele><time>2026-05-02T03:21:28Z</time></trkpt><trkpt lat="-33.81699557425363" lon="115.33298051685709"><ele>104.0</ele><time>2026-05-02T03:21:29Z</time></trkpt><trkpt lat="-33.81679646443278" lon="115.33300132131168"><ele>104.0</ele><time>2026-05-02T03:21:30Z</time></trkpt><trkpt lat="-33.81658254289574" lon="115.3330327972555"><ele>104.0</ele><time>2026-05-02T03:21:31Z</time></trkpt><trkpt lat="-33.816357166457855" lon="115.33303836990444"><ele>104.0</ele><time>2026-05-02T03:21:32Z</time></trkpt><trkpt lat="-33.81612806442063" lon="115.3330357227303"><ele>102.33333333333333</ele><time>2026-05-02T03:21:33Z</time></trkpt><trkpt lat="-33.81590889434867" lon="115.3330210565015"><ele>100.66666666666666</ele><time>2026-05-02T03:21:34Z</time></trkpt><trkpt lat="-33.81569906116072" lon="115.33298497327499"><ele>99.0</ele><time>2026-05-02T03:21:35Z</time></trkpt><trkpt lat="-33.81551203821836" lon="115.3328841440728"><ele>99.0</ele><time>2026-05-02T03:21:36Z</time></trkpt><trkpt lat="-33.815350169151685" lon="115.33275887998914"><ele>99.0</ele><time>2026-05-02T03:21:37Z</time></trkpt><trkpt lat="-33.81521896345466" lon="115.33260211843003"><ele>99.0</ele><time>2026-05-02T03:21:38Z</time></trkpt><trkpt lat="-33.81509806448342" lon="115.33242521202553"><ele>100.0</ele><time>2026-05-02T03:21:39Z</time></trkpt><trkpt lat="-33.81496060405605" lon="115.33224371633324"><ele>101.0</ele><time>2026-05-02T03:21:40Z</time></trkpt><trkpt lat="-33.814834498383625" lon="115.33203897640321"><ele>102.0</ele><time>2026-05-02T03:21:41Z</time></trkpt><trkpt lat="-33.81470096052107" lon="115.33184044919463"><ele>102.33333333333334</ele><time>2026-05-02T03:21:42Z</time></trkpt><trkpt lat="-33.81456200093444" lon="115.3316342489872"><ele>102.66666666666667</ele><time>2026-05-02T03:21:43Z</time></trkpt><trkpt lat="-33.814424176287204" lon="115.33142413621536"><ele>103.0</ele><time>2026-05-02T03:21:44Z</time></trkpt><trkpt lat="-33.81428591793055" lon="115.33120759790417"><ele>108.5</ele><time>2026-05-02T03:21:45Z</time></trkpt><trkpt lat="-33.81414177264321" lon="115.33099010110189"><ele>114.0</ele><time>2026-05-02T03:21:46Z</time></trkpt><trkpt lat="-33.81399362084058" lon="115.33077477375097"><ele>114.0</ele><time>2026-05-02T03:21:47Z</time></trkpt><trkpt lat="-33.8138475508559" lon="115.33056722414705"><ele>114.0</ele><time>2026-05-02T03:21:48Z</time></trkpt><trkpt lat="-33.81371132376603" lon="115.3303812661362"><ele>114.0</ele><time>2026-05-02T03:21:49Z</time></trkpt><trkpt lat="-33.81357306232212" lon="115.33021749652247"><ele>116.0</ele><time>2026-05-02T03:21:50Z</time></trkpt><trkpt lat="-33.81342019544566" lon="115.33008300260192"><ele>118.0</ele><time>2026-05-02T03:21:51Z</time></trkpt><trkpt lat="-33.81325366185348" lon="115.32995310198376"><ele>120.0</ele><time>2026-05-02T03:21:52Z</time></trkpt><trkpt lat="-33.81306447333288" lon="115.32983445465582"><ele>120.0</ele><time>2026-05-02T03:21:53Z</time></trkpt><trkpt lat="-33.81286484857296" lon="115.3297329014588"><ele>120.0</ele><time>2026-05-02T03:21:54Z</time></trkpt><trkpt lat="-33.81267304011915" lon="115.32964557530438"><ele>120.0</ele><time>2026-05-02T03:21:55Z</time></trkpt><trkpt lat="-33.812484937294485" lon="115.32957811647954"><ele>119.0</ele><time>2026-05-02T03:21:56Z</time></trkpt><trkpt lat="-33.81229815174334" lon="115.32954234483405"><ele>118.0</ele><time>2026-05-02T03:21:57Z</time></trkpt><trkpt lat="-33.81211427797566" lon="115.32955445377404"><ele>117.0</ele><time>2026-05-02T03:21:58Z</time></trkpt><trkpt lat="-33.811930055495466" lon="115.32960216751087"><ele>116.0</ele><time>2026-05-02T03:21:59Z</time></trkpt><trkpt lat="-33.81173878199966" lon="115.32968106614074"><ele>115.0</ele><time>2026-05-02T03:22:00Z</time></trkpt><trkpt lat="-33.81154398039852" lon="115.32976096725578"><ele>114.0</ele><time>2026-05-02T03:22:01Z</time></trkpt><trkpt lat="-33.81135675239707" lon="115.32982568200781"><ele>116.0</ele><time>2026-05-02T03:22:02Z</time></trkpt><trkpt lat="-33.811178370293895" lon="115.32988451364383"><ele>118.0</ele><time>2026-05-02T03:22:03Z</time></trkpt><trkpt lat="-33.81100641055487" lon="115.32994043760931"><ele>120.0</ele><time>2026-05-02T03:22:04Z</time></trkpt><trkpt lat="-33.81084142919577" lon="115.329993771052"><ele>120.0</ele><time>2026-05-02T03:22:05Z</time></trkpt><trkpt lat="-33.8106771641525" lon="115.33000462120734"><ele>120.0</ele><time>2026-05-02T03:22:06Z</time></trkpt><trkpt lat="-33.810535588520054" lon="115.3300244495776"><ele>120.0</ele><time>2026-05-02T03:22:07Z</time></trkpt><trkpt lat="-33.810434077440945" lon="115.33000938404973"><ele>120.0</ele><time>2026-05-02T03:22:08Z</time></trkpt><trkpt lat="-33.81032787315549" lon="115.32999013997251"><ele>120.0</ele><time>2026-05-02T03:22:10Z</time></trkpt><trkpt lat="-33.8103999934207" lon="115.32999430700305"><ele>120.0</ele><time>2026-05-02T03:22:16Z</time></trkpt><trkpt lat="-33.81047103581846" lon="115.33000158557816"><ele>120.0</ele><time>2026-05-02T03:22:20Z</time></trkpt><trkpt lat="-33.81054101478619" lon="115.33000650485755"><ele>120.0</ele><time>2026-05-02T03:22:31Z</time></trkpt><trkpt lat="-33.81064306244508" lon="115.33000573317099"><ele>120.0</ele><time>2026-05-02T03:22:36Z</time></trkpt><trkpt lat="-33.81072600987105" lon="115.3300007422524"><ele>120.0</ele><time>2026-05-02T03:22:38Z</time></trkpt><trkpt lat="-33.81082059686859" lon="115.32999134323677"><ele>120.0</ele><time>2026-05-02T03:22:40Z</time></trkpt><trkpt lat="-33.8109029963127" lon="115.3299766522197"><ele>120.0</ele><time>2026-05-02T03:22:42Z</time></trkpt><trkpt lat="-33.81097885027404" lon="115.32995852226699"><ele>120.0</ele><time>2026-05-02T03:22:44Z</time></trkpt><trkpt lat="-33.81105022299112" lon="115.32993678225748"><ele>120.0</ele><time>2026-05-02T03:22:46Z</time></trkpt><trkpt lat="-33.811273121082344" lon="115.33081430860311"><ele>119.8</ele><time>2026-05-02T03:22:48Z</time></trkpt><trkpt lat="-33.81125803527172" lon="115.3309496097521"><ele>119.6</ele><time>2026-05-02T03:22:50Z</time></trkpt><trkpt lat="-33.811249297072834" lon="115.33110340132751"><ele>119.4</ele><time>2026-05-02T03:22:52Z</time></trkpt><trkpt lat="-33.81125127314791" lon="115.33117913743644"><ele>119.2</ele><time>2026-05-02T03:22:53Z</time></trkpt><trkpt lat="-33.811257274715565" lon="115.33133061120495"><ele>119.0</ele><time>2026-05-02T03:22:55Z</time></trkpt><trkpt lat="-33.81126141753278" lon="115.33148233609991"><ele>118.75</ele><time>2026-05-02T03:22:57Z</time></trkpt><trkpt lat="-33.811263439654844" lon="115.33163214376913"><ele>118.5</ele><time>2026-05-02T03:22:59Z</time></trkpt><trkpt lat="-33.811263628577336" lon="115.33177929687677"><ele>118.25</ele><time>2026-05-02T03:23:01Z</time></trkpt><trkpt lat="-33.81125912405697" lon="115.33192559976453"><ele>118.0</ele><time>2026-05-02T03:23:03Z</time></trkpt><trkpt lat="-33.811252820419334" lon="115.3320709429711"><ele>118.0</ele><time>2026-05-02T03:23:05Z</time></trkpt><trkpt lat="-33.81125509537337" lon="115.33220491858825"><ele>118.00000000000001</ele><time>2026-05-02T03:23:07Z</time></trkpt><trkpt lat="-33.81127348235019" lon="115.33232419747299"><ele>118.00000000000001</ele><time>2026-05-02T03:23:09Z</time></trkpt><trkpt lat="-33.81129962528594" lon="115.33242365440515"><ele>118.0</ele><time>2026-05-02T03:23:11Z</time></trkpt><trkpt lat="-33.81130983638944" lon="115.33250324819613"><ele>118.0</ele><time>2026-05-02T03:23:13Z</time></trkpt><trkpt lat="-33.81132641936559" lon="115.33261894778101"><ele>118.60000000000001</ele><time>2026-05-02T03:23:15Z</time></trkpt><trkpt lat="-33.81133372315597" lon="115.33275989473455"><ele>119.20000000000002</ele><time>2026-05-02T03:23:17Z</time></trkpt><trkpt lat="-33.81133081151268" lon="115.33290049661154"><ele>119.8</ele><time>2026-05-02T03:23:19Z</time></trkpt><trkpt lat="-33.811323162083866" lon="115.3330307954472"><ele>120.4</ele><time>2026-05-02T03:23:21Z</time></trkpt><trkpt lat="-33.81128782157192" lon="115.3331431141788"><ele>121.0</ele><time>2026-05-02T03:23:23Z</time></trkpt><trkpt lat="-33.811216759506635" lon="115.33323630518395"><ele>121.00000000000001</ele><time>2026-05-02T03:23:25Z</time></trkpt><trkpt lat="-33.81111976429699" lon="115.33332530240635"><ele>121.0</ele><time>2026-05-02T03:23:27Z</time></trkpt><trkpt lat="-33.811064767560644" lon="115.3333691962808"><ele>121.0</ele><time>2026-05-02T03:23:28Z</time></trkpt><trkpt lat="-33.81100391488827" lon="115.33342349646534"><ele>121.0</ele><time>2026-05-02T03:23:29Z</time></trkpt><trkpt lat="-33.8109469677318" lon="115.33347218884171"><ele>121.00000000000001</ele><time>2026-05-02T03:23:30Z</time></trkpt><trkpt lat="-33.81089225768899" lon="115.33352216364784"><ele>121.0</ele><time>2026-05-02T03:23:31Z</time></trkpt><trkpt lat="-33.81083963437316" lon="115.33357561330223"><ele>120.66666666666667</ele><time>2026-05-02T03:23:32Z</time></trkpt><trkpt lat="-33.810788582982426" lon="115.33362899014125"><ele>120.33333333333334</ele><time>2026-05-02T03:23:33Z</time></trkpt><trkpt lat="-33.8107381052853" lon="115.33368433553731"><ele>120.0</ele><time>2026-05-02T03:23:34Z</time></trkpt><trkpt lat="-33.81068957061948" lon="115.33373608847384"><ele>119.66666666666666</ele><time>2026-05-02T03:23:35Z</time></trkpt><trkpt lat="-33.8105908468164" lon="115.33382689677684"><ele>119.33333333333333</ele><time>2026-05-02T03:23:37Z</time></trkpt><trkpt lat="-33.81048716227306" lon="115.33390970957232"><ele>119.0</ele><time>2026-05-02T03:23:39Z</time></trkpt><trkpt lat="-33.810430159002436" lon="115.3339587616618"><ele>119.0</ele><time>2026-05-02T03:23:40Z</time></trkpt><trkpt lat="-33.81037809184649" lon="115.33400662057117"><ele>119.0</ele><time>2026-05-02T03:23:41Z</time></trkpt><trkpt lat="-33.810324691607235" lon="115.33405798096778"><ele>119.0</ele><time>2026-05-02T03:23:42Z</time></trkpt><trkpt lat="-33.81027117672597" lon="115.33410969023646"><ele>119.0</ele><time>2026-05-02T03:23:43Z</time></trkpt><trkpt lat="-33.8102153104566" lon="115.33416148826524"><ele>119.0</ele><time>2026-05-02T03:23:44Z</time></trkpt><trkpt lat="-33.81016018527616" lon="115.33421279971498"><ele>119.0</ele><time>2026-05-02T03:23:45Z</time></trkpt><trkpt lat="-33.81010333964231" lon="115.33426372006497"><ele>119.0</ele><time>2026-05-02T03:23:46Z</time></trkpt><trkpt lat="-33.81004746921159" lon="115.33431473973582"><ele>120.0</ele><time>2026-05-02T03:23:47Z</time></trkpt><trkpt lat="-33.80999108739917" lon="115.33436604533556"><ele>121.0</ele><time>2026-05-02T03:23:48Z</time></trkpt><trkpt lat="-33.80993582739238" lon="115.33441764039411"><ele>122.0</ele><time>2026-05-02T03:23:49Z</time></trkpt><trkpt lat="-33.80988198055132" lon="115.33446812247787"><ele>123.0</ele><time>2026-05-02T03:23:50Z</time></trkpt><trkpt lat="-33.80982926818315" lon="115.33451749697706"><ele>124.0</ele><time>2026-05-02T03:23:51Z</time></trkpt><trkpt lat="-33.80977688372893" lon="115.33456601770243"><ele>125.0</ele><time>2026-05-02T03:23:52Z</time></trkpt><trkpt lat="-33.80972172590682" lon="115.33461372370249"><ele>126.0</ele><time>2026-05-02T03:23:53Z</time></trkpt><trkpt lat="-33.80966778845703" lon="115.33465936993709"><ele>126.0</ele><time>2026-05-02T03:23:54Z</time></trkpt><trkpt lat="-33.80960953679848" lon="115.33471312066153"><ele>126.0</ele><time>2026-05-02T03:23:55Z</time></trkpt><trkpt lat="-33.80955423946598" lon="115.3347653402922"><ele>126.0</ele><time>2026-05-02T03:23:56Z</time></trkpt><trkpt lat="-33.80949928354611" lon="115.3348177986032"><ele>126.0</ele><time>2026-05-02T03:23:57Z</time></trkpt><trkpt lat="-33.809445483967686" lon="115.33486903544478"><ele>126.0</ele><time>2026-05-02T03:23:58Z</time></trkpt><trkpt lat="-33.809392114110366" lon="115.33491850913086"><ele>126.0</ele><time>2026-05-02T03:23:59Z</time></trkpt><trkpt lat="-33.80933924795936" lon="115.33497088077165"><ele>126.0</ele><time>2026-05-02T03:24:00Z</time></trkpt><trkpt lat="-33.809287182923946" lon="115.33502187557323"><ele>125.83333333333333</ele><time>2026-05-02T03:24:01Z</time></trkpt><trkpt lat="-33.80923480338076" lon="115.33507155204626"><ele>125.66666666666666</ele><time>2026-05-02T03:24:02Z</time></trkpt><trkpt lat="-33.80918283848185" lon="115.33511606686068"><ele>125.5</ele><time>2026-05-02T03:24:03Z</time></trkpt><trkpt lat="-33.80907058194228" lon="115.3351835224885"><ele>125.33333333333333</ele><time>2026-05-02T03:24:05Z</time></trkpt><trkpt lat="-33.80901351957152" lon="115.33522651681561"><ele>125.16666666666666</ele><time>2026-05-02T03:24:06Z</time></trkpt><trkpt lat="-33.808960502886094" lon="115.33528335728033"><ele>125.0</ele><time>2026-05-02T03:24:07Z</time></trkpt><trkpt lat="-33.80890510743371" lon="115.33534446875497"><ele>124.99999999999999</ele><time>2026-05-02T03:24:08Z</time></trkpt><trkpt lat="-33.808846278510856" lon="115.33540414696748"><ele>125.0</ele><time>2026-05-02T03:24:09Z</time></trkpt><trkpt lat="-33.80878279153721" lon="115.33546196863759"><ele>125.0</ele><time>2026-05-02T03:24:10Z</time></trkpt><trkpt lat="-33.80871551168669" lon="115.33551479994024"><ele>125.0</ele><time>2026-05-02T03:24:11Z</time></trkpt><trkpt lat="-33.80864608852778" lon="115.33556472721212"><ele>124.99999999999999</ele><time>2026-05-02T03:24:12Z</time></trkpt><trkpt lat="-33.80857488777981" lon="115.33561401303703"><ele>125.0</ele><time>2026-05-02T03:24:13Z</time></trkpt><trkpt lat="-33.808502203500495" lon="115.33566361253492"><ele>124.49999999999999</ele><time>2026-05-02T03:24:14Z</time></trkpt><trkpt lat="-33.80843522232057" lon="115.33572074192641"><ele>124.0</ele><time>2026-05-02T03:24:15Z</time></trkpt><trkpt lat="-33.80837782519694" lon="115.33579301893438"><ele>123.5</ele><time>2026-05-02T03:24:16Z</time></trkpt><trkpt lat="-33.80832088333286" lon="115.33586808949076"><ele>123.0</ele><time>2026-05-02T03:24:17Z</time></trkpt><trkpt lat="-33.80825838073559" lon="115.33593900510357"><ele>122.49999999999999</ele><time>2026-05-02T03:24:18Z</time></trkpt><trkpt lat="-33.80819106780134" lon="115.33600104410948"><ele>122.0</ele><time>2026-05-02T03:24:19Z</time></trkpt><trkpt lat="-33.808120744840714" lon="115.33606274801221"><ele>121.99999999999999</ele><time>2026-05-02T03:24:20Z</time></trkpt><trkpt lat="-33.80805224207899" lon="115.3361202896447"><ele>122.0</ele><time>2026-05-02T03:24:21Z</time></trkpt><trkpt lat="-33.80798857876018" lon="115.3361725775656"><ele>122.0</ele><time>2026-05-02T03:24:22Z</time></trkpt><trkpt lat="-33.807929306981926" lon="115.33622954273415"><ele>122.0</ele><time>2026-05-02T03:24:23Z</time></trkpt><trkpt lat="-33.807877281073054" lon="115.33628855414234"><ele>121.99999999999999</ele><time>2026-05-02T03:24:24Z</time></trkpt><trkpt lat="-33.80784410604631" lon="115.33636333706927"><ele>122.0</ele><time>2026-05-02T03:24:25Z</time></trkpt><trkpt lat="-33.8078248727223" lon="115.33644677039504"><ele>121.99999999999999</ele><time>2026-05-02T03:24:26Z</time></trkpt><trkpt lat="-33.80781911910981" lon="115.3365359147649"><ele>122.0</ele><time>2026-05-02T03:24:27Z</time></trkpt><trkpt lat="-33.80781732707997" lon="115.33663531551738"><ele>122.0</ele><time>2026-05-02T03:24:28Z</time></trkpt><trkpt lat="-33.80781897204153" lon="115.33673627780017"><ele>122.0</ele><time>2026-05-02T03:24:29Z</time></trkpt><trkpt lat="-33.80782192949237" lon="115.33683445536757"><ele>121.99999999999999</ele><time>2026-05-02T03:24:30Z</time></trkpt><trkpt lat="-33.80782509402526" lon="115.33694741260226"><ele>122.0</ele><time>2026-05-02T03:24:31Z</time></trkpt><trkpt lat="-33.807829990936625" lon="115.3370741131705"><ele>122.0</ele><time>2026-05-02T03:24:32Z</time></trkpt><trkpt lat="-33.80783247314428" lon="115.33721344530747"><ele>122.0</ele><time>2026-05-02T03:24:33Z</time></trkpt><trkpt lat="-33.80783025223223" lon="115.33735771641504"><ele>122.0</ele><time>2026-05-02T03:24:34Z</time></trkpt><trkpt lat="-33.807830910724206" lon="115.33750484794352"><ele>122.0</ele><time>2026-05-02T03:24:35Z</time></trkpt><trkpt lat="-33.8078344994369" lon="115.33765219639318"><ele>122.75</ele><time>2026-05-02T03:24:36Z</time></trkpt><trkpt lat="-33.80783889647847" lon="115.33779931164996"><ele>123.5</ele><time>2026-05-02T03:24:37Z</time></trkpt><trkpt lat="-33.80784190069071" lon="115.3379433434519"><ele>124.25</ele><time>2026-05-02T03:24:38Z</time></trkpt><trkpt lat="-33.807843794721904" lon="115.33808403488085"><ele>125.0</ele><time>2026-05-02T03:24:39Z</time></trkpt><trkpt lat="-33.80784532297066" lon="115.33821830306545"><ele>126.4</ele><time>2026-05-02T03:24:40Z</time></trkpt><trkpt lat="-33.807850021306145" lon="115.33833668117865"><ele>127.8</ele><time>2026-05-02T03:24:41Z</time></trkpt><trkpt lat="-33.807853000645665" lon="115.33844378345665"><ele>129.2</ele><time>2026-05-02T03:24:42Z</time></trkpt><trkpt lat="-33.807856513158114" lon="115.33855109459193"><ele>130.6</ele><time>2026-05-02T03:24:43Z</time></trkpt><trkpt lat="-33.80785777912042" lon="115.33867440659768"><ele>132.0</ele><time>2026-05-02T03:24:44Z</time></trkpt><trkpt lat="-33.80786071507357" lon="115.33879881761368"><ele>133.6</ele><time>2026-05-02T03:24:45Z</time></trkpt><trkpt lat="-33.80786088250553" lon="115.33891553331677"><ele>135.2</ele><time>2026-05-02T03:24:46Z</time></trkpt><trkpt lat="-33.807859567714374" lon="115.3390332335198"><ele>136.8</ele><time>2026-05-02T03:24:47Z</time></trkpt><trkpt lat="-33.80786136942767" lon="115.33915245409688"><ele>138.4</ele><time>2026-05-02T03:24:48Z</time></trkpt><trkpt lat="-33.80786274010499" lon="115.33927019741623"><ele>140.0</ele><time>2026-05-02T03:24:49Z</time></trkpt><trkpt lat="-33.80786539633076" lon="115.33939256134767"><ele>140.0</ele><time>2026-05-02T03:24:50Z</time></trkpt><trkpt lat="-33.80786725047932" lon="115.33951906827792"><ele>140.0</ele><time>2026-05-02T03:24:51Z</time></trkpt><trkpt lat="-33.80786889312553" lon="115.33964636863907"><ele>140.0</ele><time>2026-05-02T03:24:52Z</time></trkpt><trkpt lat="-33.80786843153469" lon="115.33977562555191"><ele>140.0</ele><time>2026-05-02T03:24:53Z</time></trkpt><trkpt lat="-33.80786979502315" lon="115.33990505557361"><ele>140.0</ele><time>2026-05-02T03:24:54Z</time></trkpt><trkpt lat="-33.80787218674145" lon="115.3400378632046"><ele>140.0</ele><time>2026-05-02T03:24:55Z</time></trkpt><trkpt lat="-33.80787509780437" lon="115.34016536873195"><ele>140.0</ele><time>2026-05-02T03:24:56Z</time></trkpt><trkpt lat="-33.80787620869853" lon="115.34029574962467"><ele>140.0</ele><time>2026-05-02T03:24:57Z</time></trkpt><trkpt lat="-33.80787421429796" lon="115.34042537044799"><ele>140.0</ele><time>2026-05-02T03:24:58Z</time></trkpt><trkpt lat="-33.807873798311896" lon="115.34055279906087"><ele>140.0</ele><time>2026-05-02T03:24:59Z</time></trkpt><trkpt lat="-33.80787472721559" lon="115.34068103914446"><ele>140.0</ele><time>2026-05-02T03:25:00Z</time></trkpt><trkpt lat="-33.8078751985824" lon="115.34080639730156"><ele>140.0</ele><time>2026-05-02T03:25:01Z</time></trkpt><trkpt lat="-33.80787373731274" lon="115.34093552236774"><ele>140.0</ele><time>2026-05-02T03:25:02Z</time></trkpt><trkpt lat="-33.80787382387536" lon="115.34105928934932"><ele>140.0</ele><time>2026-05-02T03:25:03Z</time></trkpt><trkpt lat="-33.80787379873012" lon="115.34118365979802"><ele>140.0</ele><time>2026-05-02T03:25:04Z</time></trkpt><trkpt lat="-33.80787424968982" lon="115.34130415790897"><ele>140.2</ele><time>2026-05-02T03:25:05Z</time></trkpt><trkpt lat="-33.80787694210537" lon="115.34142728654031"><ele>140.4</ele><time>2026-05-02T03:25:06Z</time></trkpt><trkpt lat="-33.80787931795632" lon="115.34154945082781"><ele>140.6</ele><time>2026-05-02T03:25:07Z</time></trkpt><trkpt lat="-33.80787945985805" lon="115.34166981405428"><ele>140.8</ele><time>2026-05-02T03:25:08Z</time></trkpt><trkpt lat="-33.80787735553268" lon="115.34179147853062"><ele>141.0</ele><time>2026-05-02T03:25:09Z</time></trkpt><trkpt lat="-33.80787464568939" lon="115.34191092877731"><ele>141.0</ele><time>2026-05-02T03:25:10Z</time></trkpt><trkpt lat="-33.80787346498813" lon="115.34203423562259"><ele>141.0</ele><time>2026-05-02T03:25:11Z</time></trkpt><trkpt lat="-33.80787293361811" lon="115.34215397133256"><ele>141.0</ele><time>2026-05-02T03:25:12Z</time></trkpt><trkpt lat="-33.8078742869531" lon="115.34227632534292"><ele>141.0</ele><time>2026-05-02T03:25:13Z</time></trkpt><trkpt lat="-33.80787424110055" lon="115.34239989004253"><ele>141.0</ele><time>2026-05-02T03:25:14Z</time></trkpt><trkpt lat="-33.807873389405586" lon="115.34252499247212"><ele>140.6</ele><time>2026-05-02T03:25:15Z</time></trkpt><trkpt lat="-33.80787302317347" lon="115.34265596966863"><ele>140.2</ele><time>2026-05-02T03:25:16Z</time></trkpt><trkpt lat="-33.80787311586389" lon="115.34278868355192"><ele>139.8</ele><time>2026-05-02T03:25:17Z</time></trkpt><trkpt lat="-33.80787510820006" lon="115.34292139883823"><ele>139.4</ele><time>2026-05-02T03:25:18Z</time></trkpt><trkpt lat="-33.80787845031675" lon="115.34305238836347"><ele>139.0</ele><time>2026-05-02T03:25:19Z</time></trkpt><trkpt lat="-33.80787831935341" lon="115.34317959845814"><ele>136.6</ele><time>2026-05-02T03:25:20Z</time></trkpt><trkpt lat="-33.80787938625756" lon="115.34330414571613"><ele>134.2</ele><time>2026-05-02T03:25:21Z</time></trkpt><trkpt lat="-33.80788016856542" lon="115.34342520127751"><ele>131.79999999999998</ele><time>2026-05-02T03:25:22Z</time></trkpt><trkpt lat="-33.807878994655184" lon="115.34354551996456"><ele>129.4</ele><time>2026-05-02T03:25:23Z</time></trkpt><trkpt lat="-33.80787770240873" lon="115.3436631044441"><ele>127.0</ele><time>2026-05-02T03:25:24Z</time></trkpt><trkpt lat="-33.80788234542152" lon="115.34378101172003"><ele>126.39999999999999</ele><time>2026-05-02T03:25:25Z</time></trkpt><trkpt lat="-33.8078813326232" lon="115.34390017656112"><ele>125.79999999999998</ele><time>2026-05-02T03:25:26Z</time></trkpt><trkpt lat="-33.80787996689426" lon="115.3440219685864"><ele>125.2</ele><time>2026-05-02T03:25:27Z</time></trkpt><trkpt lat="-33.8078799968005" lon="115.34414585053335"><ele>124.6</ele><time>2026-05-02T03:25:28Z</time></trkpt><trkpt lat="-33.807876666974366" lon="115.34427162683386"><ele>124.0</ele><time>2026-05-02T03:25:29Z</time></trkpt><trkpt lat="-33.80786163494663" lon="115.34439626327317"><ele>124.0</ele><time>2026-05-02T03:25:30Z</time></trkpt><trkpt lat="-33.807827919692365" lon="115.34451026207417"><ele>124.0</ele><time>2026-05-02T03:25:31Z</time></trkpt><trkpt lat="-33.80778000507137" lon="115.34461045586525"><ele>124.0</ele><time>2026-05-02T03:25:32Z</time></trkpt><trkpt lat="-33.807725315907916" lon="115.34470069383002"><ele>124.0</ele><time>2026-05-02T03:25:33Z</time></trkpt><trkpt lat="-33.80766151514468" lon="115.34477292735112"><ele>124.0</ele><time>2026-05-02T03:25:34Z</time></trkpt><trkpt lat="-33.80759309499143" lon="115.34482315096929"><ele>124.00000000000001</ele><time>2026-05-02T03:25:35Z</time></trkpt><trkpt lat="-33.8075272786588" lon="115.34485454214082"><ele>124.0</ele><time>2026-05-02T03:25:36Z</time></trkpt><trkpt lat="-33.80740334286091" lon="115.34487718025196"><ele>124.0</ele><time>2026-05-02T03:25:38Z</time></trkpt><trkpt lat="-33.80733263228911" lon="115.34488199029573"><ele>124.0</ele><time>2026-05-02T03:25:39Z</time></trkpt><trkpt lat="-33.80726201749546" lon="115.3448858408908"><ele>124.00000000000001</ele><time>2026-05-02T03:25:40Z</time></trkpt><trkpt lat="-33.80719387943345" lon="115.34488239223307"><ele>124.0</ele><time>2026-05-02T03:25:41Z</time></trkpt><trkpt lat="-33.807128300749454" lon="115.34487717967617"><ele>124.00000000000001</ele><time>2026-05-02T03:25:42Z</time></trkpt><trkpt lat="-33.80701652197565" lon="115.34488500085031"><ele>124.0</ele><time>2026-05-02T03:25:44Z</time></trkpt><trkpt lat="-33.80695225874787" lon="115.34490482704409"><ele>124.0</ele><time>2026-05-02T03:25:45Z</time></trkpt><trkpt lat="-33.80688880503071" lon="115.34493470454642"><ele>124.0</ele><time>2026-05-02T03:25:46Z</time></trkpt><trkpt lat="-33.806830973976034" lon="115.34497957407471"><ele>124.00000000000001</ele><time>2026-05-02T03:25:47Z</time></trkpt><trkpt lat="-33.806776838211434" lon="115.3450345583189"><ele>124.0</ele><time>2026-05-02T03:25:48Z</time></trkpt><trkpt lat="-33.80673414644328" lon="115.3450981193221"><ele>124.83333333333334</ele><time>2026-05-02T03:25:49Z</time></trkpt><trkpt lat="-33.806689545410094" lon="115.34516747843573"><ele>125.66666666666667</ele><time>2026-05-02T03:25:50Z</time></trkpt><trkpt lat="-33.80664939690754" lon="115.34524301063371"><ele>126.5</ele><time>2026-05-02T03:25:51Z</time></trkpt><trkpt lat="-33.80661454320655" lon="115.3453258416546"><ele>127.33333333333334</ele><time>2026-05-02T03:25:52Z</time></trkpt><trkpt lat="-33.80658068163392" lon="115.34541283948869"><ele>128.16666666666666</ele><time>2026-05-02T03:25:53Z</time></trkpt><trkpt lat="-33.806551973470896" lon="115.34550175883425"><ele>129.0</ele><time>2026-05-02T03:25:54Z</time></trkpt><trkpt lat="-33.80652649843375" lon="115.34559247800722"><ele>129.0</ele><time>2026-05-02T03:25:55Z</time></trkpt><trkpt lat="-33.80650085403691" lon="115.34568357436606"><ele>129.0</ele><time>2026-05-02T03:25:56Z</time></trkpt><trkpt lat="-33.80647770151808" lon="115.345776214679"><ele>129.0</ele><time>2026-05-02T03:25:57Z</time></trkpt><trkpt lat="-33.80645800758559" lon="115.34586858891507"><ele>129.0</ele><time>2026-05-02T03:25:58Z</time></trkpt><trkpt lat="-33.80644318525794" lon="115.34596053278194"><ele>129.0</ele><time>2026-05-02T03:25:59Z</time></trkpt><trkpt lat="-33.80643118636109" lon="115.34604978304414"><ele>129.0</ele><time>2026-05-02T03:26:00Z</time></trkpt><trkpt lat="-33.80642201774327" lon="115.34613374775586"><ele>129.0</ele><time>2026-05-02T03:26:01Z</time></trkpt><trkpt lat="-33.80641735275183" lon="115.3462116377562"><ele>129.0</ele><time>2026-05-02T03:26:02Z</time></trkpt><trkpt lat="-33.80643024651566" lon="115.34635042418164"><ele>129.0</ele><time>2026-05-02T03:26:04Z</time></trkpt><trkpt lat="-33.80645730150063" lon="115.34648543376827"><ele>129.0</ele><time>2026-05-02T03:26:06Z</time></trkpt><trkpt lat="-33.80645189617354" lon="115.34660098815009"><ele>129.0</ele><time>2026-05-02T03:26:08Z</time></trkpt><trkpt lat="-33.80647504419672" lon="115.34668987265908"><ele>128.99999999999997</ele><time>2026-05-02T03:26:10Z</time></trkpt><trkpt lat="-33.80654222810061" lon="115.34675055299508"><ele>129.0</ele><time>2026-05-02T03:26:13Z</time></trkpt><trkpt lat="-33.806609806984376" lon="115.34671337464222"><ele>129.0</ele><time>2026-05-02T03:26:17Z</time></trkpt><trkpt lat="-33.80657738249482" lon="115.34664248295789"><ele>129.0</ele><time>2026-05-02T03:26:38Z</time></trkpt><trkpt lat="-33.8065763718137" lon="115.34656051577262"><ele>129.0</ele><time>2026-05-02T03:26:43Z</time></trkpt><trkpt lat="-33.80660722760733" lon="115.34662760045755"><ele>128.99999999999997</ele><time>2026-05-02T03:26:54Z</time></trkpt><trkpt lat="-33.80665766664285" lon="115.34667676878473"><ele>129.0</ele><time>2026-05-02T03:26:58Z</time></trkpt><trkpt lat="-33.80669377291904" lon="115.3467464497898"><ele>128.99999999999997</ele><time>2026-05-02T03:27:11Z</time></trkpt><trkpt lat="-33.80668914788677" lon="115.34683206982172"><ele>129.0</ele><time>2026-05-02T03:27:35Z</time></trkpt><trkpt lat="-33.806678649537986" lon="115.34694676990347"><ele>129.0</ele><time>2026-05-02T03:27:55Z</time></trkpt><trkpt lat="-33.806616752795115" lon="115.3469293647669"><ele>129.0</ele><time>2026-05-02T03:28:10.025Z</time></trkpt><trkpt lat="-33.80668304015475" lon="115.34691412793212"><ele>129.0</ele><time>2026-05-02T03:28:19Z</time></trkpt><trkpt lat="-33.80663872547585" lon="115.34684666306921"><ele>128.99999999999997</ele><time>2026-05-02T03:28:38Z</time></trkpt><trkpt lat="-33.80664340890727" lon="115.34675787168425"><ele>129.0</ele><time>2026-05-02T03:28:56Z</time></trkpt><trkpt lat="-33.806594743357515" lon="115.34669873102558"><ele>128.99999999999997</ele><time>2026-05-02T03:29:30Z</time></trkpt><trkpt lat="-33.806555871824195" lon="115.34662812078398"><ele>129.0</ele><time>2026-05-02T03:29:34Z</time></trkpt><trkpt lat="-33.80655874558956" lon="115.34654339009633"><ele>129.0</ele><time>2026-05-02T03:29:41Z</time></trkpt><trkpt lat="-33.806558217352666" lon="115.34646700429418"><ele>129.0</ele><time>2026-05-02T03:29:49Z</time></trkpt><trkpt lat="-33.80661443854984" lon="115.3464027649037"><ele>129.0</ele><time>2026-05-02T03:30:29Z</time></trkpt><trkpt lat="-33.806573351192924" lon="115.34646487918795"><ele>128.99999999999997</ele><time>2026-05-02T03:30:39Z</time></trkpt><trkpt lat="-33.8066032435844" lon="115.34654301679926"><ele>129.0</ele><time>2026-05-02T03:30:44Z</time></trkpt><trkpt lat="-33.80663929640224" lon="115.3464805685672"><ele>128.99999999999997</ele><time>2026-05-02T03:31:06Z</time></trkpt><trkpt lat="-33.80668411096061" lon="115.34640837054192"><ele>129.0</ele><time>2026-05-02T03:31:09Z</time></trkpt><trkpt lat="-33.80661660943095" lon="115.34643267543296"><ele>129.0</ele><time>2026-05-02T03:31:15Z</time></trkpt><trkpt lat="-33.80667893319696" lon="115.34640085703388"><ele>129.0</ele><time>2026-05-02T03:31:38Z</time></trkpt><trkpt lat="-33.80664136674069" lon="115.34646539681073"><ele>129.0</ele><time>2026-05-02T03:31:56Z</time></trkpt><trkpt lat="-33.80668890619587" lon="115.34640127294499"><ele>128.99999999999997</ele><time>2026-05-02T03:32:30Z</time></trkpt><trkpt lat="-33.806725580949205" lon="115.34633034783664"><ele>129.0</ele><time>2026-05-02T03:32:36Z</time></trkpt><trkpt lat="-33.80672621784702" lon="115.34625155891558"><ele>128.99999999999997</ele><time>2026-05-02T03:32:42Z</time></trkpt><trkpt lat="-33.8066727527836" lon="115.34619440243522"><ele>129.0</ele><time>2026-05-02T03:32:46Z</time></trkpt><trkpt lat="-33.8066027339253" lon="115.34617173504624"><ele>129.0</ele><time>2026-05-02T03:32:50Z</time></trkpt><trkpt lat="-33.8065361777721" lon="115.34615392057032"><ele>129.0</ele><time>2026-05-02T03:32:54Z</time></trkpt><trkpt lat="-33.80646956512178" lon="115.34616705962767"><ele>129.0</ele><time>2026-05-02T03:32:58Z</time></trkpt><trkpt lat="-33.80642280258534" lon="115.34622682885363"><ele>128.99999999999997</ele><time>2026-05-02T03:33:02Z</time></trkpt><trkpt lat="-33.80642427277055" lon="115.34631425849219"><ele>129.0</ele><time>2026-05-02T03:33:06Z</time></trkpt><trkpt lat="-33.80644524839984" lon="115.346397160636"><ele>128.99999999999997</ele><time>2026-05-02T03:33:10Z</time></trkpt><trkpt lat="-33.806465788189215" lon="115.34647905251099"><ele>129.0</ele><time>2026-05-02T03:33:14Z</time></trkpt><trkpt lat="-33.80644682290262" lon="115.34656533007094"><ele>129.0</ele><time>2026-05-02T03:33:18Z</time></trkpt><trkpt lat="-33.80637513498877" lon="115.34658968063944"><ele>129.0</ele><time>2026-05-02T03:33:23Z</time></trkpt><trkpt lat="-33.80634566077895" lon="115.34651018892004"><ele>129.0</ele><time>2026-05-02T03:33:37Z</time></trkpt><trkpt lat="-33.80641217197964" lon="115.34653901430077"><ele>128.99999999999997</ele><time>2026-05-02T03:33:53Z</time></trkpt><trkpt lat="-33.80648216871829" lon="115.34656140757335"><ele>129.0</ele><time>2026-05-02T03:33:59Z</time></trkpt><trkpt lat="-33.806550125439834" lon="115.34655225770453"><ele>128.99999999999997</ele><time>2026-05-02T03:34:05Z</time></trkpt><trkpt lat="-33.80654718108994" lon="115.34646571230313"><ele>129.0</ele><time>2026-05-02T03:35:31Z</time></trkpt><trkpt lat="-33.80648611635534" lon="115.34650396364862"><ele>129.0</ele><time>2026-05-02T03:35:59Z</time></trkpt><trkpt lat="-33.80641912955705" lon="115.34654181052414"><ele>129.0</ele><time>2026-05-02T03:36:04Z</time></trkpt><trkpt lat="-33.806356452977916" lon="115.34652411018115"><ele>129.0</ele><time>2026-05-02T03:36:10Z</time></trkpt><trkpt lat="-33.80639752439708" lon="115.34646227446582"><ele>128.99999999999997</ele><time>2026-05-02T03:37:20Z</time></trkpt><trkpt lat="-33.80635273531176" lon="115.346520186861"><ele>129.0</ele><time>2026-05-02T03:41:45Z</time></trkpt><trkpt lat="-33.80638281356509" lon="115.34645309026088"><ele>128.99999999999997</ele><time>2026-05-02T03:42:23Z</time></trkpt><trkpt lat="-33.8063597118872" lon="115.34654017807216"><ele>129.0</ele><time>2026-05-02T03:43:04Z</time></trkpt><trkpt lat="-33.806373433449735" lon="115.34646579988349"><ele>129.0</ele><time>2026-05-02T03:43:22Z</time></trkpt><trkpt lat="-33.80634530495289" lon="115.34653640293797"><ele>129.0</ele><time>2026-05-02T03:53:33Z</time></trkpt><trkpt lat="-33.8063676401391" lon="115.34661422048853"><ele>129.0</ele><time>2026-05-02T03:54:05Z</time></trkpt><trkpt lat="-33.806396360715596" lon="115.34669604496835"><ele>128.99999999999997</ele><time>2026-05-02T03:54:11Z</time></trkpt><trkpt lat="-33.80641902484673" lon="115.34678105046794"><ele>129.0</ele><time>2026-05-02T03:54:17Z</time></trkpt><trkpt lat="-33.80643583673926" lon="115.34685721258867"><ele>128.99999999999997</ele><time>2026-05-02T03:54:22Z</time></trkpt><trkpt lat="-33.8064576465215" lon="115.34693353193485"><ele>129.0</ele><time>2026-05-02T03:54:27Z</time></trkpt><trkpt lat="-33.80647585459098" lon="115.34701916180661"><ele>129.0</ele><time>2026-05-02T03:54:33Z</time></trkpt><trkpt lat="-33.80648089316318" lon="115.34709652282481"><ele>129.0</ele><time>2026-05-02T03:54:40Z</time></trkpt><trkpt lat="-33.806516669863726" lon="115.34703335542835"><ele>129.0</ele><time>2026-05-02T03:54:51Z</time></trkpt><trkpt lat="-33.806462300281815" lon="115.34696310911244"><ele>128.99999999999997</ele><time>2026-05-02T04:00:14Z</time></trkpt><trkpt lat="-33.80643937721411" lon="115.34685911017185"><ele>129.0</ele><time>2026-05-02T04:00:17Z</time></trkpt><trkpt lat="-33.806425352065446" lon="115.34676492529537"><ele>128.99999999999997</ele><time>2026-05-02T04:00:20Z</time></trkpt><trkpt lat="-33.80639552215646" lon="115.34667676801553"><ele>129.0</ele><time>2026-05-02T04:00:23Z</time></trkpt><trkpt lat="-33.80636903086294" lon="115.34658888182031"><ele>129.0</ele><time>2026-05-02T04:00:26Z</time></trkpt><trkpt lat="-33.80634447592573" lon="115.346512788739"><ele>129.0</ele><time>2026-05-02T04:00:29Z</time></trkpt><trkpt lat="-33.80628785018809" lon="115.34647400305695"><ele>129.0</ele><time>2026-05-02T04:01:47Z</time></trkpt><trkpt lat="-33.806344084424296" lon="115.34651829034391"><ele>128.99999999999997</ele><time>2026-05-02T04:02:09Z</time></trkpt><trkpt lat="-33.80635257445281" lon="115.346434141778"><ele>129.0</ele><time>2026-05-02T04:02:25Z</time></trkpt><trkpt lat="-33.80636040025859" lon="115.34651303855718"><ele>128.99999999999997</ele><time>2026-05-02T04:02:57Z</time></trkpt><trkpt lat="-33.80632657108735" lon="115.34644907141897"><ele>129.0</ele><time>2026-05-02T04:03:34Z</time></trkpt><trkpt lat="-33.80636832179643" lon="115.34650859867291"><ele>129.0</ele><time>2026-05-02T04:03:58Z</time></trkpt><trkpt lat="-33.80642673178415" lon="115.34655309623379"><ele>129.0</ele><time>2026-05-02T04:04:58Z</time></trkpt><trkpt lat="-33.806452498109564" lon="115.34663572834889"><ele>129.0</ele><time>2026-05-02T04:05:04Z</time></trkpt><trkpt lat="-33.80639128099228" lon="115.34660620930609"><ele>128.99999999999997</ele><time>2026-05-02T04:05:18Z</time></trkpt><trkpt lat="-33.806361781893294" lon="115.34653835885717"><ele>129.0</ele><time>2026-05-02T04:05:23Z</time></trkpt><trkpt lat="-33.806354582465744" lon="115.34646228471411"><ele>128.99999999999997</ele><time>2026-05-02T04:05:30Z</time></trkpt><trkpt lat="-33.80628613773691" lon="115.34646400604814"><ele>129.0</ele><time>2026-05-02T04:07:47Z</time></trkpt><trkpt lat="-33.806239452594674" lon="115.34652461290739"><ele>129.0</ele><time>2026-05-02T04:07:52Z</time></trkpt><trkpt lat="-33.806266999038336" lon="115.346597615726"><ele>129.0</ele><time>2026-05-02T04:07:56Z</time></trkpt><trkpt lat="-33.80631958341928" lon="115.34666074986296"><ele>129.0</ele><time>2026-05-02T04:08:00Z</time></trkpt><trkpt lat="-33.80636648032866" lon="115.34673492736637"><ele>128.99999999999997</ele><time>2026-05-02T04:08:04Z</time></trkpt><trkpt lat="-33.806406563900566" lon="115.34680529188438"><ele>129.0</ele><time>2026-05-02T04:08:10Z</time></trkpt><trkpt lat="-33.80644461032679" lon="115.34688330932379"><ele>128.99999999999997</ele><time>2026-05-02T04:08:15Z</time></trkpt><trkpt lat="-33.80648500964732" lon="115.34696079615347"><ele>129.0</ele><time>2026-05-02T04:08:20Z</time></trkpt><trkpt lat="-33.806533663979494" lon="115.34702222853326"><ele>129.0</ele><time>2026-05-02T04:08:26Z</time></trkpt><trkpt lat="-33.80656591344861" lon="115.34710847446325"><ele>129.0</ele><time>2026-05-02T04:11:48Z</time></trkpt><trkpt lat="-33.806610215540566" lon="115.34717779123127"><ele>129.0</ele><time>2026-05-02T04:11:51Z</time></trkpt><trkpt lat="-33.80666464421739" lon="115.34723235053481"><ele>128.99999999999997</ele><time>2026-05-02T04:11:54Z</time></trkpt><trkpt lat="-33.806730909372874" lon="115.34726872469601"><ele>129.0</ele><time>2026-05-02T04:11:57Z</time></trkpt><trkpt lat="-33.8067969182113" lon="115.34729898710795"><ele>128.99999999999997</ele><time>2026-05-02T04:12:00Z</time></trkpt><trkpt lat="-33.80685960300636" lon="115.34733401293305"><ele>129.0</ele><time>2026-05-02T04:12:03Z</time></trkpt><trkpt lat="-33.8069224967812" lon="115.34737172189334"><ele>129.0</ele><time>2026-05-02T04:12:06Z</time></trkpt><trkpt lat="-33.80698519544016" lon="115.34740982424664"><ele>129.0</ele><time>2026-05-02T04:12:09Z</time></trkpt><trkpt lat="-33.807043747160385" lon="115.34744628264494"><ele>129.0</ele><time>2026-05-02T04:12:12Z</time></trkpt><trkpt lat="-33.80711058596927" lon="115.34747346924436"><ele>128.99999999999997</ele><time>2026-05-02T04:12:15Z</time></trkpt><trkpt lat="-33.80717831149635" lon="115.34748602230523"><ele>129.0</ele><time>2026-05-02T04:12:18Z</time></trkpt><trkpt lat="-33.80724338194405" lon="115.34746753398923"><ele>128.99999999999997</ele><time>2026-05-02T04:12:21Z</time></trkpt><trkpt lat="-33.807297449444896" lon="115.34741052988821"><ele>129.0</ele><time>2026-05-02T04:12:25Z</time></trkpt><trkpt lat="-33.80729625213327" lon="115.34732342708769"><ele>129.0</ele><time>2026-05-02T04:12:37Z</time></trkpt><trkpt lat="-33.80722434330477" lon="115.34734967762064"><ele>129.0</ele><time>2026-05-02T04:15:07Z</time></trkpt><trkpt lat="-33.807191932205065" lon="115.34728472683936"><ele>129.0</ele><time>2026-05-02T04:17:08Z</time></trkpt><trkpt lat="-33.80721671081756" lon="115.34736371061078"><ele>128.99999999999997</ele><time>2026-05-02T04:20:27Z</time></trkpt><trkpt lat="-33.807265084642964" lon="115.34730676039415"><ele>129.0</ele><time>2026-05-02T04:22:08Z</time></trkpt><trkpt lat="-33.80725228123398" lon="115.34738619568087"><ele>128.99999999999997</ele><time>2026-05-02T04:23:07Z</time></trkpt><trkpt lat="-33.80730204370003" lon="115.34732968114909"><ele>129.0</ele><time>2026-05-02T04:23:21Z</time></trkpt><trkpt lat="-33.807235346285104" lon="115.34734448085545"><ele>129.0</ele><time>2026-05-02T04:24:03Z</time></trkpt><trkpt lat="-33.80729328559422" lon="115.34738220967675"><ele>129.0</ele><time>2026-05-02T04:24:21Z</time></trkpt><trkpt lat="-33.807217922405165" lon="115.34735999758573"><ele>129.0</ele><time>2026-05-02T04:25:00Z</time></trkpt><trkpt lat="-33.807187537178976" lon="115.34729321683517"><ele>128.99999999999997</ele><time>2026-05-02T04:25:11Z</time></trkpt><trkpt lat="-33.807142365107964" lon="115.34723631925796"><ele>129.0</ele><time>2026-05-02T04:26:14Z</time></trkpt><trkpt lat="-33.8070795067713" lon="115.34720820052463"><ele>129.0</ele><time>2026-05-02T04:26:19Z</time></trkpt><trkpt lat="-33.80699949693578" lon="115.34719718438852"><ele>129.0</ele><time>2026-05-02T04:26:24Z</time></trkpt><trkpt lat="-33.80693292227893" lon="115.34721215282491"><ele>129.0</ele><time>2026-05-02T04:26:28Z</time></trkpt><trkpt lat="-33.80686758980523" lon="115.34725389994111"><ele>129.0</ele><time>2026-05-02T04:26:33Z</time></trkpt><trkpt lat="-33.80679947994254" lon="115.34727863393536"><ele>129.0</ele><time>2026-05-02T04:26:37Z</time></trkpt><trkpt lat="-33.80672044621963" lon="115.34727311389226"><ele>129.0</ele><time>2026-05-02T04:26:41Z</time></trkpt><trkpt lat="-33.80664075843761" lon="115.34724534276747"><ele>129.0</ele><time>2026-05-02T04:26:45Z</time></trkpt><trkpt lat="-33.806573515570975" lon="115.34719194593413"><ele>129.0</ele><time>2026-05-02T04:26:49Z</time></trkpt><trkpt lat="-33.80651856689459" lon="115.34711750037879"><ele>129.0</ele><time>2026-05-02T04:26:53Z</time></trkpt><trkpt lat="-33.806475029286595" lon="115.34705893514638"><ele>129.0</ele><time>2026-05-02T04:26:57Z</time></trkpt><trkpt lat="-33.80652546877852" lon="115.34700255174268"><ele>129.0</ele><time>2026-05-02T04:27:02Z</time></trkpt><trkpt lat="-33.80650365560716" lon="115.34690626650192"><ele>129.0</ele><time>2026-05-02T04:29:34Z</time></trkpt><trkpt lat="-33.80648940578545" lon="115.34682111635166"><ele>128.99999999999997</ele><time>2026-05-02T04:29:37Z</time></trkpt><trkpt lat="-33.80646506970087" lon="115.34673994021378"><ele>129.0</ele><time>2026-05-02T04:29:40Z</time></trkpt><trkpt lat="-33.806440643238226" lon="115.34666114404473"><ele>129.0</ele><time>2026-05-02T04:29:43Z</time></trkpt><trkpt lat="-33.806439480544896" lon="115.34658295992529"><ele>129.0</ele><time>2026-05-02T04:29:46Z</time></trkpt><trkpt lat="-33.80645190882084" lon="115.34649921910045"><ele>129.0</ele><time>2026-05-02T04:29:51Z</time></trkpt><trkpt lat="-33.806479526293856" lon="115.34643034538614"><ele>128.99999999999997</ele><time>2026-05-02T04:29:55Z</time></trkpt><trkpt lat="-33.8065290723441" lon="115.34637868720765"><ele>129.0</ele><time>2026-05-02T04:29:59Z</time></trkpt><trkpt lat="-33.806595690729125" lon="115.34635423736631"><ele>129.0</ele><time>2026-05-02T04:30:11Z</time></trkpt><trkpt lat="-33.80652330217424" lon="115.34641958399484"><ele>129.0</ele><time>2026-05-02T04:30:33Z</time></trkpt><trkpt lat="-33.80655964359468" lon="115.34648239400391"><ele>129.0</ele><time>2026-05-02T04:30:38Z</time></trkpt><trkpt lat="-33.80654096767693" lon="115.34655652632851"><ele>129.0</ele><time>2026-05-02T04:30:45Z</time></trkpt><trkpt lat="-33.80648391108263" lon="115.34649717729411"><ele>129.0</ele><time>2026-05-02T04:31:29Z</time></trkpt><trkpt lat="-33.80656946204312" lon="115.34653596724084"><ele>129.0</ele><time>2026-05-02T04:32:10Z</time></trkpt><trkpt lat="-33.806472856980065" lon="115.34647150723386"><ele>129.0</ele><time>2026-05-02T04:34:25.8Z</time></trkpt><trkpt lat="-33.806406554118055" lon="115.34645715142452"><ele>129.0</ele><time>2026-05-02T04:34:27.7Z</time></trkpt><trkpt lat="-33.80648954726876" lon="115.34648717389275"><ele>129.0</ele><time>2026-05-02T04:34:29.6Z</time></trkpt><trkpt lat="-33.80655717608557" lon="115.34645106645984"><ele>129.0</ele><time>2026-05-02T04:34:48.875Z</time></trkpt><trkpt lat="-33.80663516562419" lon="115.34651807356516"><ele>129.0</ele><time>2026-05-02T04:35:01.6Z</time></trkpt><trkpt lat="-33.80665731133972" lon="115.34675482438243"><ele>129.0</ele><time>2026-05-02T04:38:19Z</time></trkpt><trkpt lat="-33.806664871693954" lon="115.34660334973766"><ele>129.0</ele><time>2026-05-02T04:38:21Z</time></trkpt><trkpt lat="-33.806590841466736" lon="115.34649170045466"><ele>129.0</ele><time>2026-05-02T04:38:22Z</time></trkpt><trkpt lat="-33.80656068735512" lon="115.34656431664216"><ele>129.0</ele><time>2026-05-02T04:39:04Z</time></trkpt><trkpt lat="-33.80649703127935" lon="115.34657047193305"><ele>129.0</ele><time>2026-05-02T04:39:12Z</time></trkpt><trkpt lat="-33.80655988530875" lon="115.34654601327941"><ele>129.0</ele><time>2026-05-02T04:39:24Z</time></trkpt><trkpt lat="-33.80655043566585" lon="115.34645862675491"><ele>128.99999999999997</ele><time>2026-05-02T04:39:31Z</time></trkpt><trkpt lat="-33.80651126194963" lon="115.34653727405858"><ele>129.0</ele><time>2026-05-02T04:39:44Z</time></trkpt><trkpt lat="-33.80646463290537" lon="115.3465986939189"><ele>129.0</ele><time>2026-05-02T04:39:48Z</time></trkpt><trkpt lat="-33.806411860604435" lon="115.34664322479009"><ele>129.0</ele><time>2026-05-02T04:39:52Z</time></trkpt><trkpt lat="-33.80635643263999" lon="115.34669770416669"><ele>129.0</ele><time>2026-05-02T04:39:57Z</time></trkpt><trkpt lat="-33.806302957415426" lon="115.34675268598026"><ele>128.99999999999997</ele><time>2026-05-02T04:40:02Z</time></trkpt><trkpt lat="-33.806250596064146" lon="115.34680487034701"><ele>129.0</ele><time>2026-05-02T04:40:07Z</time></trkpt><trkpt lat="-33.80619389803189" lon="115.34684953718681"><ele>128.99999999999997</ele><time>2026-05-02T04:40:12Z</time></trkpt><trkpt lat="-33.80613497352292" lon="115.34690503602022"><ele>129.0</ele><time>2026-05-02T04:40:18Z</time></trkpt><trkpt lat="-33.80614810221529" lon="115.34697954335307"><ele>129.0</ele><time>2026-05-02T04:40:23Z</time></trkpt><trkpt lat="-33.80618200028371" lon="115.34704933862082"><ele>129.0</ele><time>2026-05-02T04:40:29Z</time></trkpt><trkpt lat="-33.80613303579247" lon="115.34709759177179"><ele>129.0</ele><time>2026-05-02T04:40:47Z</time></trkpt><trkpt lat="-33.80616034523214" lon="115.34702828946261"><ele>128.99999999999997</ele><time>2026-05-02T04:41:13Z</time></trkpt><trkpt lat="-33.806133039228456" lon="115.34691967463586"><ele>129.0</ele><time>2026-05-02T04:41:20Z</time></trkpt><trkpt lat="-33.80616505236764" lon="115.34684595471282"><ele>128.99999999999997</ele><time>2026-05-02T04:41:25Z</time></trkpt><trkpt lat="-33.8062253416098" lon="115.34681573805098"><ele>129.0</ele><time>2026-05-02T04:41:30Z</time></trkpt><trkpt lat="-33.80628584071696" lon="115.346792686827"><ele>129.0</ele><time>2026-05-02T04:41:35Z</time></trkpt><trkpt lat="-33.806354944524024" lon="115.3467833978994"><ele>129.0</ele><time>2026-05-02T04:41:40Z</time></trkpt><trkpt lat="-33.806427305973365" lon="115.34675595766562"><ele>129.0</ele><time>2026-05-02T04:41:46Z</time></trkpt><trkpt lat="-33.80649403478465" lon="115.34674583105304"><ele>128.99999999999997</ele><time>2026-05-02T04:41:51Z</time></trkpt><trkpt lat="-33.80656611162451" lon="115.34673624745415"><ele>129.0</ele><time>2026-05-02T04:41:57Z</time></trkpt><trkpt lat="-33.806610665337" lon="115.34679083175278"><ele>128.99999999999997</ele><time>2026-05-02T04:42:11Z</time></trkpt><trkpt lat="-33.80663708231302" lon="115.34687135817086"><ele>129.0</ele><time>2026-05-02T04:42:16Z</time></trkpt><trkpt lat="-33.80657118628598" lon="115.34688327285708"><ele>129.0</ele><time>2026-05-02T04:42:41Z</time></trkpt><trkpt lat="-33.806595715759435" lon="115.3467900106075"><ele>129.0</ele><time>2026-05-02T04:42:59Z</time></trkpt><trkpt lat="-33.806611034652164" lon="115.34686825965954"><ele>129.0</ele><time>2026-05-02T04:43:08Z</time></trkpt><trkpt lat="-33.80663832886041" lon="115.34693990668215"><ele>128.99999999999997</ele><time>2026-05-02T04:43:14Z</time></trkpt><trkpt lat="-33.80666994966891" lon="115.34701896893826"><ele>129.0</ele><time>2026-05-02T04:43:36Z</time></trkpt><trkpt lat="-33.80661279669" lon="115.34707712234311"><ele>128.99999999999997</ele><time>2026-05-02T04:44:41Z</time></trkpt><trkpt lat="-33.8066008945927" lon="115.34700051396811"><ele>129.0</ele><time>2026-05-02T04:44:58Z</time></trkpt><trkpt lat="-33.806604482560644" lon="115.34692217069866"><ele>129.0</ele><time>2026-05-02T04:45:14Z</time></trkpt><trkpt lat="-33.806660783252276" lon="115.34696126880993"><ele>129.0</ele><time>2026-05-02T04:45:25Z</time></trkpt><trkpt lat="-33.8066899211422" lon="115.34703764820009"><ele>129.0</ele><time>2026-05-02T04:45:32Z</time></trkpt><trkpt lat="-33.806597398839784" lon="115.34702973014086"><ele>128.99999999999997</ele><time>2026-05-02T04:45:46Z</time></trkpt><trkpt lat="-33.80665845720558" lon="115.34705461216366"><ele>129.0</ele><time>2026-05-02T04:46:01Z</time></trkpt><trkpt lat="-33.80663875236588" lon="115.34697827376706"><ele>128.99999999999997</ele><time>2026-05-02T04:46:11Z</time></trkpt><trkpt lat="-33.80659840630858" lon="115.34691154921462"><ele>129.0</ele><time>2026-05-02T04:46:17Z</time></trkpt><trkpt lat="-33.80659322065227" lon="115.34683496988163"><ele>129.0</ele><time>2026-05-02T04:46:26Z</time></trkpt><trkpt lat="-33.806646658858135" lon="115.34688498706156"><ele>129.0</ele><time>2026-05-02T04:46:46Z</time></trkpt><trkpt lat="-33.80668439159497" lon="115.34696854147523"><ele>129.0</ele><time>2026-05-02T04:46:52Z</time></trkpt><trkpt lat="-33.80662423657794" lon="115.34694278227093"><ele>128.99999999999997</ele><time>2026-05-02T04:47:07Z</time></trkpt><trkpt lat="-33.806604656893306" lon="115.34685156532666"><ele>129.0</ele><time>2026-05-02T04:47:23Z</time></trkpt><trkpt lat="-33.806590387439165" lon="115.34677420226953"><ele>128.99999999999997</ele><time>2026-05-02T04:47:28Z</time></trkpt><trkpt lat="-33.80656597918852" lon="115.34668959806874"><ele>129.0</ele><time>2026-05-02T04:47:38Z</time></trkpt><trkpt lat="-33.80654635413176" lon="115.34660650812171"><ele>129.0</ele><time>2026-05-02T04:47:43Z</time></trkpt><trkpt lat="-33.80655878959011" lon="115.34652347821107"><ele>129.0</ele><time>2026-05-02T04:47:49Z</time></trkpt><trkpt lat="-33.806623860979954" lon="115.34652119315484"><ele>129.0</ele><time>2026-05-02T04:48:05Z</time></trkpt><trkpt lat="-33.806558797198974" lon="115.34651640073324"><ele>128.99999999999997</ele><time>2026-05-02T04:49:28.25Z</time></trkpt><trkpt lat="-33.806650460204935" lon="115.34649141115793"><ele>129.0</ele><time>2026-05-02T04:49:41Z</time></trkpt><trkpt lat="-33.80657796460508" lon="115.34649441152892"><ele>128.99999999999997</ele><time>2026-05-02T04:50:05.2Z</time></trkpt><trkpt lat="-33.806504777307104" lon="115.34649529041323"><ele>129.0</ele><time>2026-05-02T04:50:49.05Z</time></trkpt><trkpt lat="-33.806555935101485" lon="115.34654805776934"><ele>129.0</ele><time>2026-05-02T04:51:25Z</time></trkpt><trkpt lat="-33.80657891455946" lon="115.34663324836032"><ele>129.0</ele><time>2026-05-02T04:51:32Z</time></trkpt><trkpt lat="-33.80660963694552" lon="115.34670586296097"><ele>129.0</ele><time>2026-05-02T04:51:38Z</time></trkpt><trkpt lat="-33.80661456438624" lon="115.3467942413844"><ele>128.99999999999997</ele><time>2026-05-02T04:51:47Z</time></trkpt><trkpt lat="-33.80664481597099" lon="115.3468611754348"><ele>129.0</ele><time>2026-05-02T04:51:51Z</time></trkpt><trkpt lat="-33.806610308996184" lon="115.346778060306"><ele>128.99999999999997</ele><time>2026-05-02T04:52:04Z</time></trkpt><trkpt lat="-33.8065874848718" lon="115.34670361729347"><ele>129.0</ele><time>2026-05-02T04:52:20Z</time></trkpt><trkpt lat="-33.80656602086054" lon="115.34661777403842"><ele>129.0</ele><time>2026-05-02T04:52:26Z</time></trkpt><trkpt lat="-33.80654943663448" lon="115.34653154951593"><ele>129.0</ele><time>2026-05-02T04:52:33Z</time></trkpt><trkpt lat="-33.80655914790582" lon="115.34661970205276"><ele>129.0</ele><time>2026-05-02T04:52:52Z</time></trkpt><trkpt lat="-33.80659220948198" lon="115.34668421287746"><ele>128.99999999999997</ele><time>2026-05-02T04:52:56Z</time></trkpt><trkpt lat="-33.80661189818735" lon="115.34678527811629"><ele>129.0</ele><time>2026-05-02T04:53:11Z</time></trkpt><trkpt lat="-33.806631379494455" lon="115.34686006527285"><ele>128.99999999999997</ele><time>2026-05-02T04:53:14Z</time></trkpt><trkpt lat="-33.80667621303391" lon="115.34693044929263"><ele>129.0</ele><time>2026-05-02T04:53:27Z</time></trkpt><trkpt lat="-33.806699211743634" lon="115.34700265714034"><ele>129.0</ele><time>2026-05-02T04:53:33Z</time></trkpt><trkpt lat="-33.806640587674615" lon="115.3469570150538"><ele>129.0</ele><time>2026-05-02T04:54:09Z</time></trkpt><trkpt lat="-33.806579283719294" lon="115.34693548284962"><ele>129.0</ele><time>2026-05-02T04:54:21Z</time></trkpt><trkpt lat="-33.80662550846132" lon="115.34683312164817"><ele>128.99999999999997</ele><time>2026-05-02T04:54:50Z</time></trkpt><trkpt lat="-33.80663197446776" lon="115.346757703117"><ele>129.0</ele><time>2026-05-02T04:55:01Z</time></trkpt><trkpt lat="-33.80666776999905" lon="115.34683282808176"><ele>129.0</ele><time>2026-05-02T04:55:24Z</time></trkpt><trkpt lat="-33.8066762647552" lon="115.3469085709913"><ele>129.0</ele><time>2026-05-02T04:55:30Z</time></trkpt><trkpt lat="-33.80674382415389" lon="115.34690651712103"><ele>129.0</ele><time>2026-05-02T04:55:37Z</time></trkpt><trkpt lat="-33.80658828160691" lon="115.34689725750694"><ele>129.0</ele><time>2026-05-02T05:47:55Z</time></trkpt><trkpt lat="-33.80665900829452" lon="115.3468938078673"><ele>129.0</ele><time>2026-05-02T05:53:46Z</time></trkpt><trkpt lat="-33.80671269180476" lon="115.3468463421888"><ele>129.0</ele><time>2026-05-02T05:53:49Z</time></trkpt><trkpt lat="-33.80664739000512" lon="115.34686640269723"><ele>128.99999999999997</ele><time>2026-05-02T05:54:24Z</time></trkpt><trkpt lat="-33.80669956728555" lon="115.34682370734362"><ele>129.0</ele><time>2026-05-02T05:59:46Z</time></trkpt><trkpt lat="-33.80665028653977" lon="115.34675784450936"><ele>129.0</ele><time>2026-05-02T05:59:57Z</time></trkpt><trkpt lat="-33.806665903942964" lon="115.34684664572487"><ele>129.0</ele><time>2026-05-02T06:00:22Z</time></trkpt><trkpt lat="-33.806602492421646" lon="115.3468396904862"><ele>129.0</ele><time>2026-05-02T06:00:40Z</time></trkpt><trkpt lat="-33.806582371958015" lon="115.34676628914576"><ele>128.99999999999997</ele><time>2026-05-02T06:00:46Z</time></trkpt><trkpt lat="-33.806593624787645" lon="115.3466893850866"><ele>129.0</ele><time>2026-05-02T06:01:22Z</time></trkpt><trkpt lat="-33.80652358605757" lon="115.3467212721766"><ele>129.0</ele><time>2026-05-02T06:01:43Z</time></trkpt><trkpt lat="-33.806599876834476" lon="115.3467364378955"><ele>129.0</ele><time>2026-05-02T06:01:50Z</time></trkpt><trkpt lat="-33.806593442748635" lon="115.34665092052002"><ele>129.0</ele><time>2026-05-02T06:02:20Z</time></trkpt><trkpt lat="-33.80656703777634" lon="115.34657000499365"><ele>129.0</ele><time>2026-05-02T06:02:25Z</time></trkpt><trkpt lat="-33.80655349429712" lon="115.34649519185743"><ele>129.0</ele><time>2026-05-02T06:02:35Z</time></trkpt><trkpt lat="-33.80656950221205" lon="115.34661993871637"><ele>129.0</ele><time>2026-05-02T06:08:49Z</time></trkpt><trkpt lat="-33.80663015606481" lon="115.34665768003538"><ele>128.99999999999997</ele><time>2026-05-02T06:09:37Z</time></trkpt><trkpt lat="-33.80656089443812" lon="115.34664499822438"><ele>129.0</ele><time>2026-05-02T06:09:40Z</time></trkpt><trkpt lat="-33.80662947158924" lon="115.346638559575"><ele>129.0</ele><time>2026-05-02T06:10:17Z</time></trkpt><trkpt lat="-33.8066413239652" lon="115.34655121806972"><ele>129.0</ele><time>2026-05-02T06:10:25Z</time></trkpt><trkpt lat="-33.806692218493666" lon="115.3464976971765"><ele>129.0</ele><time>2026-05-02T06:11:06Z</time></trkpt><trkpt lat="-33.806630639401156" lon="115.34645837849509"><ele>128.99999999999997</ele><time>2026-05-02T06:12:41Z</time></trkpt><trkpt lat="-33.806588122484044" lon="115.34654998023011"><ele>129.0</ele><time>2026-05-02T06:13:22.026Z</time></trkpt><trkpt lat="-33.80665515571464" lon="115.3465003814413"><ele>129.0</ele><time>2026-05-02T06:13:33.225Z</time></trkpt><trkpt lat="-33.80657110379319" lon="115.3464903668871"><ele>129.0</ele><time>2026-05-02T06:14:09Z</time></trkpt><trkpt lat="-33.80650601531346" lon="115.34645538847002"><ele>129.0</ele><time>2026-05-02T06:14:11Z</time></trkpt><trkpt lat="-33.80657439929662" lon="115.34643947258859"><ele>129.0</ele><time>2026-05-02T06:15:41.026Z</time></trkpt><trkpt lat="-33.806608767946784" lon="115.34632706162814"><ele>129.0</ele><time>2026-05-02T06:16:02.925Z</time></trkpt><trkpt lat="-33.80668951454429" lon="115.34629955144831"><ele>129.0</ele><time>2026-05-02T06:16:22.375Z</time></trkpt><trkpt lat="-33.806755522898094" lon="115.34626269687887"><ele>129.0</ele><time>2026-05-02T06:16:25.225Z</time></trkpt><trkpt lat="-33.80670074211716" lon="115.34647735759621"><ele>129.0</ele><time>2026-05-02T06:17:10.126Z</time></trkpt><trkpt lat="-33.80649735266557" lon="115.34630721961021"><ele>129.0</ele><time>2026-05-02T06:17:46.825Z</time></trkpt><trkpt lat="-33.80642891099441" lon="115.34626235473716"><ele>129.0</ele><time>2026-05-02T06:17:57.25Z</time></trkpt><trkpt lat="-33.806317284730895" lon="115.34633897341675"><ele>129.0</ele><time>2026-05-02T06:18:04Z</time></trkpt><trkpt lat="-33.806443685274566" lon="115.3464860172324"><ele>129.0</ele><time>2026-05-02T06:18:16Z</time></trkpt><trkpt lat="-33.80651239881752" lon="115.34649357614998"><ele>129.0</ele><time>2026-05-02T06:18:35Z</time></trkpt><trkpt lat="-33.80650002137167" lon="115.346405782326"><ele>129.0</ele><time>2026-05-02T06:18:49.976Z</time></trkpt><trkpt lat="-33.80652160845996" lon="115.34632636374513"><ele>129.0</ele><time>2026-05-02T06:18:51.775Z</time></trkpt><trkpt lat="-33.80664599315713" lon="115.34630725868591"><ele>129.0</ele><time>2026-05-02T06:18:54.526Z</time></trkpt><trkpt lat="-33.80670058602256" lon="115.34624426751319"><ele>129.0</ele><time>2026-05-02T06:19:00.226Z</time></trkpt><trkpt lat="-33.806846914517806" lon="115.34642350901035"><ele>129.0</ele><time>2026-05-02T06:19:43.075Z</time></trkpt><trkpt lat="-33.80677761396815" lon="115.34650376272577"><ele>129.0</ele><time>2026-05-02T06:19:46Z</time></trkpt><trkpt lat="-33.80667189368224" lon="115.34647362951772"><ele>129.0</ele><time>2026-05-02T06:19:51Z</time></trkpt><trkpt lat="-33.80652700559807" lon="115.34645144415241"><ele>129.0</ele><time>2026-05-02T06:19:52Z</time></trkpt></trkseg></trk></gpx>